[[{"header":{"parameterUnit":"m.s-1","parameterCategory":1,"la1":30.6,"la2":28.766,"lo1":-90.7593,"lo2":-88.6598,"dy":0.0162,"dx":0.0183,"nx":116,"ny":114,"refTime":"2023-10-25T12:00:00:Z","depth":0,"parameterNumber":2,"parameterNumberName":"U-component_of_WINDS"},"data":[0.0,0.0,0.0,0.0,0.0,0.0,0.0,0.0,0.0,0.0,0.0,0.0,0.0,0.0,0.0,0.0,0.0,0.0,0.0,0.0,0.0,0.0,0.0,0.0,0.0,0.0,0.0,0.0,0.0,0.0,0.0,0.0,0.0,0.0,0.0,0.0,0.0,0.0,0.0,0.0,0.0,0.0,0.0,0.0,0.0,0.0,0.0,0.0,0.0,0.0,0.0,0.0,0.0,0.0,0.0,0.0,0.0,0.0,0.0,0.0,0.0,0.0,0.0,0.0,0.0,0.0,0.0,0.0,0.0,0.0,0.0,0.0,0.0,0.0,0.0,0.0,0.0,0.0,0.0,0.0,0.0,0.0,0.0,0.0,0.0,0.0,0.0,0.0,0.0,0.0,0.0,0.0,0.0,0.0,0.0,0.0,0.0,0.0,0.0,0.0,0.0,0.0,0.0,0.0,0.0,0.0,0.0,0.0,0.0,0.0,0.0,0.0,0.0,0.0,0.0,0.0,0.0,0.0,0.0,0.0,0.0,0.0,0.0,0.0,0.0,0.0,0.0,0.0,0.0,0.0,0.0,0.0,0.0,0.0,0.0,0.0,0.0,0.0,0.0,0.0,0.0,0.0,0.0,0.0,0.0,0.0,0.0,0.0,0.0,0.0,0.0,0.0,0.0,0.0,0.0,0.0,0.0,0.0,0.0,0.0,0.0,0.0,0.0,0.0,0.0,0.0,0.0,0.0,0.0,0.0,0.0,0.0,0.0,0.0,0.0,0.0,0.0,0.0,0.0,0.0,0.0,0.0,0.0,0.0,0.0,0.0,0.0,0.0,0.0,0.0,0.0,0.0,0.0,0.0,0.0,0.0,0.0,0.0,0.0,0.0,0.0,0.0,0.0,0.0,0.0,0.0,0.0,0.0,0.0,0.0,0.0,0.0,0.0,0.0,0.0,0.0,0.0,0.0,0.0,0.0,0.0,0.0,0.0,0.0,0.0,0.0,0.0,0.0,0.0,0.0,0.0,0.0,0.0,0.0,0.0,0.0,0.0,0.0,0.0,0.0,0.0,0.0,0.0,0.0,0.0,0.0,0.0,0.0,0.0,0.0,0.0,0.0,0.0,0.0,0.0,0.0,0.0,0.0,0.0,0.0,0.0,0.0,0.0,0.0,0.0,0.0,0.0,0.0,0.0,0.0,0.0,0.0,0.0,0.0,0.0,0.0,0.0,0.0,0.0,0.0,0.0,0.0,0.0,0.0,0.0,0.0,0.0,0.0,0.0,0.0,0.0,0.0,0.0,0.0,0.0,0.0,0.0,0.0,0.0,0.0,0.0,0.0,0.0,0.0,0.0,0.0,0.0,0.0,0.0,0.0,0.0,0.0,0.0,0.0,0.0,0.0,0.0,0.0,0.0,0.0,0.0,0.0,0.0,0.0,0.0,0.0,0.0,0.0,0.0,0.0,0.0,0.0,0.0,0.0,0.0,0.0,0.0,0.0,0.0,0.0,0.0,0.0,0.0,0.0,0.0,0.0,0.0,0.0,0.0,0.0,0.0,0.0,0.0,0.0,0.0,0.0,0.0,0.0,0.0,0.0,0.0,0.0,0.0,0.0,0.0,0.0,0.0,0.0,0.0,0.0,0.0,0.0,0.0,0.0,0.0,0.0,0.0,0.0,0.0,0.0,0.0,0.0,0.0,0.0,0.0,0.0,0.0,0.0,0.0,0.0,0.0,0.0,0.0,0.0,0.0,0.0,0.0,0.0,0.0,0.0,0.0,0.0,0.0,0.0,0.0,0.0,0.0,0.0,0.0,0.0,0.0,0.0,0.0,0.0,0.0,0.0,0.0,0.0,0.0,0.0,0.0,0.0,0.0,0.0,0.0,0.0,0.0,0.0,0.0,0.0,0.0,0.0,0.0,0.0,0.0,0.0,0.0,0.0,0.0,0.0,0.0,0.0,0.0,0.0,0.0,0.0,0.0,0.0,0.0,0.0,0.0,0.0,0.0,0.0,0.0,0.0,0.0,0.0,0.0,0.0,0.0,0.0,0.0,0.0,0.0,0.0,0.0,0.0,0.0,0.0,0.0,0.0,0.0,0.0,0.0,0.0,0.0,0.0,0.0,0.0,0.0,0.0,0.0,0.0,0.0,0.0,0.0,0.0,0.0,0.0,0.0,0.0,0.0,0.0,0.0,0.0,0.0,0.0,0.0,0.0,0.0,0.0,0.0,0.0,0.0,0.0,0.0,0.0,0.0,0.0,0.0,0.0,0.0,0.0,0.0,0.0,0.0,0.0,0.0,0.0,0.0,0.0,0.0,0.0,0.0,0.0,0.0,0.0,0.0,0.0,0.0,0.0,0.0,0.0,0.0,0.0,0.0,0.0,0.0,0.0,0.0,0.0,0.0,0.0,0.0,0.0,0.0,0.0,0.0,0.0,0.0,0.0,0.0,0.0,0.0,0.0,0.0,0.0,0.0,0.0,0.0,0.0,0.0,0.0,0.0,0.0,0.0,0.0,0.0,0.0,0.0,0.0,0.0,0.0,0.0,0.0,0.0,0.0,0.0,0.0,0.0,0.0,0.0,0.0,0.0,0.0,0.0,0.0,0.0,0.0,0.0,0.0,0.0,0.0,0.0,0.0,0.0,0.0,0.0,0.0,0.0,0.0,0.0,0.0,0.0,0.0,0.0,0.0,0.0,0.0,0.0,0.0,0.0,0.0,0.0,0.0,0.0,0.0,0.0,0.0,0.0,0.0,0.0,0.0,0.0,0.0,0.0,0.0,0.0,0.0,0.0,0.0,0.0,0.0,0.0,0.0,0.0,0.0,0.0,0.0,0.0,0.0,0.0,0.0,0.0,0.0,0.0,0.0,0.0,0.0,0.0,0.0,0.0,0.0,0.0,0.0,0.0,0.0,0.0,0.0,0.0,0.0,0.0,0.0,0.0,0.0,0.0,0.0,0.0,0.0,0.0,0.0,0.0,0.0,0.0,0.0,0.0,0.0,0.0,0.0,0.0,0.0,0.0,0.0,0.0,0.0,0.0,0.0,0.0,0.0,0.0,0.0,0.0,0.0,0.0,0.0,0.0,0.0,0.0,0.0,0.0,0.0,0.0,0.0,0.0,0.0,0.0,0.0,0.0,0.0,0.0,0.0,0.0,0.0,0.0,0.0,0.0,0.0,0.0,0.0,0.0,0.0,0.0,0.0,0.0,0.0,0.0,0.0,0.0,0.0,0.0,0.0,0.0,0.0,0.0,0.0,0.0,0.0,0.0,0.0,0.0,0.0,0.0,0.0,0.0,0.0,0.0,0.0,0.0,0.0,0.0,0.0,0.0,0.0,0.0,0.0,0.0,0.0,0.0,0.0,0.0,0.0,0.0,0.0,0.0,0.0,0.0,0.0,0.0,0.0,0.0,0.0,0.0,0.0,0.0,0.0,0.0,0.0,0.0,0.0,0.0,0.0,0.0,0.0,0.0,0.0,0.0,0.0,0.0,0.0,0.0,0.0,0.0,0.0,0.0,0.0,0.0,0.0,0.0,0.0,0.0,0.0,0.0,0.0,0.0,0.0,0.0,0.0,0.0,0.0,0.0,0.0,0.0,0.0,0.0,0.0,0.0,0.0,0.0,0.0,0.0,0.0,0.0,0.0,0.0,0.0,0.0,0.0,0.0,0.0,0.0,0.0,0.0,0.0,0.0,0.0,0.0,0.0,0.0,0.0,0.0,0.0,0.0,0.0,0.0,0.0,0.0,0.0,0.0,0.0,0.0,0.0,0.0,0.0,0.0,0.0,0.0,0.0,0.0,0.0,0.0,0.0,0.0,0.0,0.0,0.0,0.0,0.0,0.0,0.0,0.0,0.0,0.0,0.0,0.0,0.0,0.0,0.0,0.0,0.0,0.0,0.0,0.0,0.0,0.0,0.0,0.0,0.0,0.0,0.0,0.0,0.0,0.0,0.0,0.0,0.0,0.0,0.0,0.0,0.0,0.0,0.0,0.0,0.0,0.0,0.0,0.0,0.0,0.0,0.0,0.0,0.0,0.0,0.0,0.0,0.0,0.0,0.0,0.0,0.0,0.0,0.0,0.0,0.0,0.0,0.0,0.0,0.0,0.0,0.0,0.0,0.0,0.0,0.0,0.0,0.0,0.0,0.0,0.0,0.0,0.0,0.0,0.0,0.0,0.0,0.0,0.0,0.0,0.0,0.0,0.0,0.0,0.0,0.0,0.0,0.0,0.0,0.0,0.0,0.0,0.0,0.0,0.0,0.0,0.0,0.0,0.0,0.0,0.0,0.0,0.0,0.0,0.0,0.0,0.0,0.0,0.0,0.0,0.0,0.0,0.0,0.0,0.0,0.0,0.0,0.0,0.0,0.0,0.0,0.0,0.0,0.0,0.0,0.0,0.0,0.0,0.0,0.0,0.0,0.0,0.0,0.0,0.0,0.0,0.0,0.0,0.0,0.0,0.0,0.0,0.0,0.0,0.0,0.0,0.0,0.0,0.0,0.0,0.0,0.0,0.0,0.0,0.0,0.0,0.0,0.0,0.0,0.0,0.0,0.0,0.0,0.0,0.0,0.0,0.0,0.0,0.0,0.0,0.0,0.0,0.0,0.0,0.0,0.0,0.0,0.0,0.0,0.0,0.0,0.0,0.0,0.0,0.0,0.0,0.0,0.0,0.0,0.0,0.0,0.0,0.0,0.0,0.0,0.0,0.0,0.0,0.0,0.0,0.0,0.0,0.0,0.0,0.0,0.0,0.0,0.0,0.0,0.0,0.0,0.0,0.0,0.0,0.0,0.0,0.0,0.0,0.0,0.0,0.0,0.0,0.0,0.0,0.0,0.0,0.0,0.0,0.0,0.0,0.0,0.0,0.0,0.0,0.0,0.0,0.0,0.0,0.0,0.0,0.0,0.0,0.0,0.0,0.0,0.0,0.0,0.0,0.0,0.0,0.0,0.0,0.0,0.0,0.0,0.0,0.0,0.0,0.0,0.0,0.0,0.0,0.0,0.0,0.0,0.0,0.0,0.0,0.0,0.0,0.0,0.0,0.0,0.0,0.0,0.0,0.0,0.0,0.0,0.0,0.0,0.0,0.0,0.0,0.0,0.0,0.0,0.0,0.0,0.0,0.0,0.0,0.0,0.0,0.0,0.0,0.0,0.0,0.0,0.0,0.0,0.0,0.0,0.0,0.0,0.0,0.0,0.0,0.0,0.0,0.0,0.0,0.0,0.0,0.0,0.0,0.0,0.0,0.0,0.0,0.0,0.0,0.0,0.0,0.0,0.0,0.0,0.0,0.0,0.0,0.0,0.0,0.0,0.0,0.0,0.0,0.0,0.0,0.0,0.0,0.0,0.0,0.0,0.0,0.0,0.0,0.0,0.0,0.0,0.0,0.0,0.0,0.0,0.0,0.0,0.0,0.0,0.0,0.0,0.0,0.0,0.0,0.0,0.0,0.0,0.0,0.0,0.0,0.0,0.0,0.0,0.0,0.0,0.0,0.0,0.0,0.0,0.0,0.0,0.0,0.0,0.0,0.0,0.0,0.0,0.0,0.0,0.0,0.0,0.0,0.0,0.0,0.0,0.0,0.0,0.0,0.0,0.0,0.0,0.0,0.0,0.0,0.0,0.0,0.0,0.0,0.0,0.0,0.0,0.0,0.0,0.0,0.0,0.0,0.0,0.0,0.0,0.0,0.0,0.0,0.0,0.0,0.0,0.0,0.0,0.0,0.0,0.0,0.0,0.0,0.0,0.0,0.0,0.0,0.0,0.0,0.0,0.0,0.0,0.0,0.0,0.0,0.0,0.0,0.0,0.0,0.0,0.0,0.0,0.0,0.0,0.0,0.0,0.0,0.0,0.0,0.0,0.0,0.0,0.0,0.0,0.0,0.0,0.0,0.0,0.0,0.0,0.0,0.0,0.0,0.0,0.0,0.0,0.0,0.0,0.0,0.0,0.0,0.0,0.0,0.0,0.0,0.0,0.0,0.0,0.0,0.0,0.0,0.0,0.0,0.0,0.0,0.0,0.0,0.0,0.0,0.0,0.0,0.0,0.0,0.0,0.0,0.0,0.0,0.0,0.0,0.0,0.0,0.0,0.0,0.0,0.0,0.3539,0.0,0.0,0.0,0.0,0.0,0.0,0.0,0.0,0.0,0.0,0.0,0.0,0.0,0.0,0.0,0.0,0.0,0.0,0.0,0.0,0.0,0.0,0.0,0.0,0.0,0.0,0.0,0.0,0.0,0.0,0.0,0.0,0.0,0.0,0.0,0.0,0.0,0.0,-0.8827,-0.7793,-0.7443,-0.7703,-0.6856,-0.6766,-0.7289,0.0,0.0,0.0,0.0,0.0,0.0,0.0,0.0,0.0,0.0,0.0,0.0,0.0,0.0,0.0,0.0,0.0,0.0,0.0,0.0,0.0,0.0,0.0,0.0,0.0,0.0,0.0,0.0,0.0,0.0,0.0,0.0,0.0,0.0,0.0,0.0,0.0,0.0,0.0,0.0,0.0,0.0,0.0,0.0,0.0,0.0,0.0,0.0,0.0,0.0,0.0,0.0,0.0,0.0,0.0,0.0,0.0,0.0,0.0,0.0,0.0,0.0,0.0,0.0,0.0,0.0,0.0,0.0,0.0,0.0,0.0,0.3987,0.0,0.0,0.0,0.0,0.0,0.0,0.0,0.0,0.0,0.0,0.0,0.0,0.0,0.0,0.0,0.0,0.0,0.0,0.0,0.0,0.0,0.0,0.0,-1.0983,-1.0928,-1.0118,-0.9807,-0.9532,0.0,0.0,0.0,0.0,0.0,0.0,-0.8315,-0.8222,-0.8154,-0.8109,-0.7451,-0.706,-0.6923,-0.6284,-0.6398,-0.7155,-0.7055,0.0,0.0,0.0,0.0,0.0,0.0,0.0,0.0,0.0,0.0,0.0,0.0,0.0,0.0,0.0,0.0,0.0,0.0,0.0,0.0,0.0,0.0,0.0,0.0,0.0,0.0,0.0,0.0,0.0,0.0,0.0,0.0,0.0,0.0,0.0,0.0,0.0,0.0,0.0,0.0,0.0,0.0,0.0,0.0,0.0,0.0,0.0,0.0,0.0,0.0,0.0,0.0,0.0,0.0,0.0,0.0,0.0,0.0,0.0,0.0,0.0,0.0,0.0,0.2481,0.2429,0.2405,0.2575,0.2613,0.2616,0.3888,0.4429,0.4422,0.4473,0.0,0.0,0.0,0.0,0.0,0.0,0.0,0.0,0.0,0.0,0.0,0.0,0.0,0.0,0.0,0.0,0.0,0.0,0.0,-1.0589,-1.0136,-1.0466,-1.047,-0.989,-0.9394,-0.9034,-0.8871,0.0,0.0,0.0,0.0,0.0,-0.7971,-0.8071,-0.8,-0.7759,-0.6646,-0.5877,-0.5482,-0.5487,-0.5595,-0.5766,-0.586,-0.599,-0.6114,0.0,0.0,0.0,0.0,0.0,0.0,0.0,0.0,0.0,0.0,0.0,0.0,0.0,0.0,0.0,0.0,0.0,0.0,0.0,0.0,0.0,0.0,0.0,0.0,0.0,0.0,0.0,0.0,0.0,0.0,0.0,0.0,0.0,0.0,0.0,0.0,0.0,0.0,0.0,0.0,0.0,-0.2702,-0.1815,0.0,0.0,0.0,0.0,0.0,0.0,0.0,0.0,0.0,0.0,0.0,0.0,0.0,0.0113,0.0993,0.0677,0.0722,0.116,0.1317,0.1604,0.1971,0.2015,0.2299,0.278,0.2909,0.0,0.3651,0.3711,0.0,0.0,0.0,0.0,0.0,0.0,0.0,0.0,0.0,0.0,0.0,0.0,0.0,0.0,0.0,0.0,0.0,0.0,0.0,0.0,0.0,-1.057,-1.0617,-0.9403,-0.9831,-0.9656,-0.8426,-0.8603,0.0,0.0,0.0,-0.7555,-0.7555,-0.7549,-0.7658,-0.7918,-0.7661,-0.7394,-0.7102,-0.6713,-0.6451,-0.6316,-0.5924,-0.5893,-0.6134,-0.655,0.0,0.0,0.0,0.0,0.0,0.0,0.0,0.0,0.0,0.0,0.0,0.0,0.0,0.0,0.0,0.0,0.0,0.0,0.0,0.0,0.0,0.0,0.0,0.0,0.0,0.0,0.0,0.0,0.0,0.0,0.0,0.0,0.0,0.0,0.0,0.0,0.0,0.0,0.0,-0.3261,-0.2727,-0.2655,-0.1886,-0.1385,0.0,0.0,0.0,0.0,0.0,0.0,0.0,0.0,0.0,0.0154,-0.009,0.0189,0.1073,0.0935,0.0977,0.1185,0.1118,0.1184,0.1391,0.1402,0.1797,0.2499,0.1979,0.2099,0.2674,0.2884,0.2894,0.2833,0.0,0.0,0.0,0.0,0.3273,0.3075,0.0,0.0,0.0,0.0,0.0,0.0,0.0,0.0,0.0,0.0,0.0,0.0,-0.9736,-1.0833,-1.0968,-0.934,-1.01,-0.9881,-0.8093,-0.8181,-0.8052,-0.7528,-0.7405,-0.7352,-0.7352,-0.7198,-0.7385,-0.7915,-0.821,-0.8321,-0.8251,-0.7508,-0.7094,-0.6953,-0.6331,-0.6029,-0.6042,-0.6659,-0.6594,-0.6078,0.0,0.0,0.0,0.0,0.0,0.0,0.0,0.0,0.0,0.0,0.0,0.0,0.0,0.0,0.0,0.0,0.0,0.0,0.0,0.0,0.0,0.0,0.0,0.0,0.0,0.0,0.0,0.0,0.0,0.0,0.0,0.0,0.0,0.0,0.0,0.0,0.0,-0.3711,-0.3296,-0.3299,-0.2348,-0.1757,0.0,0.0,0.0,0.0,0.0,0.0,-0.0976,-0.1207,-0.0904,0.0077,-0.0186,0.0087,0.0934,0.0726,0.0577,0.0483,0.0357,0.0307,0.0281,0.0308,0.0899,0.1893,0.1259,0.1255,0.1711,0.2078,0.2197,0.2269,0.3462,0.3712,0.342,0.3643,0.3401,0.2816,0.0,0.0,0.0,0.0,0.0,0.0,0.0,0.0,0.0,0.0,0.0,-1.0273,-0.9918,-1.1142,-1.1441,-1.0155,-0.9643,-0.8975,-0.7978,-0.7445,-0.7281,-0.7492,-0.7494,-0.7494,-0.7494,-0.7297,-0.728,-0.7429,-0.7207,-0.7191,-0.7346,-0.681,-0.6676,-0.691,-0.6801,-0.6255,-0.5501,-0.6346,-0.6448,-0.6032,-0.6282,0.0,0.0,0.0,0.0,0.0,0.0,0.0,0.0,0.0,0.0,0.0,0.0,0.0,0.0,0.0,0.0,0.0,0.0,0.0,0.0,0.0,0.0,0.0,0.0,0.0,0.0,0.0,0.0,0.0,0.0,0.0,0.0,0.0,0.0,0.0,0.0,0.0,0.0,-0.3468,-0.2789,0.0,0.0,0.0,0.0,-0.1127,-0.1318,-0.1158,-0.066,-0.1006,-0.0557,0.0893,-0.0291,-0.0669,-0.0026,-0.08,-0.1448,-0.202,-0.1712,-0.1593,-0.1648,-0.1594,-0.0674,0.0877,0.0892,0.0881,0.0903,0.1282,0.1665,0.2108,0.3069,0.2955,0.229,0.2437,0.1551,0.0267,0.0,0.0,0.0,0.0,0.0,0.0,0.0,0.0,-0.7906,-0.8315,-0.8878,-0.9293,-0.943,-1.0515,-1.0858,-0.9926,-1.035,-1.0078,-0.8691,-0.8507,-0.8414,-0.834,-0.8132,-0.802,-0.8017,-0.7895,-0.803,-0.8439,-0.8515,-0.8457,-0.8261,-0.79,-0.768,-0.7583,-0.6813,-0.6371,-0.6219,-0.683,-0.6611,-0.592,-0.6539,-0.6379,0.0,0.0,0.0,0.0,0.0,0.0,0.0,0.0,0.0,0.0,0.0,0.0,0.0,0.0,0.0,0.0,0.0,0.0,0.0,0.0,0.0,0.0,0.0,0.0,0.0,0.0,0.0,0.0,0.0,0.0,0.0,0.0,0.0,0.0,0.0,0.0,0.0,-0.5925,-0.4822,0.0,-0.3182,-0.1812,-0.1049,-0.1244,-0.1578,-0.1713,-0.1577,-0.1831,-0.1687,-0.1091,-0.1518,-0.1598,-0.1207,-0.1465,-0.1719,-0.1937,-0.2004,-0.2038,-0.2066,-0.2024,-0.1384,-0.033,-0.0897,-0.0841,-0.0415,-0.1229,-0.0824,0.0435,0.1556,0.1897,0.175,0.1843,0.1504,0.0877,0.0,0.0,0.0,0.0,0.0,0.0,0.0,-0.7612,-0.8003,-0.8453,-0.8715,-0.9125,-0.9806,-1.0545,-1.0737,-1.0095,-1.0594,-1.044,-0.9226,-0.8824,-0.8733,-0.8953,-0.8693,-0.8514,-0.8473,-0.8611,-0.8899,-0.9381,-0.9617,-0.9551,-0.9196,-0.885,-0.8482,-0.8084,-0.715,-0.674,-0.6786,-0.7097,-0.6709,-0.5965,-0.6574,-0.6584,-0.623,0.0,0.0,0.0,0.0,0.0,0.0,0.0,0.0,0.0,0.0,0.0,0.0,0.0,0.0,0.0,0.0,0.0,0.0,0.0,0.0,0.0,0.0,0.0,0.0,0.0,0.0,0.0,0.0,0.0,0.0,0.0,0.0,0.0,0.0,0.0,-0.7206,-0.7712,-0.6624,-0.5491,-0.4554,-0.3072,-0.202,-0.1633,-0.1899,-0.2126,-0.2256,-0.2388,-0.2395,-0.2217,-0.239,-0.2371,-0.2095,-0.2092,-0.2216,-0.2411,-0.2384,-0.2468,-0.2664,-0.2708,-0.205,-0.0946,-0.1832,-0.1755,-0.1082,-0.2262,-0.2274,-0.1378,-0.0026,0.069,0.098,0.0908,0.0681,0.0253,0.0,0.0,0.0,0.0,0.0,0.0,-0.796,-0.8075,-0.8457,-0.9504,-0.95,-0.9834,-1.1032,-1.128,-1.1183,-1.0708,-1.0306,-0.9874,-0.9409,-0.8208,-0.8059,-0.9256,-0.9125,-0.8962,-0.8846,-0.9333,-0.9768,-1.0108,-1.0309,-1.0253,-1.0003,-0.9455,-0.8939,-0.8421,-0.7892,-0.7467,-0.7167,-0.7143,-0.6755,-0.6182,-0.6439,-0.7065,-0.7697,0.0,0.0,0.0,0.0,0.0,0.0,0.0,0.0,0.0,0.0,0.0,0.0,0.0,0.0,0.0,0.0,0.0,0.0,0.0,0.0,0.0,0.0,0.0,0.0,0.0,0.0,0.0,0.0,0.0,0.0,0.0,0.0,0.0,-0.8176,-0.8898,-0.9184,-0.864,-0.8048,-0.693,-0.5037,-0.3908,-0.3004,-0.2267,-0.2235,-0.2362,-0.2624,-0.263,-0.2542,-0.227,-0.286,-0.3052,-0.2747,-0.2776,-0.3057,-0.3587,-0.3003,-0.3031,-0.3593,-0.3681,-0.2712,-0.1016,-0.1759,-0.1705,-0.1124,-0.1742,-0.2496,-0.317,-0.1587,-0.0622,-0.0114,-0.045,-0.1103,-0.1894,0.0,0.0,0.0,0.0,0.0,0.0,-0.7455,-0.7597,-0.7881,-0.8465,-0.8755,-0.9256,-1.0217,-1.0413,-1.0406,-1.0286,-0.9535,-0.9078,-0.9033,-0.8443,-0.8511,-0.9475,-0.946,-0.9493,-0.9593,-0.9588,-0.981,-1.025,-1.0255,-1.023,-1.0209,-0.9825,-0.9654,-0.9676,-0.8951,-0.8582,-0.8514,-0.8133,-0.7742,-0.7415,-0.7527,-0.7853,-0.8163,0.0,0.0,0.0,0.0,0.0,0.0,0.0,0.0,0.0,0.0,0.0,0.0,0.0,0.0,0.0,0.0,0.0,0.0,0.0,0.0,0.0,0.0,0.0,0.0,0.0,0.0,0.0,0.0,0.0,0.0,0.0,0.0,-0.888,-0.8784,-0.9005,-0.9425,-1.0082,-0.8353,-0.6822,-0.6042,-0.4266,-0.2975,-0.2521,-0.2849,-0.3113,-0.3257,-0.3573,-0.375,-0.3717,-0.4742,-0.4808,-0.3882,-0.4399,-0.4313,-0.3589,-0.3491,-0.3512,-0.3684,-0.3746,-0.3492,-0.3005,-0.3259,-0.3278,-0.3134,-0.3501,-0.3667,-0.3643,-0.2859,-0.2344,-0.2037,-0.2141,-0.243,-0.2876,0.0,0.0,0.0,0.0,0.0,0.0,-0.7505,-0.7609,-0.7933,-0.867,-0.8753,-0.9175,-1.0298,-1.0055,-0.9806,-0.9839,-0.9107,-0.8761,-0.8963,-0.8979,-0.9005,-0.9094,-0.956,-0.9856,-0.9947,-0.9991,-1.0179,-1.0544,-1.0496,-1.047,-1.042,-1.0219,-1.0112,-1.0008,-0.9533,-0.9298,-0.9212,-0.8899,-0.8838,-0.8965,-0.8675,-0.853,-0.8442,-0.7668,-0.8078,-0.8997,-0.836,-0.9026,-1.0189,-0.9811,0.0,0.0,0.0,0.0,0.0,0.0,0.0,0.0,0.0,0.0,0.0,0.0,0.0,0.0,0.0,0.0,0.0,0.0,0.0,0.0,0.0,0.0,0.0,0.0,-0.9585,-0.9622,-0.9557,-0.9604,-0.9965,-1.078,-0.8999,-0.7451,-0.6844,-0.5065,-0.3684,-0.3076,-0.3295,-0.3511,-0.357,-0.4338,-0.4649,-0.4362,-0.5851,-0.6138,-0.5078,-0.5271,-0.5037,-0.4341,-0.3905,-0.3707,-0.371,-0.3798,-0.3691,-0.3444,-0.3908,-0.3958,-0.3763,-0.4298,-0.4372,0.0,0.0,0.0,0.0,0.0,-0.3515,-0.3914,0.0,0.0,0.0,0.0,0.0,0.0,-0.7831,-0.7901,-0.83,-0.943,-0.9093,-0.9262,-1.0599,-0.9894,-0.9364,-0.9442,-0.8914,-0.8752,-0.9139,-0.9641,-0.9555,-0.8736,-0.9678,-1.0183,-1.0108,-1.0458,-1.0732,-1.0889,-1.0884,-1.078,-1.0611,-1.0601,-1.0352,-0.991,-0.993,-0.979,-0.9519,-0.9557,-0.994,-1.0424,-0.9714,-0.9198,-0.875,-0.753,-0.8247,-0.9783,-0.9157,-0.9508,-1.0368,-1.0912,0.0,0.0,0.0,0.0,0.0,0.0,0.0,0.0,0.0,0.0,0.0,0.0,0.0,0.0,0.0,0.0,0.0,0.0,0.0,0.0,0.0,0.0,0.0,0.0,-1.0106,-1.0072,-1.0259,-1.0418,-1.0612,-1.0932,-0.9732,-0.8527,-0.7621,-0.6288,-0.5103,-0.4206,-0.4162,-0.4194,-0.4257,0.0,0.0,0.0,0.0,-0.734,-0.6446,-0.5909,-0.5592,-0.5427,-0.4309,-0.3774,-0.3779,-0.3934,-0.369,-0.3163,-0.4057,-0.416,-0.3704,-0.4506,-0.4697,-0.448,-0.4247,-0.3757,-0.3186,-0.3761,-0.4319,-0.4917,0.0,0.0,0.0,0.0,0.0,0.0,-0.7831,-0.7901,-0.8121,-0.8732,-0.8668,-0.8694,-0.9032,-0.8965,-0.8962,-0.9088,-0.8737,-0.8818,-0.9546,-0.988,-1.0192,-1.0483,-1.0863,-1.0956,-1.0744,-1.0911,-1.0949,-1.0832,-1.076,-1.0756,-1.0756,-1.0714,-1.0618,-1.0544,-1.0694,-1.0569,-1.0243,-1.0555,-1.0593,-1.0391,-1.0186,-1.0035,-0.9793,-0.8618,-0.8807,-0.9551,-0.8798,-0.9978,-1.1787,-1.0805,-1.1646,-1.2846,-1.1276,-1.1118,0.0,0.0,0.0,0.0,0.0,0.0,0.0,0.0,0.0,0.0,0.0,0.0,0.0,0.0,0.0,0.0,0.0,0.0,0.0,-0.9703,-0.9938,-1.0131,-1.0276,-1.0785,-1.1041,-1.085,-0.996,-0.9267,-0.9023,-0.8196,-0.7593,-0.7421,-0.7538,-0.7631,-0.7653,-0.8305,-0.8602,-0.8436,-0.9554,-0.9588,-0.8454,-0.7594,-0.6695,-0.5704,0.0,0.0,-0.4191,-0.4539,-0.4621,-0.4536,-0.4731,-0.4734,-0.4647,-0.4814,-0.4713,-0.4397,-0.4132,-0.4206,-0.4411,-0.4347,-0.4858,-0.5631,0.0,0.0,0.0,0.0,0.0,0.0,-0.7813,-0.7814,-0.8021,-0.8753,-0.8734,-0.8685,-0.8784,-0.909,-0.921,-0.901,-0.899,-0.9202,-0.9664,-0.9981,-1.0366,-1.0822,-1.1148,-1.1215,-1.0987,-1.108,-1.1002,-1.0752,-1.0733,-1.0729,-1.0752,-1.0706,-1.0741,-1.0862,-1.0956,-1.0919,-1.0814,-1.1021,-1.0908,-1.0588,-1.0563,-1.0382,-1.009,-0.9473,-0.9556,-0.9944,-0.9462,-1.0411,-1.1839,-1.155,-1.2387,-1.3346,-1.2139,-1.1986,-1.2018,0.0,0.0,0.0,0.0,0.0,0.0,0.0,0.0,0.0,0.0,0.0,0.0,0.0,0.0,-0.9986,0.0,0.0,-1.019,-1.0397,-1.0754,-1.1018,-1.1093,-1.1332,-1.1389,-1.11,-1.0299,-0.9796,-0.9742,-0.8952,-0.8406,-0.8313,-0.8579,-0.8663,-0.8501,-0.9593,-0.9946,-0.9413,-1.0731,-1.0942,-0.9904,-0.92,-0.8282,-0.7143,-0.618,-0.5496,-0.5112,-0.5212,-0.5264,-0.5302,-0.5302,-0.5233,-0.5147,-0.5302,-0.5131,-0.4798,-0.4849,-0.4741,-0.4593,-0.4994,-0.5543,-0.6131,0.0,0.0,0.0,0.0,0.0,0.0,0.0,-0.7846,-0.8068,-0.8959,-0.8924,-0.8796,-0.8739,-0.9224,-0.9446,-0.9143,-0.9333,-0.9616,-0.9958,-1.0128,-1.0426,-1.0902,-1.1226,-1.1363,-1.1236,-1.1219,-1.107,-1.0798,-1.0798,-1.0798,-1.0798,-1.0798,-1.0875,-1.1049,-1.1086,-1.1126,-1.1199,-1.1268,-1.1164,-1.0933,-1.0969,-1.0782,-1.0419,-1.0272,-1.027,-1.0301,-1.0225,-1.0707,-1.1481,-1.2209,-1.2787,-1.3183,-1.2983,-1.2876,-1.2605,-1.1546,-1.1278,0.0,0.0,0.0,0.0,0.0,0.0,0.0,0.0,0.0,-1.1503,-1.0511,-1.0397,-1.0538,-1.0631,-1.0908,-1.121,-1.1531,-1.1865,-1.2079,-1.205,-1.2,-1.1907,-1.1643,-1.0969,-1.0542,-1.0542,-0.9921,-0.9456,-0.9311,-0.9585,-0.9678,-0.9432,-1.0714,-1.1082,-1.0186,-1.1582,-1.203,-1.1338,-1.0715,-1.0038,-0.9217,-0.7976,-0.704,-0.6386,-0.6042,-0.5928,-0.599,-0.599,-0.5821,-0.5578,-0.5839,-0.5716,-0.5391,-0.5656,-0.5222,-0.4584,-0.5599,-0.6168,-0.6522,0.0,0.0,0.0,0.0,0.0,0.0,0.0,0.0,-0.8413,-0.8936,-0.8941,-0.8607,-0.7834,-0.8346,-0.8955,-0.9485,-0.9452,-0.9857,-1.0875,-1.0526,-1.07,-1.1644,-1.1715,-1.1726,-1.1716,-1.1654,-1.1478,-1.1134,-1.1134,-1.1134,-1.1134,-1.1134,-1.1175,-1.12,-1.1366,-1.1358,-1.1215,-1.1573,-1.1622,-1.1454,-1.162,-1.1673,-1.1557,-1.1186,-1.0639,-1.0052,-1.0173,-1.0645,-1.1281,-1.1745,-1.2217,-1.2814,-1.3998,-1.3835,-1.3217,-1.3126,-1.2121,-1.1055,-1.1063,-1.1162,-1.1319,-1.1565,-1.1821,-1.1964,0.0,0.0,-1.1497,-1.1643,-1.142,-1.1332,-1.1815,-1.2082,-1.2318,-1.2588,-1.273,-1.2737,-1.2556,-1.2824,-1.2937,-1.2758,-1.234,-1.2059,-1.2059,-1.2538,-1.2838,-1.2815,-1.2885,-1.2947,-1.3092,-1.3131,-1.3073,-1.2968,-1.3144,-1.3235,-1.3193,-1.2131,-1.169,-1.1844,-0.9464,-0.8289,-0.8191,-0.7264,-0.6899,-0.7035,-0.7035,-0.6681,-0.6114,-0.6328,-0.6221,-0.5913,-0.5964,-0.56,-0.5185,-0.5969,-0.6491,-0.6855,0.0,0.0,0.0,0.0,0.0,0.0,0.0,0.0,-0.8173,-0.8958,-0.8765,-0.8464,-0.8201,-0.8473,-0.9036,-0.9991,-1.0013,-1.029,-1.1044,-1.1078,-1.1255,-1.1711,-1.1884,-1.1912,-1.1745,-1.1704,-1.149,-1.1074,-1.1074,-1.1021,-1.0915,-1.0915,-1.0997,-1.1199,-1.1301,-1.1415,-1.1553,-1.1741,-1.1762,-1.1667,-1.1774,-1.1646,-1.1439,-1.1252,-1.0743,-1.0166,-1.0578,-1.1007,0.0,-1.2341,-1.2986,-1.3609,-1.4663,-1.4442,-1.375,-1.3663,-1.2748,-1.1811,-1.2097,-1.19,-1.1746,-1.2401,-1.2599,-1.2541,-1.2068,-1.2241,-1.2364,-1.1835,-1.1929,-1.2133,-1.2196,-1.2802,-1.3261,0.0,-1.3715,-1.397,-1.3518,-1.3651,-1.3629,-1.3189,-1.2855,-1.2565,-1.232,-1.3131,-1.3422,-1.2799,-1.3727,-1.4049,-1.3442,-1.3872,-1.4083,-1.3937,-1.3987,-1.4191,-1.4544,-1.4063,-1.3581,-1.3051,-1.1274,-1.019,-0.9667,-0.8237,-0.7541,-0.7486,-0.7354,-0.7124,-0.6782,-0.6905,-0.6854,-0.669,-0.6742,-0.6591,-0.6319,-0.6062,-0.5989,-0.6049,0.0,0.0,0.0,0.0,0.0,0.0,0.0,0.0,0.0,0.0,-0.8539,-0.8354,-0.848,-0.847,-0.8876,-0.9943,-1.0004,-1.0189,-1.0718,-1.0923,-1.1195,-1.1489,-1.1702,-1.1769,-1.176,-1.1728,-1.1525,-1.1143,-1.12,-1.1187,-1.1055,-1.1139,-1.1333,-1.1603,-1.1512,-1.1635,-1.1923,-1.1833,-1.1806,-1.1802,-1.1749,-1.1541,-1.1248,-1.1049,-1.0732,-1.045,-1.0857,-1.0934,-1.1047,-1.216,-1.2549,-1.28,-1.4002,-1.3833,-1.3215,-1.3389,-1.2776,-1.2058,-1.2207,-1.2052,-1.2007,-1.2592,-1.2871,-1.28,-1.2165,-1.2674,-1.3078,-1.2323,-1.2794,-1.3273,-1.3094,-1.3752,-1.4252,-1.4092,-1.4577,-1.4804,-1.4307,-1.425,-1.3987,-1.3228,-1.2966,-1.2612,-1.2032,-1.3021,-1.3608,-1.3333,-1.4591,-1.5171,-1.4736,-1.514,-1.525,-1.4984,-1.4866,-1.4981,-1.5311,-1.5529,-1.5264,-1.4531,-1.3174,-1.2076,-1.1138,-0.9105,-0.8067,-0.7823,-0.7775,-0.762,-0.745,-0.7904,-0.8086,-0.8121,-0.8535,-0.8343,-0.7771,-0.7055,-0.6357,-0.5768,0.0,0.0,0.0,0.0,0.0,0.0,0.0,0.0,0.0,0.0,0.0,-0.8284,-0.8217,-0.7977,-0.8183,-0.9067,-0.9022,-0.9209,-0.9798,-0.9722,-1.0066,-1.0983,-1.1044,-1.131,-1.1892,-1.1816,-1.1697,-1.1484,-1.1745,-1.1892,-1.1976,-1.224,-1.2458,-1.2642,-1.2311,-1.2165,-1.2178,-1.1919,-1.1806,-1.179,-1.1581,-1.15,-1.1415,-1.0693,-1.0618,-1.0857,-1.0755,-1.008,-0.9439,-1.0501,-0.9927,-0.9148,-1.1409,-1.155,-1.1118,-1.2212,-1.196,-1.1141,-1.0314,-1.0781,-1.145,-1.1158,-1.175,-1.2324,-1.1887,-1.2578,-1.3372,-1.3585,-1.4322,-1.4933,-1.4922,-1.517,-1.5364,-1.543,-1.5138,-1.4828,-1.4623,-1.4519,-1.405,-1.2853,-1.2699,-1.2279,0.0,-1.2388,-1.3948,-1.5737,-1.6114,-1.6945,-1.8455,-1.7578,-1.6889,-1.6636,-1.5933,-1.5505,-1.5394,-1.6112,-1.6614,-1.6873,-1.5199,-1.3823,-1.2638,-0.9912,-0.8499,-0.8193,-0.8508,-0.8386,-0.8093,-0.9514,-1.0197,-1.0438,-1.1679,-1.1082,-0.9531,-0.9498,-0.8272,-0.6685,0.0,0.0,0.0,0.0,0.0,0.0,0.0,0.0,0.0,0.0,0.0,0.0,0.0,0.0,0.0,0.0,-0.8751,-0.9076,-0.9633,-0.9741,-1.0026,-1.0506,-1.0589,-1.0752,-1.1096,-1.1204,-1.1323,-1.1428,-1.1514,-1.1622,-1.175,-1.1835,-1.1935,-1.2095,-1.198,-1.1901,-1.187,-1.1758,-1.1611,-1.1382,-1.1082,-1.1381,-1.1836,-1.0796,-1.0743,-1.1193,0.0,-1.0298,-1.0003,-1.0909,-1.0755,-1.039,-1.1509,-1.1431,-1.0939,-1.0902,-1.1092,-1.1242,-1.0942,-1.1033,-1.1312,-1.1697,-1.2713,-1.3612,-1.3643,-1.5157,-1.6252,-1.5132,-1.5683,-1.6021,-1.4827,-1.4969,-1.5289,-1.5362,-1.5729,-1.5777,-1.5036,-1.5515,-1.5349,-1.369,-1.362,0.0,0.0,0.0,0.0,-1.4726,-1.6271,-1.7557,-1.851,-1.8816,-1.8483,-1.7405,-1.7458,-1.7203,-1.6532,-1.6955,-1.722,-1.7303,-1.564,-1.4015,-1.251,-1.1587,-1.1092,-1.0986,-1.1301,-1.1373,-1.1339,-1.1758,-1.2065,-1.2255,-1.2388,-1.2118,-1.1546,-1.061,-0.9571,-0.8394,0.0,0.0,0.0,0.0,0.0,0.0,0.0,0.0,0.0,0.0,0.0,0.0,0.0,0.0,0.0,0.0,0.0,-0.8673,-0.8981,-0.9343,-0.9691,-1.0004,-1.0269,-1.058,-1.0931,-1.0844,-1.0889,-1.1102,-1.0988,-1.105,-1.1287,-1.1465,-1.1684,-1.1908,-1.1893,-1.1795,-1.1651,-1.1474,-1.1192,-1.0903,-1.0768,-1.1076,-1.1477,-1.0721,-1.0713,0.0,-1.0587,-1.0314,-1.0234,-1.0751,-1.0689,-1.0471,-1.0912,-1.0877,-1.0596,-1.013,-1.0556,-1.1222,-1.1377,-1.1803,-1.2393,-1.3189,-1.4473,-1.5646,-1.6041,-1.7378,-1.8159,-1.6787,-1.6768,-1.6563,-1.5183,-1.4757,-1.4646,-1.4726,-1.5172,-1.5366,-1.4889,-1.5496,-1.5429,-1.397,-1.4375,-1.4995,0.0,0.0,0.0,-1.5389,-1.6904,-1.8266,-1.9261,-1.9623,-1.9455,-1.8699,-1.864,-1.8045,-1.6777,-1.7149,-1.7369,-1.734,-1.5772,-1.4352,-1.3155,-1.2641,-1.2227,-1.196,-1.2445,-1.2567,-1.2451,-1.3259,-1.3731,-1.3927,-1.4182,-1.406,-1.3567,-1.2222,-1.0844,-0.935,0.0,0.0,0.0,0.0,0.0,0.0,0.0,0.0,0.0,0.0,0.0,0.0,0.0,0.0,0.0,0.0,0.0,0.0,-0.7901,-0.8481,-0.9009,-0.9422,-0.9997,-1.0604,-1.1268,-1.0674,-1.0433,-1.0603,-1.0299,-1.0353,-1.0742,-1.1281,-1.1702,-1.2066,-1.2014,-1.1828,-1.1544,-1.1021,-1.0653,-1.0422,-1.066,-1.0655,-1.0477,-1.0474,-1.056,-1.0614,-1.0254,-1.013,-1.0145,-1.0132,-0.9775,-0.9376,-0.962,-0.9891,-1.0082,-0.9979,-1.047,-1.1135,-1.1577,-1.2895,-1.438,-1.5247,-1.675,-1.8151,-1.8814,-1.914,-1.9101,-1.8412,-1.7505,-1.661,0.0,0.0,-1.365,-1.3701,-1.374,-1.3908,-1.4323,-1.4658,-1.4548,0.0,0.0,0.0,0.0,0.0,0.0,-1.7775,0.0,-1.916,-2.0894,-2.0268,-2.001,-2.0357,-1.9452,-1.8069,-1.6188,-1.6777,-1.7092,-1.7058,-1.5722,-1.4942,-1.4647,-1.3222,-1.2141,-1.1378,-1.2236,-1.2215,-1.1737,-1.4115,-1.518,-1.5449,-1.692,-1.6756,-1.5545,-1.4262,-1.2148,-0.9717,0.0,0.0,0.0,0.0,0.0,0.0,0.0,0.0,0.0,0.0,0.0,0.0,0.0,0.0,0.0,0.0,0.0,0.0,-0.789,-0.7959,-0.8188,-0.8588,-0.8746,-0.9087,-0.9602,-0.978,-1.0111,-1.0598,-1.0758,-1.0993,-1.1296,-1.1578,-1.171,-1.1654,-1.178,-1.1623,-1.1226,-1.1079,-1.0848,-1.0525,-1.034,-1.0792,-1.1422,-1.0537,-1.0779,-1.1472,-1.0747,-1.0597,-1.0735,-1.0537,-1.0149,-0.9736,-0.9663,-0.9941,-1.0543,-1.1696,-1.1837,-1.1787,-1.2769,-1.3331,-1.3899,-1.4762,-1.6441,-1.8142,-1.9242,-2.0076,-2.0128,-1.8362,-1.7449,-1.6324,-1.4262,0.0,0.0,-1.406,-1.5027,0.0,-1.5513,-1.6228,0.0,-1.4803,0.0,-1.6364,-1.7845,-1.84,0.0,0.0,-2.067,-2.1763,-2.3243,-2.3409,-2.2411,-2.0104,-1.998,-1.8555,-1.562,-1.6398,-1.6765,-1.673,-1.6419,-1.6126,-1.5856,-1.5273,-1.4884,-1.4702,-1.5131,-1.519,-1.5076,-1.5932,-1.6392,-1.6662,-1.705,-1.7129,-1.6856,-1.5599,-1.3795,-1.1703,0.0,0.0,0.0,0.0,0.0,0.0,0.0,0.0,0.0,0.0,0.0,0.0,0.0,0.0,0.0,0.0,0.0,0.0,0.0,-0.7846,-0.8061,-0.8509,-0.8684,-0.9008,-0.9472,-0.9455,-0.9651,-1.0072,-0.9972,-1.0083,-1.0421,-1.0609,-1.0678,-1.0628,-1.0888,-1.0769,-1.0356,-1.0318,-1.0419,0.0,0.0,-1.0636,-1.1353,-1.0731,-1.0756,-1.1072,-1.072,-1.0948,-1.129,-1.0531,-1.0311,-1.0306,-1.0105,-1.0458,-1.111,-1.2085,-1.2197,-1.2198,-1.31,-1.4011,-1.4948,-1.5803,-1.7857,-1.9689,-1.9845,-2.0355,-2.0181,-1.8075,-1.6751,-1.5532,-1.4044,-1.3655,0.0,0.0,0.0,0.0,-1.5207,-1.6221,-1.6529,0.0,-1.6452,0.0,-1.9099,-1.9993,-2.1062,0.0,-2.1922,-2.1948,-2.2917,-2.3184,-2.2331,-2.0186,-2.0113,-1.8658,-1.5638,-1.6082,-1.6389,-1.6609,-1.6554,-1.644,-1.6247,-1.6006,-1.5699,-1.5363,0.0,-1.5919,-1.5584,-1.6267,-1.6676,-1.693,-1.6895,-1.7134,-1.7332,-1.5895,-1.4599,-1.3209,0.0,0.0,0.0,0.0,0.0,0.0,0.0,0.0,0.0,0.0,0.0,0.0,0.0,0.0,0.0,0.0,0.0,0.0,0.0,0.0,-0.8221,-0.8664,-0.9028,-0.9437,-0.9895,-0.937,-0.917,-0.9324,-0.8799,-0.8712,-0.9041,-0.9257,-0.9413,-0.9506,-0.9806,-0.9785,-0.9531,-0.9494,-0.9987,-1.0773,-1.0384,-1.0509,-1.0927,0.0,-1.0615,-1.0214,-1.0546,-1.1162,-1.1659,-1.0466,-1.0492,-1.0996,-1.0806,-1.1142,-1.1712,-1.2078,-1.2302,-1.2521,-1.3116,-1.4693,-1.6366,-1.7268,-1.956,-2.1338,-2.0337,-2.006,-1.946,-1.7536,-1.574,-1.4441,-1.4222,-1.3508,-1.2799,-1.2486,0.0,-1.4116,-1.4589,-1.56,-1.6102,-1.5623,-1.7608,-1.9146,-1.9516,-2.1276,-2.3067,-2.4692,-2.264,-2.1487,-2.1849,-2.1852,-2.1399,-2.0416,-1.9651,-1.8169,-1.591,-1.5842,-1.6027,-1.6499,-1.6325,-1.6184,-1.6085,-1.5931,-1.5437,-1.4767,-1.5571,-1.5458,-1.4859,-1.5835,-1.6365,-1.6586,-1.6554,-1.6871,-1.7167,-1.5795,-1.502,-1.4346,0.0,0.0,0.0,0.0,0.0,0.0,0.0,0.0,0.0,0.0,-0.7144,-0.7468,0.0,0.0,0.0,0.0,0.0,0.0,0.0,0.0,0.0,-0.8042,-0.8234,-0.8486,-0.8849,-0.8959,-0.8984,-0.8912,-0.9172,-0.9291,-0.9246,-0.9514,-0.9576,-0.9513,-0.9569,-0.9849,-1.0305,-1.0302,-1.0916,-1.1859,-1.1195,-1.1206,-1.1565,-1.0907,0.0,0.0,-1.0831,-1.1169,-1.1423,-1.103,-1.1256,-1.1685,-1.15,-1.1621,-1.2173,-1.3795,-1.3656,-1.3159,-1.4018,-1.4845,-1.5728,-1.6748,-1.8234,-1.9586,-2.0144,-1.909,-1.7683,-1.6543,-1.4794,-1.3286,-1.2714,-1.2553,-1.2766,-1.3565,-1.427,-1.5141,-1.6351,-1.6355,-1.6262,0.0,-1.7045,-1.8068,-1.9604,-2.0972,0.0,0.0,-2.4204,-2.4169,-2.4296,-2.4242,-2.3025,-2.04,-1.7397,-1.5851,-1.5827,-1.5866,-1.5912,-1.5954,-1.5971,-1.5826,-1.5546,-1.5557,-1.5482,-1.5374,-1.5737,0.0,-1.5678,-1.5886,-1.6012,-1.6034,-1.6204,-1.632,-1.6408,-1.631,-1.5717,-1.4871,0.0,0.0,0.0,0.0,0.0,0.0,0.0,-0.7182,-0.7282,-0.7409,-0.7631,-0.7695,-0.7514,-0.7784,-0.7997,0.0,0.0,0.0,0.0,0.0,0.0,-0.7894,-0.8166,-0.8392,-0.8599,-0.886,-0.8891,-0.8701,0.0,-0.8886,-0.8838,-0.8969,-0.8948,-0.883,-0.8963,-0.9136,-0.9315,-0.9529,-1.0304,-1.1358,-1.0734,-1.09,-1.1487,-1.0927,0.0,0.0,-1.0754,-1.0955,-1.1188,-1.1189,-1.169,-1.2179,-1.1778,-1.1955,-1.2597,-1.4058,-1.3834,-1.3387,-1.4795,-1.5401,-1.5851,-1.6769,-1.8203,-1.9041,-1.7783,-1.7061,-1.6163,-1.4384,-1.3287,-1.2531,-1.2217,-1.2459,0.0,-1.3153,-1.3649,-1.4427,-1.5761,-1.6042,0.0,-1.5935,-1.7577,-1.8872,0.0,-2.0421,-2.201,-2.4084,-2.388,-2.4003,-2.48,-2.3462,-2.1865,-2.011,-1.7194,-1.5735,-1.5839,-1.5867,-1.5812,-1.5584,-1.5672,-1.5516,-1.5192,-1.541,-1.5508,-1.5508,-1.5791,-1.6046,-1.6244,-1.599,-1.6044,-1.625,-1.6025,-1.6063,-1.6206,-1.6281,-1.6094,-1.5723,0.0,0.0,0.0,0.0,0.0,0.0,0.0,-0.7272,-0.751,-0.8065,-0.8196,-0.8083,-0.7683,-0.7883,-0.8157,0.0,0.0,0.0,0.0,0.0,0.0,0.0,0.0,0.0,-0.8445,0.0,0.0,-0.8451,-0.842,0.0,0.0,0.0,0.0,0.0,-0.8363,-0.8412,-0.8348,-0.8646,-0.9669,0.0,0.0,-1.085,-1.1855,0.0,0.0,0.0,0.0,-1.079,-1.1028,-1.1145,-1.1702,-1.2226,-1.1705,-1.2245,-1.3153,-1.3708,-1.3552,-1.3552,-1.5099,-1.5715,-1.61,-1.6941,-1.8423,-1.8887,-1.5874,-1.551,-1.5125,-1.2795,-1.2173,-1.2041,-1.2068,-1.2426,-1.2686,0.0,-1.2971,-1.3709,-1.4863,-1.56,-1.5865,0.0,-1.818,0.0,-1.9164,-2.053,0.0,-2.4133,-2.3535,-2.34,-2.4197,-2.1955,-2.0259,-1.9455,-1.7395,-1.6202,-1.5995,-1.5941,-1.5693,-1.5299,-1.5381,-1.5182,-1.485,-1.5171,-1.5315,-1.5321,-1.5657,-1.5974,-1.6271,-1.6064,-1.6059,-1.6148,-1.588,-1.5852,-1.593,-1.597,-1.6164,-1.6301,0.0,0.0,0.0,0.0,0.0,0.0,0.0,-0.7856,-0.8065,-0.8257,-0.8499,-0.8676,-0.8746,-0.9,-0.8924,0.0,0.0,0.0,0.0,0.0,0.0,0.0,0.0,0.0,0.0,0.0,0.0,-0.7964,-0.8259,0.0,0.0,0.0,0.0,0.0,0.0,-0.8256,-0.8751,-0.8725,0.0,0.0,0.0,0.0,0.0,0.0,0.0,0.0,0.0,-1.087,-1.0979,-1.0876,-1.1107,-1.1368,-1.1069,-1.2432,-1.3975,-1.3021,-1.312,-1.3711,-1.4433,-1.5255,-1.613,-1.7035,-1.8284,-1.8689,-1.6568,-1.5755,-1.4981,-1.3347,-1.2382,-1.1855,-1.2,-1.1912,-1.2051,-1.2747,-1.3469,-1.4189,-1.4972,-1.5721,-1.6077,-1.5789,0.0,0.0,-1.9734,-2.2247,-2.3967,-2.42,-2.4444,-2.3972,-2.2506,-2.1094,-1.971,-1.8312,-1.6977,-1.6299,-1.6256,-1.6015,-1.5606,-1.5043,-1.5053,-1.4757,-1.4277,-1.4568,-1.4686,-1.4697,-1.5221,-1.5367,0.0,-1.5918,-1.5615,-1.4875,-1.5733,-1.5635,-1.5057,-1.5488,-1.5839,-1.6111,0.0,0.0,0.0,0.0,0.0,0.0,-0.7277,-0.743,-0.7694,-0.8232,-0.8431,-0.8714,-0.921,-0.9394,-0.9351,-0.905,0.0,0.0,0.0,0.0,0.0,0.0,0.0,0.0,0.0,0.0,-0.8837,-0.88,-0.8578,0.0,0.0,0.0,0.0,0.0,0.0,-0.8336,-0.8875,-0.914,0.0,0.0,0.0,0.0,0.0,0.0,0.0,0.0,0.0,0.0,-1.0511,-1.0823,-1.1122,-1.1303,-1.103,-1.2199,-1.3581,-1.3228,-1.3072,-1.3498,-1.5751,-1.6223,-1.6367,-1.7605,-1.8228,-1.7955,-1.569,-1.4928,-1.4258,-1.2805,-1.2134,-1.1853,-1.2026,-1.1895,-1.1983,-1.2662,-1.2854,-1.3333,-1.4504,-1.4784,-1.5059,-1.5505,-1.7461,0.0,0.0,0.0,-2.2414,-2.3179,-2.3208,-2.2545,-2.112,-2.0738,-1.9849,-1.8319,-1.7141,-1.6459,-1.6311,-1.6202,-1.5752,-1.4987,-1.5162,-1.4891,-1.4196,-1.4636,-1.475,-1.4644,-1.5162,-1.5943,0.0,-1.613,-1.6042,-1.6256,-1.5957,-1.5468,-1.4968,-1.5424,-1.569,-1.5839,0.0,0.0,0.0,0.0,0.0,-0.6824,-0.7212,-0.7274,-0.7597,-0.8481,-0.8567,-0.8795,-0.9438,-0.9532,-0.9551,-0.9496,-0.9414,0.0,0.0,0.0,0.0,0.0,0.0,0.0,0.0,0.0,-0.9134,-0.9317,-0.895,-0.8908,0.0,0.0,-0.8701,-0.8758,0.0,0.0,0.0,0.0,0.0,0.0,0.0,0.0,0.0,0.0,0.0,0.0,0.0,0.0,0.0,0.0,0.0,-1.1136,-1.0945,-1.1583,-1.2464,-1.2708,-1.2959,-1.3726,-1.6265,-1.6787,-1.6866,-1.7896,-1.8014,-1.7257,-1.4942,-1.4224,-1.3696,-1.2414,-1.2042,-1.2011,-1.2212,-1.2042,-1.2047,-1.2558,-1.2455,-1.2769,-1.4027,-1.4266,-1.4649,0.0,0.0,-1.8507,0.0,-2.0694,-2.176,-2.2644,-2.2714,-2.2167,-2.0863,-2.0559,-1.9549,-1.7702,-1.7024,-1.6512,-1.6153,-1.6096,-1.57,-1.4987,-1.5104,-1.5044,-1.4826,-1.4773,-1.4881,-1.5116,-1.5129,-1.5776,0.0,-1.5938,-1.5987,-1.6509,-1.5929,-1.5411,-1.5058,-1.5453,-1.5601,-1.5626,0.0,0.0,0.0,0.0,0.0,0.0,-0.7594,-0.77,-0.8078,-0.9146,-0.906,-0.9038,-0.9454,-0.95,-0.95,-0.95,-0.95,0.0,0.0,0.0,0.0,0.0,0.0,0.0,0.0,0.0,-0.8974,-0.9103,-0.9295,-0.953,-0.9788,-0.9788,-0.9896,-1.0085,0.0,0.0,0.0,0.0,0.0,0.0,0.0,0.0,-1.2274,0.0,0.0,0.0,0.0,0.0,0.0,0.0,0.0,0.0,0.0,-1.0606,-1.0685,-1.0949,-1.2669,-1.4625,-1.5248,-1.6487,-1.7635,-1.7771,-1.7544,-1.6757,-1.4676,-1.3939,-1.3434,-1.2492,-1.2305,-1.2351,-1.256,-1.2328,-1.2184,-1.2461,-1.2543,-1.2851,-1.3608,-1.4502,0.0,0.0,0.0,-1.838,-1.9143,-2.1487,-2.2974,-2.3002,-2.3742,0.0,-2.2056,-2.0539,-1.8527,-1.5918,-1.6386,-1.64,-1.5803,-1.5611,-1.5348,-1.5014,-1.474,-1.5206,-1.6242,-1.4848,-1.4976,-1.6234,-1.5019,-1.4397,0.0,-1.5072,-1.5103,-1.4688,-1.5434,-1.5526,-1.5314,-1.5512,-1.5601,-1.5601,0.0,0.0,0.0,0.0,0.0,0.0,0.0,-0.7294,-0.7547,-0.8253,-0.847,-0.8726,-0.9175,-0.9343,-0.9418,-0.9372,-0.9446,0.0,0.0,0.0,0.0,0.0,0.0,0.0,0.0,-0.934,-0.9598,-0.9649,-0.9615,-0.9574,-0.953,-1.0083,-1.0303,-1.0256,-1.0665,-1.1152,0.0,0.0,0.0,0.0,0.0,-1.312,-1.2772,0.0,0.0,0.0,0.0,0.0,0.0,0.0,0.0,0.0,0.0,0.0,0.0,-1.0698,-1.1576,-1.2793,-1.4046,-1.467,-1.518,-1.5843,-1.5696,-1.5087,-1.3984,-1.35,-1.31,-1.2445,-1.2305,-1.2321,-1.2382,-1.2228,-1.2205,-1.2523,-1.2589,-1.2857,0.0,0.0,0.0,-1.5563,-1.7291,-1.8467,0.0,0.0,-2.0088,-2.1141,-2.1198,-2.109,-2.0863,-2.0274,-1.9035,-1.7033,-1.657,-1.6172,-1.5803,-1.5781,-1.5517,-1.4987,-1.4919,-1.5277,-1.5994,-1.4908,-1.5,-1.5974,-1.4937,-1.5014,-1.58,-1.5278,-1.5523,-1.6167,-1.5601,-1.5319,-1.5257,-1.5512,-1.5641,-1.5697,0.0,0.0,0.0,0.0,0.0,0.0,0.0,-0.7269,-0.7555,-0.7992,-0.8231,-0.8533,-0.8982,-0.9166,-0.9237,-0.9195,-0.9264,0.0,0.0,0.0,0.0,0.0,0.0,0.0,-0.9317,-0.9651,-0.9905,-1.0051,-0.9922,-0.9786,-0.9672,-1.0096,-1.0405,-1.0614,-1.0994,-1.1593,0.0,0.0,0.0,0.0,-1.2672,-1.2499,-1.2443,0.0,0.0,0.0,0.0,0.0,0.0,0.0,0.0,0.0,0.0,0.0,0.0,0.0,-1.1018,-1.1707,-1.3072,-1.3913,-1.4478,-1.4818,-1.4594,-1.4166,-1.3565,-1.3164,-1.2829,-1.2476,-1.2351,-1.2348,-1.2476,-1.2256,-1.2207,-1.2687,-1.2565,-1.2741,0.0,0.0,0.0,-1.5214,0.0,0.0,0.0,-1.7816,-1.8455,-1.9325,-1.9415,-1.9515,-1.9615,-1.9078,-1.825,-1.7045,-1.6482,-1.6073,-1.5805,-1.5756,-1.5546,-1.5151,-1.4947,-1.5313,-1.6154,-1.5054,-1.5145,-1.6133,-1.5027,-1.5014,0.0,-1.495,-1.5328,-1.6284,-1.5419,-1.5223,-1.5418,-1.5539,-1.5622,-1.5679,0.0,0.0,0.0,0.0,0.0,0.0,0.0,-0.7544,-0.794,-0.8223,-0.8289,-0.8446,-0.8824,-0.8967,-0.9028,-0.9045,0.0,0.0,0.0,0.0,0.0,0.0,0.0,0.0,-0.969,-0.9719,-0.9899,-1.0268,-1.0135,-1.006,-1.0037,-0.9921,-1.0297,-1.1114,-1.1166,-1.1604,-1.2337,0.0,0.0,0.0,-1.1915,-1.1745,0.0,0.0,0.0,0.0,0.0,0.0,0.0,0.0,0.0,0.0,0.0,0.0,0.0,0.0,0.0,0.0,0.0,-1.3826,-1.4966,-1.436,-1.4022,-1.3739,-1.331,-1.29,0.0,-1.256,-1.2421,-1.2397,-1.2727,-1.2343,-1.2191,-1.286,-1.2421,0.0,0.0,-1.3663,0.0,0.0,-1.6157,0.0,-1.5541,-1.6951,-1.7825,-1.7597,-1.834,-1.87,-1.846,-1.728,-1.6532,-1.6272,-1.6186,-1.6008,-1.5777,-1.5604,-1.5482,-1.5405,-1.4874,-1.5366,-1.6645,-1.5259,-1.5393,0.0,-1.5206,-1.4592,-1.4541,-1.4293,-1.4652,-1.5303,-1.501,-1.5208,-1.5696,-1.5633,-1.5575,-1.5609,0.0,0.0,0.0,0.0,0.0,0.0,0.0,0.0,0.0,0.0,-0.8105,-0.838,-0.8578,-0.8972,-0.9307,0.0,0.0,0.0,0.0,0.0,0.0,0.0,0.0,0.0,-0.969,-0.985,-0.9953,-0.9997,-0.9851,-0.9695,-0.9494,-1.0122,-1.0697,-1.1198,-1.171,-1.2134,-1.2385,-1.1486,0.0,0.0,-1.0804,-1.0624,0.0,0.0,0.0,0.0,-1.1725,-1.1679,0.0,0.0,0.0,0.0,0.0,0.0,0.0,0.0,-1.0949,-1.1161,-1.1416,0.0,-1.2296,-1.2393,-1.2352,-1.2357,0.0,-1.257,-1.2492,-1.2132,-1.2186,-1.2395,-1.2672,-1.22,-1.1946,-1.2454,0.0,0.0,-1.1926,0.0,0.0,-1.4172,-1.553,-1.6039,-1.4995,-1.5808,-1.639,-1.6336,-1.7317,-1.7902,-1.7882,-1.73,-1.698,-1.6959,-1.6069,-1.5553,-1.5492,-1.5691,-1.5705,-1.5456,-1.5097,-1.5538,-1.667,-1.5458,-1.5565,-1.6617,-1.5211,-1.4795,-1.5053,-1.4445,-1.4737,-1.5485,-1.5054,-1.5201,-1.5609,-1.561,-1.5487,-1.5474,0.0,0.0,0.0,0.0,0.0,0.0,0.0,0.0,0.0,0.0,0.0,0.0,0.0,0.0,0.0,0.0,0.0,0.0,0.0,0.0,0.0,0.0,0.0,-0.9113,-0.9472,-0.9754,-0.988,-0.9813,-0.964,-0.9466,-0.9306,-0.9626,-1.0035,-1.0537,-1.1077,-1.1455,-1.1607,-1.064,-1.0603,-1.1171,-1.0328,0.0,0.0,0.0,0.0,0.0,-1.222,-1.1888,0.0,-1.0538,-1.0443,-1.0566,0.0,0.0,0.0,0.0,-1.1012,-1.1122,-1.1294,-1.1435,-1.1642,-1.2174,-1.211,-1.2027,-1.2547,-1.2544,-1.2256,-1.1665,-1.1937,-1.2328,-1.2405,-1.2221,-1.2256,0.0,-1.2127,0.0,0.0,0.0,0.0,-1.4242,-1.4941,-1.5243,0.0,-1.5388,-1.5657,-1.5491,-1.6045,-1.6427,-1.6468,-1.6259,-1.6097,-1.6016,-1.5648,-1.5489,-1.5632,-1.5822,-1.5838,-1.5685,-1.5367,-1.547,-1.5912,-1.5705,-1.5865,-1.6311,-1.5645,-1.5443,-1.5467,-1.4712,-1.4755,-1.5246,-1.5011,-1.5127,-1.5475,-1.558,-1.554,-1.5584,0.0,0.0,0.0,0.0,0.0,0.0,0.0,0.0,0.0,0.0,0.0,0.0,0.0,0.0,0.0,0.0,0.0,0.0,0.0,0.0,0.0,0.0,-0.9013,-0.8996,-0.9198,-0.9525,-0.9691,-0.9696,-0.9443,-0.9304,-0.929,-0.8926,-0.9083,-0.9668,-1.0033,-1.0333,-1.051,-0.9959,-1.0084,-1.0602,-1.0126,0.0,0.0,0.0,0.0,0.0,0.0,0.0,0.0,-1.0566,-1.0488,-1.0469,-1.0509,0.0,0.0,0.0,0.0,0.0,-1.1513,-1.1769,-1.2066,-1.266,-1.2459,-1.2292,-1.2917,-1.2717,-1.2178,-1.1345,-1.1781,-1.2289,-1.2171,-1.2319,0.0,0.0,0.0,0.0,-1.2982,-1.3432,-1.3908,-1.452,-1.4636,0.0,-1.5015,-1.5355,-1.5449,-1.5169,-1.5143,-1.5143,-1.5143,-1.5095,-1.4982,-1.4794,-1.5261,-1.5641,-1.5908,-1.5899,-1.5899,-1.5908,-1.5702,-1.5488,-1.5277,-1.6015,-1.6227,-1.6019,0.0,0.0,-1.567,-1.4899,-1.4708,-1.4888,-1.486,-1.5016,-1.5307,-1.5602,-1.5713,-1.5776,0.0,0.0,0.0,0.0,0.0,0.0,0.0,0.0,0.0,0.0,0.0,0.0,0.0,0.0,0.0,0.0,0.0,0.0,0.0,0.0,0.0,-0.9198,-0.9013,-0.8996,-0.9198,-0.9215,-0.9372,-0.9696,-0.9155,-0.9024,-0.929,-0.8786,-0.8865,-0.9461,-0.9681,-0.9815,-0.9812,-0.9226,-0.9353,-0.9926,-0.9668,0.0,0.0,0.0,0.0,0.0,0.0,0.0,0.0,-1.0411,-0.9985,-0.9806,-1.0086,0.0,0.0,0.0,0.0,0.0,-1.1513,-1.2034,-1.2467,-1.2404,-1.2539,-1.271,-1.282,-1.3138,-1.3037,-1.1778,-1.2027,-1.2458,-1.2362,-1.2247,-1.2337,0.0,0.0,-1.2055,0.0,0.0,-1.4453,-1.406,0.0,-1.5913,-1.4857,-1.5397,-1.5811,-1.5758,-1.5758,-1.5758,-1.5758,-1.5556,-1.5503,-1.5699,-1.5583,-1.5627,-1.5898,-1.591,-1.591,-1.5892,-1.6101,-1.6272,-1.6432,-1.6579,-1.6625,-1.6544,0.0,-1.5782,-1.5415,-1.4838,-1.4718,-1.4872,-1.4645,-1.4837,-1.529,-1.5882,-1.5914,-1.5823,0.0,0.0,0.0,0.0,0.0,0.0,0.0,0.0,0.0,0.0,0.0,0.0,0.0,0.0,0.0,0.0,0.0,0.0,0.0,0.0,-0.9258,-0.9052,-0.8809,-0.8722,-0.8821,-0.9008,-0.9147,-0.9205,-0.8939,-0.8974,-0.9306,-0.9237,-0.935,-0.9619,-0.9788,-1.0065,-1.0361,-0.9639,-0.9824,-1.0555,0.0,0.0,0.0,0.0,0.0,0.0,0.0,0.0,0.0,0.0,-1.0044,-1.0024,-1.0241,0.0,0.0,0.0,0.0,0.0,-1.1607,-1.2144,-1.2653,-1.2937,-1.3042,-1.3162,-1.3537,-1.3517,-1.3073,-1.1801,-1.1935,-1.2163,-1.1809,0.0,-1.2133,-1.2743,0.0,-1.323,-1.3141,-1.377,-1.4326,0.0,0.0,-1.552,-1.5359,-1.568,-1.5891,-1.5891,-1.5891,-1.5831,-1.5686,-1.5713,-1.5645,-1.5469,-1.5496,-1.5573,-1.5684,-1.5535,-1.5535,-1.57,-1.5951,-1.5905,-1.5589,-1.6361,-1.6684,-1.6677,0.0,-1.6211,-1.6311,-1.5437,-1.4948,-1.4762,-1.4922,-1.5027,-1.5177,-1.592,-1.6386,-1.6735,0.0,0.0,0.0,0.0,0.0,0.0,0.0,0.0,0.0,0.0,0.0,0.0,0.0,0.0,0.0,0.0,0.0,0.0,0.0,-0.9484,-0.9188,-0.8825,-0.8608,-0.8501,-0.8501,-0.8799,-0.892,-0.8851,-0.8818,-0.8942,-0.9242,-0.9568,-0.9734,-0.9734,-0.9894,-1.0238,-1.0674,-1.0015,-1.0222,-1.0942,0.0,0.0,0.0,0.0,0.0,0.0,0.0,0.0,0.0,0.0,0.0,0.0,0.0,0.0,0.0,-1.1122,-1.1179,-1.1139,-1.1663,-1.2188,-1.274,-1.3334,-1.3488,-1.3667,-1.4371,-1.4088,-1.3346,-1.2192,-1.2188,-1.2203,0.0,-1.1763,0.0,-1.284,-1.3783,-1.4261,-1.373,-1.4007,-1.4475,-1.5091,-1.5057,-1.5211,-1.5835,-1.5838,-1.5817,-1.5817,-1.5757,-1.5655,-1.5497,-1.5696,-1.5655,-1.5301,-1.5555,-1.57,-1.5701,-1.5542,-1.554,-1.5701,-1.5872,-1.5758,-1.5409,-1.633,-1.6827,-1.6889,-1.6477,-1.6493,-1.674,-1.5793,-1.5114,-1.4726,-1.5006,-1.5165,-1.5281,-1.5888,-1.679,-1.7704,0.0,0.0,0.0,0.0,0.0,0.0,0.0,0.0,0.0,0.0,0.0,0.0,0.0,0.0,0.0,0.0,0.0,0.0,0.0,-0.9029,-0.8819,-0.8533,-0.8506,-0.8501,-0.8501,-0.8533,-0.869,-0.8985,-0.8861,-0.8877,-0.9033,-0.9364,-0.9518,-0.954,-0.9728,-0.9836,-0.9868,-0.9626,-0.9748,-1.0095,-1.0031,0.0,0.0,0.0,0.0,0.0,0.0,0.0,0.0,0.0,0.0,0.0,0.0,0.0,-1.02,-1.1047,-1.107,-1.0961,-1.1627,-1.2192,-1.268,-1.3045,-1.3592,-1.4245,-1.5051,-1.4999,-1.4508,-1.3558,-1.3286,-1.3035,0.0,-1.2499,-1.2721,-1.3041,-1.356,-1.4056,-1.4375,0.0,-1.5529,-1.5379,-1.5793,-1.6034,-1.5907,-1.5657,-1.5535,-1.5535,-1.5299,-1.5258,-1.5494,-1.5525,-1.5626,-1.5829,-1.6091,-1.6252,-1.6245,-1.6456,-1.6474,-1.6233,-1.6194,-1.6686,-1.764,-1.7189,-1.7175,-1.7503,-1.6663,-1.6049,-1.56,-1.5205,-1.5058,-1.4998,-1.4497,-1.4908,-1.5834,-1.5814,-1.6903,-1.8299,0.0,0.0,0.0,0.0,0.0,0.0,0.0,0.0,0.0,0.0,0.0,0.0,0.0,0.0,0.0,0.0,0.0,0.0,0.0,-0.9114,-0.8909,-0.8522,-0.8657,-0.8749,-0.8749,-0.8701,-0.8689,-0.8684,-0.8845,-0.9017,-0.9193,-0.961,-0.9817,-0.9833,-1.0142,-1.0228,-1.0117,-1.0158,-1.0253,-1.0371,-1.0371,-1.0466,0.0,0.0,0.0,0.0,0.0,0.0,0.0,0.0,-1.0136,-0.9992,-1.0379,-1.027,-1.0142,-1.0888,-1.0876,-1.0792,-1.1571,-1.2346,-1.307,-1.3749,-1.4267,-1.4848,-1.5764,-1.5261,-1.4565,-1.4517,-1.3621,-1.2528,0.0,0.0,-1.2978,-1.3087,-1.3906,-1.4559,-1.4741,-1.5122,-1.5436,-1.5563,-1.5767,-1.5883,-1.5847,-1.5637,-1.5401,-1.5208,-1.511,-1.5108,-1.5235,-1.5399,-1.5564,-1.565,-1.5597,-1.5793,-1.6291,-1.589,-1.6057,-1.6747,-1.6921,-1.6797,-1.642,-1.6702,-1.682,-1.6743,-1.609,-1.5976,-1.6195,-1.5568,-1.5198,-1.501,-1.4599,-1.4942,-1.5673,-1.5805,-1.6486,-1.7342,0.0,0.0,0.0,0.0,0.0,0.0,0.0,0.0,0.0,0.0,0.0,0.0,0.0,0.0,0.0,0.0,0.0,0.0,-0.9136,-0.9243,-0.9092,-0.8609,-0.8858,-0.8921,-0.877,-0.8843,-0.8832,-0.869,-0.8895,-0.9161,-0.9472,-0.9792,-0.9989,-1.011,-1.045,-1.0514,-1.0403,-1.0545,-1.0609,-1.0609,-1.0609,-1.0609,0.0,0.0,0.0,0.0,0.0,0.0,0.0,0.0,-1.0547,-1.0555,-1.059,-1.042,-1.0332,-1.0874,-1.0847,-1.0834,-1.1667,-1.2442,-1.3125,-1.3671,-1.4053,-1.4604,-1.5774,-1.5305,-1.4642,-1.4718,-1.366,-1.2435,-1.1359,0.0,0.0,0.0,-1.3857,-1.4519,-1.474,-1.5018,-1.5279,-1.5465,-1.5541,-1.5564,-1.5561,-1.535,-1.5282,-1.5405,-1.4988,-1.4947,-1.5447,-1.5334,-1.5284,-1.5378,-1.5271,-1.5494,-1.603,-1.5674,-1.5875,-1.6666,-1.708,-1.6871,-1.6142,-1.6607,-1.6691,-1.6397,-1.577,-1.5823,-1.6264,-1.5523,-1.502,-1.4751,-1.4633,-1.4848,-1.5231,-1.5425,-1.5887,-1.6482,0.0,0.0,0.0,0.0,0.0,0.0,0.0,0.0,0.0,0.0,0.0,0.0,0.0,0.0,0.0,0.0,0.0,0.0,-0.9018,-0.931,-0.9286,-0.8825,-0.906,-0.899,-0.8511,-0.8904,-0.9103,-0.9103,-0.9039,-0.928,-0.9804,-0.9804,-0.9974,-1.0308,-1.0504,-1.06,-1.0593,-1.0593,-1.0593,-1.0593,-1.0602,-1.0602,-1.0609,0.0,0.0,0.0,0.0,0.0,0.0,0.0,-1.1107,-1.106,-1.086,-1.0752,-1.0759,-1.1021,-1.1057,-1.1166,-1.1905,-1.2441,-1.2735,-1.255,-1.2763,-1.3408,-1.4921,-1.5176,-1.4866,-1.4061,-1.3483,-1.2964,-1.2482,-1.2402,0.0,-1.3034,-1.3324,-1.3733,-1.4411,-1.4888,-1.516,-1.5022,-1.5171,-1.5227,-1.5006,-1.4767,-1.5083,-1.6193,-1.5007,-1.4815,-1.6213,-1.5297,-1.4853,-1.5107,-1.537,-1.5496,-1.5496,-1.6029,-1.6175,-1.59,-1.6525,-1.7032,-1.7488,-1.7218,-1.6938,-1.665,-1.585,-1.5508,-1.5455,-1.4848,-1.445,-1.4223,-1.4498,-1.4606,-1.4606,-1.4606,-1.5137,-1.5901,0.0,0.0,0.0,0.0,0.0,0.0,0.0,0.0,0.0,0.0,0.0,0.0,0.0,0.0,0.0,0.0,0.0,0.0,-0.9022,-0.9275,-0.9276,-0.8953,-0.9236,-0.9261,-0.8925,-0.9187,-0.9219,-0.9033,-0.9148,-0.9408,-0.9804,-0.9804,-0.9974,-1.0305,-1.0659,-1.0757,-1.0683,-1.0813,-1.0878,-1.0845,-1.0414,-1.039,-1.0609,0.0,0.0,0.0,0.0,0.0,0.0,0.0,0.0,0.0,-1.0757,-1.0806,-1.0963,-1.128,-1.136,-1.1517,-1.224,-1.2211,-1.2133,-1.2877,-1.3037,-1.3087,-1.339,-1.3596,-1.3733,-1.3859,-1.3769,-1.3448,-1.2797,-1.3211,0.0,-1.34,-1.3846,-1.4352,-1.4729,-1.4902,-1.4968,-1.494,-1.501,-1.4977,-1.4691,-1.4624,-1.4659,-1.4799,-1.5169,-1.5615,-1.6129,-1.5951,-1.5928,-1.6155,-1.5363,-1.5128,-1.5496,-1.5465,-1.5606,-1.5893,-1.6322,-1.6464,-1.6361,-1.6291,-1.6105,-1.5823,-1.5336,-1.5288,-1.5482,-1.5041,-1.4713,-1.4477,-1.4347,-1.4557,-1.4874,-1.4874,-1.5303,-1.593,0.0,0.0,0.0,0.0,0.0,0.0,0.0,0.0,0.0,0.0,-0.7614,-0.7865,0.0,0.0,0.0,0.0,0.0,0.0,0.0,-0.9273,-0.9329,-0.9012,-0.9327,-0.9403,-0.9226,-0.9241,-0.9269,-0.9312,-0.9354,-0.945,-0.9606,-0.9798,-0.9989,-1.0209,-1.06,-1.066,-1.0466,-1.0593,-1.0648,-1.0615,-1.0245,-1.0294,-1.0609,0.0,0.0,0.0,0.0,0.0,0.0,0.0,0.0,0.0,-1.0828,-1.1062,-1.1413,-1.1257,-1.1491,-1.1928,-1.2609,-1.2446,-1.2299,-1.3218,-1.32,-1.2914,-1.2766,-1.2848,-1.3202,0.0,-1.4,-1.3789,-1.3511,-1.3712,0.0,-1.3776,-1.4147,-1.4478,-1.4606,-1.4803,-1.4853,-1.4649,-1.4734,-1.4696,-1.4406,-1.4429,-1.474,-1.5479,-1.5761,-1.6327,-1.7321,-1.6893,-1.672,-1.6947,-1.5678,-1.5173,-1.5603,-1.5069,-1.4948,-1.5263,-1.5351,-1.54,-1.5433,-1.5742,-1.569,-1.5329,-1.4995,-1.5014,-1.5261,-1.4859,-1.4638,-1.4579,-1.4423,-1.4557,-1.4848,-1.4955,-1.5223,-1.5571,0.0,0.0,0.0,0.0,0.0,0.0,0.0,0.0,0.0,0.0,-0.7365,-0.7679,0.0,0.0,0.0,0.0,0.0,0.0,0.0,-0.9335,-0.9463,-0.9044,-0.9316,-0.9468,-0.9443,-0.9163,-0.928,-0.982,-0.9642,-0.9492,-0.9402,-0.9792,-0.9999,-1.0031,-1.0439,-1.0443,-1.017,-1.0163,-1.0179,-1.0179,-1.0125,-1.0309,-1.0624,-1.0624,0.0,0.0,0.0,0.0,0.0,0.0,0.0,0.0,-1.1048,-1.1472,-1.1966,-1.1193,-1.1553,-1.2322,-1.291,-1.2787,-1.2641,-1.3335,-1.3182,-1.2829,-1.2909,-1.2886,-1.3172,-1.4245,0.0,-1.3992,-1.4422,-1.4008,-1.3738,-1.418,-1.4301,-1.4314,-1.4266,-1.4658,-1.4784,-1.4293,-1.4353,-1.4369,-1.4207,-1.4169,-1.5064,-1.7285,-1.6547,-1.6971,-1.9114,-1.7996,-1.7355,-1.7563,-1.6239,-1.5639,-1.5893,-1.498,-1.4508,-1.4442,-1.4197,-1.4272,-1.469,-1.5394,-1.5457,-1.5001,-1.4731,-1.4738,-1.4927,-1.4455,-1.4379,-1.4606,-1.4579,-1.4579,-1.4659,-1.4901,-1.5035,-1.5089,0.0,0.0,0.0,0.0,0.0,0.0,0.0,0.0,0.0,0.0,0.0,0.0,0.0,0.0,0.0,0.0,0.0,0.0,0.0,-0.9613,-0.9767,-0.9265,-0.9298,-0.9453,-0.9707,-0.94,-0.9472,-0.9958,-0.9919,-0.9967,-1.0079,-0.9926,-0.9989,-1.0248,-1.0544,-1.0633,-1.0575,-1.0737,-1.0802,-1.0762,-1.0285,-1.0356,-1.076,-1.076,-1.087,0.0,0.0,0.0,0.0,0.0,0.0,0.0,-1.1637,-1.1982,-1.2251,-1.2225,-1.2174,-1.2228,-1.2721,-1.1536,-1.0438,-1.1722,-1.2168,-1.2564,-1.3645,-1.3619,-1.3528,-1.4137,-1.4337,-1.4428,-1.4482,-1.4384,-1.4331,-1.4488,-1.4534,-1.4598,-1.4794,-1.4761,-1.4628,-1.4519,-1.4232,-1.4074,-1.418,-1.3869,-1.4372,-1.6117,-1.6658,-1.7464,-1.8699,-1.8716,-1.8458,-1.7998,-1.7066,-1.6608,-1.6648,-1.6459,-1.6058,-1.5466,-1.5413,-1.5044,-1.4382,-1.4364,-1.4341,-1.4407,-1.4599,-1.4691,-1.4671,-1.4566,-1.4546,-1.4579,-1.4374,-1.4536,-1.4928,-1.4987,-1.5303,-1.5705,0.0,0.0,0.0,0.0,0.0,0.0,0.0,0.0,0.0,0.0,0.0,0.0,0.0,0.0,0.0,0.0,0.0,0.0,0.0,0.0,-0.9789,-0.9496,-0.9484,-0.9506,-0.9558,-0.9679,-0.9825,-0.9999,-1.0196,-1.0158,-0.9929,-1.0095,-1.0165,-1.0177,-1.0408,-1.0474,-1.0416,-1.0464,-1.0511,-1.0548,-1.0225,-1.034,-1.0697,-1.0697,-1.0671,-1.0631,-1.0681,0.0,0.0,0.0,0.0,0.0,0.0,0.0,-1.2265,-1.2038,-1.1911,-1.1867,-1.2155,-1.1224,-1.0483,-1.1848,-1.2554,-1.3118,-1.3841,-1.4011,-1.4095,-1.4347,-1.4401,-1.4472,-1.4691,-1.4636,-1.4565,-1.4595,-1.4853,-1.4987,-1.4821,-1.4927,-1.4959,-1.482,-1.4395,-1.4138,-1.4234,-1.3796,-1.4262,-1.613,-1.6707,-1.762,-1.9152,-1.9242,-1.9145,-1.8871,-1.7844,-1.7171,-1.6913,-1.6913,-1.6294,-1.5099,-1.5436,-1.5015,-1.3931,-1.4038,-1.4217,-1.4437,-1.4459,-1.4604,-1.4821,-1.4533,-1.449,-1.4616,-1.4872,-1.5314,-1.5802,-1.5793,-1.6173,-1.663,0.0,0.0,0.0,0.0,0.0,0.0,0.0,0.0,0.0,0.0,0.0,0.0,0.0,0.0,0.0,0.0,0.0,0.0,0.0,0.0,0.0,-0.9729,-0.9688,-0.9574,-0.9392,-0.9819,-1.0054,-1.0047,-1.0339,-1.0235,-0.9835,-1.0428,-1.0515,-1.0161,-1.037,-1.0316,-1.0087,-1.0047,-1.0078,-1.0179,-1.0148,-1.0314,-1.0566,-1.0503,-1.0316,-1.0104,-1.0352,-1.0303,-1.0145,-1.0508,0.0,0.0,0.0,0.0,-1.2151,-1.1611,-1.1456,-1.1479,-1.1443,-1.1181,-1.1153,-1.2271,-1.3,0.0,-1.3818,-1.417,-1.445,-1.4632,-1.4477,-1.4467,-1.4916,-1.4831,-1.4659,-1.4659,-1.5154,-1.5303,-1.4764,-1.5131,-1.5302,-1.4985,-1.4526,-1.4234,-1.4227,-1.3748,-1.4336,-1.6542,-1.6652,-1.7566,-1.97,-1.959,-1.9478,-1.9539,-1.852,-1.7661,-1.703,-1.7077,-1.6301,-1.4741,-1.5246,-1.48,-1.3593,-1.4216,-1.4489,-1.4488,-1.4306,-1.4458,-1.4862,-1.438,-1.4336,-1.4605,-1.5447,-1.6149,-1.6693,-1.6613,-1.7016,-1.7397,0.0,0.0,0.0,0.0,0.0,0.0,0.0,0.0,0.0,0.0,-0.741,-0.7596,0.0,0.0,0.0,0.0,0.0,0.0,0.0,0.0,0.0,-0.9845,-0.9658,-0.96,-0.9724,-0.9524,-0.9695,-1.0253,-1.0021,-1.0334,-1.1157,-1.1129,-1.0993,-1.0789,-1.0993,-1.0678,-1.0043,-1.0375,-1.0517,-1.0517,-1.0344,-1.0336,-1.0394,-1.0104,-0.997,-0.9914,-0.9845,-0.994,-1.0176,-1.0626,-1.0917,0.0,0.0,0.0,-1.2103,-1.202,-1.1718,-1.1333,-1.0923,-1.0655,-1.0657,-1.1406,-1.1784,-1.2377,0.0,0.0,-1.3886,0.0,-1.4934,-1.4918,-1.4979,-1.4978,-1.4955,-1.4955,-1.5261,-1.5399,-1.508,-1.5096,-1.5055,-1.4776,-1.4267,-1.3951,-1.394,-1.3465,-1.4146,-1.6509,-1.6489,-1.7248,-1.9368,-1.9597,-1.942,-1.893,-1.8959,-1.8558,-1.7598,-1.7816,-1.7474,-1.6549,-1.5998,-1.5069,-1.3883,-1.4815,-1.4665,-1.3681,-1.41,-1.4211,-1.4059,-1.4156,-1.4209,-1.4353,-1.5342,-1.6117,-1.6693,-1.6626,-1.7029,-1.7424,0.0,0.0,0.0,0.0,0.0,0.0,0.0,0.0,0.0,0.0,0.0,-0.7471,0.0,0.0,0.0,0.0,0.0,0.0,0.0,0.0,0.0,-0.9878,-0.9793,-0.966,-0.9526,-0.9713,-0.9882,-1.0021,-1.0053,-1.0792,-1.2183,-1.2116,-1.1732,-1.1082,-1.1325,-1.089,-1.0028,-1.0477,-1.0499,-1.0269,-1.0285,-1.0324,-1.0316,-1.0004,-0.9851,-0.9781,-0.973,-0.9659,-0.9652,-1.0056,-1.0417,-1.0797,-1.1241,0.0,0.0,0.0,-1.1384,-1.0905,-1.0656,-1.0507,-1.0698,-1.1896,-1.2052,-1.2292,-1.3754,-1.3895,-1.3891,-1.449,-1.4613,-1.4751,-1.5209,-1.5161,-1.5062,-1.5062,-1.5187,-1.5182,-1.4902,-1.5001,-1.5065,-1.495,-1.4449,-1.4067,-1.3899,-1.3413,-1.3953,-1.6038,-1.609,-1.6906,-1.8949,-1.9151,-1.9079,-1.8812,-1.892,-1.838,-1.7091,-1.8164,-1.8388,-1.7731,-1.6985,-1.6264,-1.5609,-1.6042,-1.5575,-1.4454,-1.5447,-1.5432,-1.4757,-1.5042,-1.4781,-1.4288,-1.5187,-1.5919,-1.6463,-1.6388,-1.6805,-1.7218,0.0,0.0,0.0,0.0,0.0,0.0,0.0,0.0,0.0,0.0,0.0,0.0,0.0,0.0,0.0,0.0,0.0,0.0,0.0,0.0,0.0,-0.9625,-0.9719,-0.9627,-0.936,-0.9713,-0.9888,-0.9846,-1.0069,-1.1,-1.2563,-1.2636,-1.2272,-1.1551,-1.176,-1.1294,-1.042,-1.0567,-1.0477,-1.0267,-1.0316,-1.025,-1.0135,-0.9967,-0.9821,-0.9701,-0.9701,0.0,0.0,0.0,0.0,-1.0535,-1.0761,-1.101,0.0,0.0,0.0,-1.0453,-1.0366,-1.0194,-1.0377,-1.1696,-1.1803,-1.1894,0.0,0.0,-1.3612,0.0,-1.4315,-1.4557,-1.5279,-1.517,-1.4977,-1.4899,-1.5003,-1.4981,-1.4657,-1.4828,-1.498,-1.4908,-1.4479,-1.409,-1.3819,-1.3374,-1.3859,-1.5656,-1.5798,-1.6671,-1.8689,-1.8804,-1.8804,-1.8804,-1.8804,-1.8149,-1.6786,-1.8141,-1.855,-1.801,-1.7723,-1.7336,-1.6901,-1.7156,-1.6601,-1.5445,-1.6604,-1.6399,-1.5329,-1.5724,-1.5214,-1.4276,-1.513,-1.5858,-1.6394,-1.6335,-1.6726,-1.7139,0.0,0.0,0.0,0.0,0.0,0.0,0.0,0.0,0.0,0.0,0.0,0.0,-0.8155,-0.8355,-0.8398,-0.8197,-0.8186,0.0,0.0,0.0,0.0,-0.8949,-0.92,0.0,-0.9484,-0.9211,-0.9372,-0.9989,-0.9878,-1.0548,-1.1953,-1.2216,-1.2397,-1.2529,-1.2473,-1.2105,-1.1463,-1.0733,-1.0619,-1.0919,-1.054,-1.0122,-0.9745,-0.9861,-0.9821,-0.9701,-0.9701,0.0,0.0,0.0,0.0,0.0,0.0,0.0,-1.1114,0.0,0.0,0.0,-0.9961,-0.951,-0.9211,-0.9814,-1.0024,-1.0475,0.0,0.0,0.0,-1.4017,-1.4356,-1.4549,-1.5025,-1.4902,-1.4636,-1.4375,-1.4777,-1.4921,-1.4391,-1.4559,-1.4642,-1.437,-1.4099,-1.3828,-1.3562,-1.3279,-1.3859,-1.5656,-1.5798,-1.6671,-1.8689,-1.8804,-1.8804,-1.8804,-1.8804,-1.8303,-1.7273,-1.7614,-1.7498,-1.6976,-1.7917,-1.7832,-1.6924,-1.7878,-1.7529,-1.6173,-1.6823,-1.6317,-1.5062,-1.5652,-1.5235,-1.4309,-1.5301,-1.6098,-1.6658,-1.6607,-1.7003,-1.7378,0.0,0.0,0.0,0.0,0.0,0.0,0.0,0.0,0.0,0.0,0.0,0.0,0.0,-0.8463,-0.8414,-0.8219,-0.8089,0.0,0.0,0.0,0.0,-0.9149,-0.9259,-0.9322,-0.9376,-0.9135,-0.9296,-0.9878,-0.982,-1.0407,-1.159,-1.1902,-1.201,-1.1988,-1.2694,-1.228,-1.1024,-1.1179,-1.0865,-1.033,-1.0748,-1.0547,-1.0047,-1.0262,0.0,0.0,0.0,0.0,0.0,0.0,0.0,0.0,0.0,0.0,0.0,0.0,0.0,-0.9763,-0.9107,-0.8755,-0.8756,-0.9641,-0.974,-0.9977,-1.1331,-1.1753,-1.2081,-1.2904,-1.3008,-1.3072,-1.3542,-1.4211,-1.4679,-1.4579,-1.4579,-1.4527,-1.434,-1.437,-1.4413,-1.431,-1.4226,-1.3968,-1.3539,-1.4034,-1.4789,-1.5727,-1.5648,-1.6398,-1.8373,-1.7695,-1.7627,-1.8455,-1.8486,-1.8102,-1.7312,-1.7738,-1.7769,-1.7428,-1.8734,-1.918,-1.8819,-1.8519,-1.8116,-1.7587,-1.7246,-1.62,-1.4772,-1.5267,-1.4777,-1.3795,-1.4332,-1.4702,-1.4932,-1.5253,-1.5629,-1.5919,0.0,0.0,0.0,0.0,0.0,0.0,0.0,0.0,0.0,-0.7753,0.0,0.0,0.0,0.0,-0.8414,-0.8219,-0.8073,-0.8057,-0.8186,-0.8499,-0.8759,-0.8992,-0.9089,-0.9145,-0.9193,-0.8883,-0.908,-0.9804,-0.9556,-1.0005,-1.1142,-1.1353,-1.1503,-1.1607,-1.2311,-1.2107,-1.123,-1.1677,-1.1486,-1.0916,-1.1409,-1.1116,-1.0427,0.0,0.0,0.0,0.0,0.0,0.0,0.0,0.0,0.0,0.0,0.0,0.0,0.0,0.0,0.0,-0.8541,0.0,0.0,-0.8708,-0.8885,-0.9209,-1.0422,0.0,-1.1437,-1.2041,-1.2132,-1.2252,-1.2717,-1.3502,-1.4099,-1.4182,-1.3975,-1.4022,-1.4716,-1.4666,-1.4556,-1.4556,-1.494,-1.468,-1.3395,-1.4596,-1.5522,-1.5628,-1.5772,0.0,-1.8062,-1.7333,-1.7266,-1.8112,-1.824,-1.8082,-1.765,-1.7771,-1.7955,-1.8203,-1.8858,-1.9202,-1.924,-1.8565,-1.7859,-1.7079,-1.6512,-1.5672,-1.4754,-1.5126,-1.4585,-1.3523,-1.38,-1.3967,-1.4089,-1.4509,-1.4852,-1.5097,0.0,0.0,0.0,0.0,0.0,0.0,0.0,0.0,-0.798,-0.8182,0.0,0.0,0.0,0.0,0.0,-0.8224,-0.8203,-0.809,-0.7828,-0.8175,-0.8405,-0.8405,0.0,0.0,-0.8985,-0.8479,-0.8751,-0.9801,-0.9084,-0.9377,-1.0609,-1.0609,-1.0893,-1.1433,-1.1321,-1.1598,-1.2145,-1.2133,-1.235,-1.2691,0.0,-1.173,-1.0803,0.0,0.0,0.0,-0.9982,-1.0684,0.0,-1.0809,0.0,0.0,0.0,0.0,0.0,0.0,0.0,0.0,0.0,0.0,0.0,0.0,-0.7375,-0.8113,-0.9073,0.0,-1.062,-1.1504,-1.1893,-1.2221,-1.2683,-1.2768,-1.2854,-1.3123,-1.2951,-1.347,-1.5456,-1.5345,-1.5058,-1.5028,-1.6111,-1.5782,-1.3085,-1.4867,-1.5963,-1.5357,-1.6244,-1.7071,-1.7749,-1.7777,-1.7777,-1.7777,-1.8097,-1.8257,-1.8234,-1.7628,-1.7933,-1.9126,-1.8187,-1.7832,-1.8033,-1.801,-1.6767,-1.4663,-1.4639,-1.4747,-1.4975,-1.5279,-1.4653,-1.3518,-1.3824,-1.4102,-1.4353,-1.4548,-1.4841,-1.5127,0.0,0.0,0.0,0.0,0.0,-0.811,-0.802,-0.8077,-0.8135,0.0,0.0,0.0,-0.8576,-0.8538,-0.8468,-0.842,-0.8292,-0.8175,-0.8095,-0.8327,-0.8532,-0.8686,-0.8769,-0.8818,-0.8845,-0.8804,-0.9168,-0.9945,-0.9736,-0.9973,-1.0609,-1.0609,-1.0383,-0.9995,-1.0455,-1.0658,-1.0673,-1.0578,-1.0674,-1.0907,-1.0837,-1.0856,0.0,0.0,0.0,0.0,0.0,-1.0229,-1.0361,0.0,-1.0773,-1.0715,0.0,0.0,0.0,0.0,0.0,0.0,-0.7403,0.0,0.0,0.0,0.0,0.0,-0.8555,-0.9259,-0.9972,-1.0979,-1.1243,-1.1437,-1.1861,-1.1808,-1.185,-1.2262,-1.2591,-1.306,-1.3815,-1.3966,-1.3943,-1.3755,-1.4501,-1.4619,-1.3623,-1.5325,-1.6367,0.0,-1.6321,-1.6785,-1.7408,-1.7435,-1.7435,-1.7435,-1.7761,-1.7584,-1.6869,-1.7404,-1.7595,-1.7477,-1.8129,-1.8581,-1.885,-1.8326,-1.7294,-1.5937,-1.5399,-1.4709,-1.3896,-1.364,-1.3319,-1.3106,-1.426,-1.4747,-1.4857,-1.5248,-1.5582,-1.571,0.0,0.0,0.0,0.0,0.0,-0.8419,-0.823,-0.8268,-0.8333,0.0,0.0,0.0,-0.8635,-0.8662,-0.87,-0.8775,-0.8606,-0.8451,-0.8333,-0.8355,-0.8381,-0.8377,-0.8496,-0.8551,-0.8551,-0.8715,-0.9123,-0.9786,-0.9685,-0.9884,-1.039,-1.0285,-1.0028,-0.9709,-1.0042,-1.0031,-0.9746,-0.9479,-0.9838,0.0,-1.0709,0.0,0.0,-1.0675,-1.0371,0.0,0.0,0.0,-1.0357,-1.0754,-1.1117,0.0,0.0,0.0,0.0,0.0,0.0,0.0,0.0,0.0,0.0,0.0,0.0,0.0,-0.8057,-0.8698,-0.9393,0.0,-1.071,-1.0895,-1.1138,-1.1098,-1.11,-1.137,-1.1691,-1.2344,-1.3644,-1.3765,-1.3711,-1.367,-1.4503,-1.4707,-1.3721,-1.5488,-1.6508,-1.6075,-1.6496,-1.6863,-1.7051,-1.7048,-1.7048,-1.7048,-1.7403,-1.7298,-1.6714,-1.7017,-1.7254,-1.7432,-1.7756,-1.807,-1.838,-1.7971,-1.7202,-1.6196,-1.5866,-1.5311,-1.4613,-1.4412,-1.4088,-1.3811,-1.48,-1.5408,-1.5838,-1.6252,-1.6219,-1.5867,0.0,0.0,-0.913,-0.8938,-0.8895,-0.8744,-0.8305,-0.8387,-0.8501,0.0,-0.8522,-0.8641,-0.8911,-0.896,-0.9029,-0.919,-0.9062,-0.8851,-0.8571,-0.8355,-0.8111,-0.7849,-0.8068,-0.8213,-0.8259,-0.8526,-0.8993,-0.9657,-0.9421,-0.9636,-1.0239,-0.9948,-0.99,-1.0083,-0.9953,-0.9704,-0.9343,-0.8905,0.0,-1.1027,-1.1171,-1.0884,0.0,0.0,-0.9885,-0.9827,-0.9127,-0.9766,-1.092,-1.0916,-1.1627,0.0,0.0,0.0,0.0,0.0,-0.9439,0.0,0.0,0.0,0.0,0.0,-0.6511,0.0,-0.759,-0.8164,-0.8791,-0.9702,-1.0218,-1.0503,-1.0523,-1.0564,-1.0594,-1.0603,-1.06,-1.1481,-1.3992,-1.3995,-1.381,-1.402,-1.5143,-1.5276,-1.3708,-1.5434,-1.6439,-1.589,-1.6744,-1.7135,-1.6789,-1.6773,-1.6773,-1.6773,-1.7072,-1.7244,-1.7244,-1.6639,-1.6986,-1.824,-1.7334,-1.7104,-1.746,-1.746,-1.6922,-1.5988,-1.6281,-1.6344,-1.625,-1.6492,-1.6028,-1.5205,-1.5572,-1.6267,-1.7113,-1.7445,-1.6928,-1.6113,0.0,-0.9174,-0.913,-0.8938,-0.8895,-0.8803,-0.849,-0.8468,-0.8501,-0.8501,-0.8695,-0.89,-0.9114,-0.9337,-0.9391,-0.9217,-0.9369,-0.9272,-0.8857,-0.8592,-0.835,-0.8138,-0.817,-0.8321,-0.8589,-0.9328,-1.0003,-1.063,-1.0633,-1.0804,-1.1146,-1.0651,-1.0309,-1.0083,-0.9953,-0.9851,-0.9773,-0.963,0.0,-0.9883,-0.9549,0.0,-1.0964,-1.0414,-1.0367,-1.0491,-0.9667,-0.9552,-0.9924,-1.0658,-1.1369,-1.1917,0.0,0.0,0.0,0.0,0.0,0.0,0.0,0.0,0.0,0.0,0.0,0.0,-0.7283,-0.7525,-0.7831,0.0,-0.9587,-0.9926,-1.0092,-1.039,-1.0603,-1.0608,-1.0594,-1.0972,-1.2053,-1.25,-1.2626,-1.2476,-1.3386,-1.4132,-1.443,-1.5293,-1.6118,-1.6783,-1.7125,-1.7268,-1.7196,-1.7175,-1.7175,-1.7175,-1.6932,-1.6821,-1.6821,-1.669,-1.7056,-1.7896,-1.7691,-1.791,-1.8519,-1.8519,-1.7971,-1.7039,-1.7528,-1.7241,-1.6469,-1.6938,-1.6774,-1.6304,-1.7391,-1.7925,-1.8148,-1.8491,-1.8469,-1.822,-0.9358,-0.9389,-0.9331,-0.9094,-0.8976,-0.8803,-0.8533,-0.8501,-0.8554,-0.8673,-0.8905,-0.9094,-0.9195,-0.9319,-0.9394,-0.9394,-0.9304,-0.9154,-0.8911,-0.856,-0.8311,-0.8203,-0.8104,-0.8272,-0.8745,-0.9441,-1.0102,-1.0742,-1.0859,-1.1007,-1.1186,-1.0784,-1.0512,-1.0356,-1.0279,-1.0076,-0.9797,-0.9876,-0.9833,-0.9725,-0.9566,0.0,-1.0512,-1.0257,-1.0162,-1.0131,-0.966,-0.9655,-1.005,-1.1467,-1.1732,0.0,0.0,-1.183,-1.154,0.0,-1.1003,-1.1222,0.0,0.0,0.0,-0.7395,0.0,0.0,0.0,-0.6872,-0.7273,-0.8423,-0.8783,-0.9027,-0.942,-0.9669,-0.9793,-0.9793,-0.9877,-1.0151,-1.0714,-1.1419,-1.1901,-1.1987,-1.236,-1.3116,-1.4412,-1.4701,-1.5397,-1.6795,-1.6967,-1.7008,-1.7008,-1.7008,-1.7008,-1.7008,-1.6813,-1.6689,-1.6689,-1.6689,-1.7059,-1.7793,-1.7793,-1.8144,-1.8804,-1.8804,-1.8511,-1.8087,-1.862,-1.8542,-1.8079,-1.8588,-1.865,-1.8411,-1.8549,-1.8918,-1.9382,-1.9654,-1.939,-1.8808,-0.9554,-0.9558,-0.9477,-0.9303,-0.9067,-0.8846,-0.8656,-0.8592,-0.87,-0.904,-0.9315,-0.9503,-0.9608,-0.9647,-0.9778,-1.0051,-0.9607,-0.929,-0.9238,-0.8777,-0.847,-0.8361,-0.8142,-0.8291,-0.89,-0.9372,-0.9955,-1.0615,-1.0729,-1.0869,-1.0982,-1.0727,-1.0609,-1.0593,-1.0646,-1.039,-0.9923,-1.015,0.0,-1.0134,0.0,-1.0273,-1.0193,-1.0132,-1.0009,-0.9809,-0.9544,-0.966,-1.0217,-1.2059,-1.1906,-1.1101,-1.1864,-1.2017,0.0,0.0,0.0,0.0,0.0,0.0,0.0,0.0,0.0,-0.7235,0.0,0.0,0.0,-0.7876,-0.8067,0.0,0.0,0.0,0.0,0.0,0.0,0.0,0.0,-1.0586,0.0,-1.1687,-1.1588,-1.219,-1.3923,-1.4199,-1.4969,-1.664,-1.6802,-1.6821,-1.6821,-1.6821,-1.6821,-1.6821,-1.6749,-1.6689,-1.6689,-1.6689,-1.7059,-1.7793,-1.7793,-1.8144,-1.8804,-1.8804,-1.8804,-1.8827,-1.9373,-1.961,-1.9633,-2.0119,-2.0292,-2.0224,-1.9401,-1.9538,-2.0241,-2.044,-1.9934,-1.9047,-0.9581,-0.94,-0.9308,-0.952,-0.9198,-0.8954,-0.9098,-0.897,-0.9078,-0.9712,-1.0179,-1.0623,-1.1103,-1.1264,-1.1466,-1.1797,-1.1211,-1.072,-1.043,-0.9913,-0.94,-0.893,-0.8597,-0.8716,-0.9319,-0.9563,-1.0015,-1.0694,-1.0704,-1.0807,-1.0982,-1.0727,-1.0609,-1.06,-1.0845,-1.0853,-1.0703,-1.1019,-1.108,0.0,-1.1103,-1.1236,0.0,-1.073,-1.0621,-1.0626,-0.9674,-0.9176,-0.922,0.0,-1.1037,-1.072,0.0,-1.2261,-1.1976,0.0,0.0,0.0,0.0,0.0,0.0,0.0,-0.8446,0.0,0.0,0.0,-0.7144,-0.7434,0.0,0.0,0.0,0.0,0.0,0.0,0.0,0.0,-0.9377,-0.9977,-1.0492,-1.072,-1.079,-1.1364,-1.2756,-1.4319,-1.5756,-1.6972,-1.7157,-1.7236,-1.7236,-1.7236,-1.7236,-1.7236,-1.6884,-1.6689,-1.6689,-1.6689,-1.7059,-1.7793,-1.7793,-1.8144,-1.8804,-1.8804,-1.8804,-1.8827,-1.9373,-1.961,-1.9633,-2.0119,-2.0292,-2.0292,-2.017,-2.0056,-1.9956,-2.011,-2.0101,-1.9899,-0.9503,-0.933,-0.9197,-0.9337,-0.9105,-0.8927,-0.9008,-0.9056,-0.9154,-0.9399,-1.0085,-1.0694,-1.1127,-1.142,0.0,0.0,0.0,-1.1518,0.0,0.0,-1.0585,-1.0411,-0.9849,-0.9622,-0.9802,-0.9894,-1.0169,-1.0634,-1.0676,-1.0741,-1.0817,-1.0679,-1.068,-1.0831,-1.0958,-1.0956,-1.0875,0.0,-1.1223,0.0,0.0,0.0,0.0,-1.1176,-1.0953,-1.0865,-1.0564,-0.9924,-0.9531,0.0,-1.1214,0.0,0.0,0.0,0.0,0.0,0.0,0.0,0.0,0.0,0.0,0.0,0.0,0.0,-0.7333,0.0,-0.723,0.0,0.0,0.0,0.0,0.0,0.0,0.0,-0.8791,0.0,0.0,0.0,-0.946,0.0,0.0,0.0,-1.328,-1.3893,-1.4657,-1.5806,-1.6081,-1.6152,-1.6098,-1.6977,-1.7506,-1.7599,-1.7231,-1.7048,-1.7048,-1.6821,-1.7059,-1.7793,-1.7793,-1.8144,-1.8804,-1.8804,-1.8804,-1.8827,-1.9196,-1.9365,-1.941,-1.986,-2.0065,-2.0087,-2.0246,-2.0133,-1.9935,-2.0277,-2.0189,-1.9718,-0.9626,-0.9456,-0.9292,-0.9336,-0.933,-0.9366,-0.9512,-0.9739,-0.9941,-1.0083,-1.0819,-1.1463,-1.1861,-1.2132,0.0,0.0,-1.2685,-1.2453,0.0,0.0,-1.159,0.0,0.0,0.0,0.0,-1.0225,-1.0321,-1.0604,-1.0617,-1.0681,-1.0802,-1.067,-1.0771,-1.1109,-1.1109,-1.1104,-1.1106,0.0,-1.1392,-1.1324,-1.1496,-1.1643,-1.1728,-1.1484,-1.1153,-1.0841,-1.1044,-1.0474,-0.9944,-1.1887,-1.1311,0.0,-1.2142,0.0,0.0,0.0,0.0,0.0,-1.1665,0.0,0.0,0.0,0.0,0.0,0.0,0.0,0.0,0.0,0.0,0.0,0.0,0.0,0.0,0.0,0.0,-0.888,0.0,-0.8526,0.0,0.0,0.0,0.0,0.0,-1.3265,-1.3578,-1.447,-1.5013,-1.5273,-1.52,-1.672,-1.7629,-1.7649,-1.7514,-1.7347,-1.7135,-1.7056,-1.727,-1.7793,-1.7888,-1.824,-1.8804,-1.8804,-1.8804,-1.8804,-1.9073,-1.9211,-1.9234,-1.97,-1.9905,-1.9936,-2.0201,-2.0147,-2.0008,-2.0353,-1.9917,-1.8986,-1.0095,-0.9916,-0.9748,-0.9701,-1.0049,-1.0531,-1.1046,-1.1406,-1.1879,-1.2596,-1.3095,0.0,0.0,0.0,0.0,0.0,0.0,-1.3753,-1.3124,0.0,-1.2213,0.0,0.0,-1.0806,0.0,0.0,-1.046,-1.0604,-1.0466,-1.0644,-1.1071,-1.0747,-1.0878,-1.1392,-1.1392,-1.1462,-1.1596,-1.1732,-1.1815,-1.1866,-1.1744,-1.1707,-1.1679,0.0,-1.1175,-1.0603,-1.0619,0.0,0.0,-1.1041,-1.0968,0.0,0.0,0.0,0.0,0.0,0.0,0.0,0.0,0.0,0.0,-1.0847,0.0,0.0,0.0,0.0,-0.8479,0.0,0.0,0.0,0.0,0.0,0.0,0.0,0.0,0.0,0.0,0.0,0.0,0.0,0.0,0.0,0.0,-1.2486,-1.3118,-1.3336,-1.4432,-1.5145,-1.52,-1.672,-1.7516,-1.7315,-1.761,-1.7429,-1.6733,-1.7405,-1.7769,-1.7793,-1.8143,-1.8478,-1.8804,-1.8804,-1.8804,-1.8804,-1.9073,-1.9211,-1.9234,-1.97,-1.9905,-1.9936,-2.0201,-2.0216,-2.0106,-2.0107,-1.9162,-1.7758,-1.0628,-1.0839,-1.0857,-1.0213,-1.0085,-1.0222,-1.0738,-1.1138,0.0,0.0,-1.3357,0.0,0.0,-1.5782,-1.5961,0.0,0.0,-1.5232,-1.5209,-1.3753,0.0,0.0,0.0,-1.0659,0.0,0.0,0.0,-1.093,-1.0794,-1.0802,-1.0977,-1.0896,-1.1172,-1.1728,-1.1499,-1.1597,0.0,0.0,0.0,0.0,0.0,-1.1876,-1.1793,0.0,-1.1252,-1.1078,-1.1252,-1.0921,0.0,-1.1397,-1.1309,-1.0974,-1.1751,-1.2004,-1.1848,-1.1169,-1.1457,0.0,0.0,0.0,-1.1006,-1.1257,0.0,0.0,0.0,0.0,0.0,0.0,0.0,0.0,0.0,0.0,0.0,0.0,0.0,0.0,0.0,0.0,0.0,0.0,0.0,0.0,0.0,0.0,-1.0761,-1.1459,-1.185,-1.2222,-1.2597,-1.4774,-1.6138,-1.6427,-1.7114,-1.7411,-1.7289,-1.7411,-1.7642,-1.7996,-1.8195,-1.8486,-1.8804,-1.8804,-1.8804,-1.8804,-1.8897,-1.9027,-1.9234,-1.9548,-1.9777,-1.9936,-2.0201,-1.9761,-1.8996,-1.923,-1.8663,-1.7548,-1.1193,-1.1555,-1.1626,-1.0685,-1.0507,-1.0802,-1.1712,0.0,0.0,0.0,-1.4689,0.0,-1.7064,0.0,-1.6605,0.0,-1.6373,-1.5658,-1.4881,-1.4132,0.0,-1.2342,-1.1523,0.0,0.0,0.0,0.0,0.0,-1.1075,-1.1188,-1.0965,-1.1092,-1.1463,-1.2029,-1.1717,-1.1802,-1.2177,-1.2164,-1.2069,0.0,0.0,-1.217,0.0,0.0,-1.1658,-1.1585,0.0,-1.145,-1.1232,-1.1789,-1.1706,-1.1484,-1.1969,-1.2161,-1.21,-1.1356,-1.1559,-1.1882,-1.1351,-1.106,0.0,-1.1196,-1.0577,0.0,-0.9606,0.0,0.0,0.0,0.0,0.0,0.0,0.0,0.0,0.0,0.0,0.0,0.0,-0.8857,0.0,0.0,0.0,0.0,0.0,0.0,-0.9769,-0.9889,-1.031,-1.0773,0.0,-1.3837,-1.5524,-1.5995,-1.7071,-1.7645,-1.76,-1.7765,-1.792,-1.8091,-1.8314,-1.8531,-1.8804,-1.8746,-1.8754,-1.8804,-1.8804,-1.8958,-1.9211,-1.9487,-1.9716,-1.9928,-2.0087,-1.9475,-1.8496,-1.8709,-1.7923,-1.6466,-1.1839,-1.2085,-1.2062,-1.1163,-1.1344,0.0,0.0,0.0,-1.515,0.0,-1.702,-1.738,-1.7668,-1.7173,-1.6372,-1.5302,-1.5917,-1.5206,-1.2539,-1.3909,0.0,0.0,-1.1734,-1.1594,-1.0087,0.0,0.0,0.0,0.0,-1.1671,-1.1111,-1.1334,-1.1739,-1.2291,-1.2029,-1.2062,-1.2285,-1.2182,-1.2285,-1.2516,-1.2658,-1.2588,-1.2415,-1.2406,-1.2299,-1.21,-1.1839,-1.1893,-1.2094,-1.2105,-1.2105,-1.2091,-1.2028,-1.2043,-1.2021,-1.1696,-1.1596,-1.1548,-1.1263,-1.1191,-1.1119,-1.0725,-1.0314,0.0,0.0,0.0,-1.0241,0.0,0.0,0.0,0.0,0.0,0.0,0.0,0.0,0.0,0.0,0.0,0.0,0.0,0.0,0.0,0.0,-0.9992,-1.0025,-0.8659,-0.9795,-1.0736,0.0,-1.3758,-1.5463,-1.5951,-1.7325,-1.7916,-1.7624,-1.8307,-1.8482,-1.8116,-1.8457,-1.8668,-1.8796,-1.8667,-1.8676,-1.8804,-1.8804,-1.8958,-1.9211,-1.9487,-1.9716,-1.9905,-1.9905,-1.9312,-1.8458,-1.8425,-1.6832,-1.4568,-1.2837,-1.2902,-1.2894,0.0,-1.2042,-1.1955,0.0,0.0,0.0,0.0,-1.7434,-1.8441,-1.9175,-1.8713,-1.8318,-1.8272,-1.7471,0.0,0.0,0.0,0.0,-1.1476,-1.0155,-0.9856,-1.0712,-1.0361,0.0,-1.076,0.0,-1.1392,-1.126,-1.161,-1.1969,-1.2298,-1.2225,-1.2231,-1.2317,-1.2637,-1.2724,-1.267,-1.2908,-1.2857,-1.263,0.0,-1.261,-1.2597,-1.2318,-1.2174,-1.2121,-1.2258,-1.2222,-1.2091,-1.2028,-1.2013,-1.1966,-1.1684,-1.1604,-1.1531,-1.1264,-1.1191,-1.1177,-1.1071,-1.0632,-1.0317,0.0,0.0,0.0,0.0,0.0,0.0,0.0,0.0,0.0,0.0,0.0,0.0,0.0,0.0,0.0,-0.9117,0.0,0.0,0.0,-0.8799,-0.8721,-0.8058,-0.8287,0.0,-1.074,0.0,-1.2956,-1.5544,-1.4845,-1.5579,-1.7959,-1.7141,-1.7314,-1.8465,-1.867,-1.8763,-1.8804,-1.8755,-1.8771,-1.8804,-1.8804,-1.8958,-1.9211,-1.9487,-1.9716,-1.9905,-1.9905,-1.852,-1.6459,-1.597,-1.4838,-1.3474,-1.2955,-1.2883,0.0,-1.3167,0.0,0.0,-1.4046,-1.4314,0.0,-1.6986,-1.7969,0.0,-1.933,-1.9088,-1.8509,-1.7569,-1.7298,0.0,-1.3399,0.0,0.0,-1.0638,-0.9958,-0.9873,-1.0432,-1.014,0.0,-1.0719,0.0,-1.1358,-1.1052,-1.1746,-1.2163,-1.2311,-1.2457,-1.251,-1.2548,-1.2871,-1.2945,-1.29,-1.3036,-1.2952,0.0,-1.2841,-1.2832,-1.2772,-1.2638,-1.2503,-1.2413,-1.2404,-1.2323,-1.2231,-1.2183,-1.2083,-1.1983,-1.1963,-1.1878,-1.1731,-1.1585,-1.1463,-1.1365,-1.1365,-1.112,-1.0896,-1.1012,-1.0642,-1.0429,0.0,-1.056,-1.0218,0.0,0.0,0.0,0.0,0.0,0.0,0.0,0.0,0.0,0.0,-0.9338,0.0,-0.862,-0.8436,-0.8252,-0.7985,-0.8022,0.0,0.0,0.0,-1.236,-1.3744,-1.4135,-1.4976,-1.6337,-1.5646,-1.6052,-1.7561,-1.762,-1.8033,-1.8711,-1.8664,-1.8692,-1.8804,-1.8804,-1.9012,-1.9387,-1.9541,-1.9785,-1.9951,-1.8842,-1.7393,-1.578,-1.4412,-1.3464,-1.2816,-1.27,-1.2596,0.0,0.0,0.0,0.0,0.0,-1.5208,0.0,-1.7853,0.0,-1.8718,-1.8823,-1.8876,-1.789,-1.5384,0.0,-1.523,-1.0943,-1.2708,-1.2513,-0.9365,-1.0349,-1.0559,-0.9695,-1.0119,-1.0274,0.0,-1.1147,-1.1336,-1.0763,-1.18,-1.2305,-1.2318,-1.265,-1.289,0.0,-1.3184,-1.3268,-1.3304,-1.3304,-1.3111,-1.2863,-1.3147,-1.3143,-1.3001,-1.3001,-1.2905,-1.2756,-1.2527,-1.2441,-1.242,-1.2452,-1.227,-1.2102,-1.2327,-1.2224,-1.2054,-1.2005,-1.1829,-1.1663,-1.1663,-1.1663,-1.1585,-1.1355,-1.1478,-1.166,-1.1742,-1.1519,-1.1299,0.0,0.0,0.0,0.0,0.0,0.0,0.0,0.0,0.0,0.0,0.0,0.0,0.0,0.0,0.0,0.0,0.0,0.0,0.0,0.0,-1.2509,-1.1883,-1.4158,-1.5087,-1.4473,-1.4412,-1.5054,-1.6399,-1.629,-1.703,-1.843,-1.8444,-1.8574,-1.8804,-1.8804,-1.9089,-1.9556,-1.9587,-1.9853,-2.0011,-1.7475,-1.6313,-1.5793,-1.3588,-1.2591,-1.2452,-1.3004,0.0,0.0,0.0,0.0,-1.4321,-1.5748,-1.5428,-1.5388,-1.638,-1.829,-1.9312,-1.8637,-1.8778,-1.813,-1.6252,-1.6107,0.0,0.0,0.0,0.0,-0.989,-0.9804,-0.9706,-0.9546,-0.9579,-0.9628,0.0,-1.0506,-1.0921,-1.0968,-1.1873,-1.2305,-1.2318,-1.265,0.0,-1.4203,-1.4388,0.0,-1.433,-1.433,-1.3824,-1.3107,-1.3826,-1.4064,-1.4034,-1.4034,-1.3509,-1.2783,-1.274,-1.2576,-1.2452,-1.2665,-1.2547,-1.2344,-1.238,-1.237,-1.2273,-1.2049,-1.198,-1.1932,-1.1932,-1.1932,-1.1922,-1.1881,-1.1896,-1.1934,-1.1942,-1.1735,-1.1556,-1.1584,0.0,0.0,0.0,0.0,0.0,0.0,0.0,0.0,0.0,0.0,-1.0376,0.0,0.0,0.0,0.0,0.0,0.0,0.0,0.0,-1.1086,0.0,-1.2859,-1.3842,0.0,0.0,-1.5372,-1.7441,-1.6814,-1.6883,-1.7553,-1.8352,-1.8754,-1.8804,-1.8804,-1.8989,-1.9288,-1.951,-1.9739,-1.9737,-1.7406,-1.6237,-1.561,-1.3503,-1.2439,-1.2137,-1.2375,0.0,0.0,0.0,0.0,0.0,0.0,-1.5928,-1.6274,-1.741,-1.8483,-1.8958,-1.8537,-1.8203,-1.7365,-1.5762,-1.5212,-1.4003,-1.1664,-1.1408,-1.0909,-0.9935,-0.9664,-0.9655,-0.9899,-0.9472,-0.9542,-1.0178,-1.059,-1.0863,-1.1031,-1.206,-1.247,-1.2325,-1.3047,-1.3952,0.0,0.0,0.0,-1.4598,-1.4492,-1.3838,-1.3046,-1.3957,-1.4298,-1.4298,-1.4298,-1.3986,-1.3487,-1.2816,-1.2506,-1.2412,-1.2549,-1.2411,-1.2244,-1.2525,-1.2516,-1.2395,-1.2419,-1.2322,-1.22,-1.22,-1.22,-1.2175,-1.2029,-1.2102,-1.22,-1.22,-1.2088,-1.1896,-1.1468,-1.0934,0.0,0.0,0.0,0.0,0.0,0.0,0.0,0.0,0.0,0.0,0.0,0.0,0.0,0.0,0.0,0.0,0.0,0.0,-1.1104,0.0,0.0,0.0,-1.4907,0.0,-1.367,-1.548,-1.5461,-1.606,-1.7204,-1.7513,-1.8077,-1.8781,-1.8249,-1.8558,-1.9433,-1.9799,-1.9623,-1.8949,-1.7196,-1.596,-1.4982,-1.3314,-1.2478,-1.2242,-1.1738,-1.2102,0.0,0.0,-1.3391,-1.3786,-1.5621,-1.6469,-1.7368,-1.8627,-1.8945,-1.8986,-1.8725,-1.7857,-1.6708,-1.5199,-1.4266,-1.3018,-1.136,-1.1197,-1.0848,-1.0099,-0.9806,-0.9838,-1.0219,-0.9598,-0.9737,0.0,-1.087,-1.1011,-1.1112,-1.2269,-1.276,-1.2687,0.0,0.0,0.0,0.0,-1.5697,-1.5153,-1.4772,-1.4028,-1.3219,-1.4244,-1.4627,-1.4627,-1.4627,-1.4627,-1.4405,-1.2972,-1.249,-1.249,-1.249,-1.2347,-1.2284,-1.2922,-1.2807,-1.2589,-1.3001,-1.2807,-1.2492,-1.2492,-1.2492,-1.2419,-1.2224,-1.2322,-1.2467,-1.2419,-1.2358,-1.213,-1.1486,-1.1239,0.0,0.0,0.0,0.0,0.0,0.0,0.0,0.0,0.0,0.0,-1.1305,0.0,0.0,0.0,0.0,0.0,-0.8949,0.0,0.0,0.0,0.0,-1.253,-1.3091,0.0,-1.233,-1.3651,-1.4258,-1.5347,-1.683,-1.6766,-1.7507,-1.8735,-1.7746,-1.818,-1.9633,-2.005,-1.9507,-1.8272,-1.7001,-1.5713,-1.4433,-1.3109,-1.2505,-1.2446,0.0,0.0,0.0,0.0,0.0,-1.4543,-1.5099,-1.6909,-1.8282,-1.8426,-1.9914,-2.0528,-1.9444,-1.8332,-1.7018,-1.5501,-1.3639,-1.2707,-1.3039,-1.144,-1.0605,-1.0881,-1.023,-0.9929,-1.0022,-0.9832,-1.007,0.0,-1.105,-1.1251,0.0,-1.2408,0.0,0.0,0.0,0.0,0.0,-1.7166,-1.7272,-1.6973,-1.6021,-1.5069,-1.4268,-1.5283,-1.5656,-1.5656,-1.5656,-1.5656,-1.5365,-1.3427,-1.2756,-1.2756,-1.2756,-1.2756,-1.2901,-1.3884,-1.3509,-1.2977,-1.3913,-1.348,-1.2764,-1.2764,-1.2764,-1.2764,-1.274,-1.2735,-1.2691,-1.2443,-1.2208,-1.2094,-1.2243,-1.1301,-1.0616,0.0,0.0,0.0,0.0,0.0,0.0,0.0,0.0,0.0,0.0,-0.9778,-0.9119,0.0,-0.9092,0.0,0.0,0.0,0.0,-1.0257,-1.1476,-1.2426,-1.3091,-1.2869,-1.3324,-1.4502,-1.4852,-1.5352,-1.5954,-1.6831,-1.781,-1.8735,-1.7746,-1.818,-1.961,-1.9845,-1.9332,-1.8272,-1.7001,-1.5713,-1.4433,-1.2909,-1.2451,-1.2622,0.0,0.0,0.0,0.0,0.0,0.0,0.0,-1.7244,-1.863,-1.8906,-2.0264,-2.088,-2.004,-1.8601,-1.7017,-1.5321,-1.3457,-1.2211,-1.1759,-1.1397,-1.098,-1.0544,-1.0612,-1.038,-0.9776,-0.9905,-1.0168,0.0,0.0,0.0,0.0,0.0,0.0,0.0,0.0,-1.5581,-1.7282,-1.7797,-1.7728,-1.7203,-1.6193,-1.5211,-1.4418,-1.5419,-1.5798,-1.5893,-1.6476,-1.6311,-1.5585,-1.4172,-1.3292,-1.2813,-1.2813,-1.3219,-1.3648,-1.3461,-1.3528,-1.3648,-1.3455,-1.3098,-1.2813,-1.2813,-1.2813,-1.2764,-1.2589,-1.2691,-1.2716,-1.2467,-1.2321,-1.2265,-1.237,-1.183,-1.1656,-1.2592,0.0,0.0,0.0,0.0,0.0,0.0,0.0,0.0,0.0,-1.083,-0.9823,-0.9791,0.0,0.0,0.0,0.0,0.0,-1.2975,0.0,-1.263,-1.5113,-1.3339,-1.2784,-1.3535,-1.4047,-1.4528,-1.4901,-1.5107,-1.5865,-1.7023,-1.7374,-1.8226,-1.9387,-1.9745,-1.8796,-1.7048,-1.665,-1.5359,-1.3632,-1.2967,-1.2802,-1.2957,-1.2623,0.0,-1.4268,0.0,-1.4401,-1.4478,-1.5879,-1.7411,-1.8732,-1.9601,-2.0793,-2.131,-2.0607,-1.8917,-1.7285,-1.6001,-1.4043,-1.2741,-1.237,-1.2244,-1.1957,-1.1429,-1.1261,0.0,-1.0531,-1.0384,-1.0521,-1.0982,-1.1932,0.0,0.0,0.0,0.0,0.0,-1.4952,-1.6142,-1.7831,-1.8248,-1.8171,-1.763,-1.6311,-1.5378,-1.4813,-1.5538,-1.5798,-1.594,-1.6938,-1.664,-1.5656,-1.4645,-1.3624,-1.2813,-1.2813,-1.3485,-1.4226,-1.3811,-1.398,-1.4202,-1.3787,-1.3262,-1.2813,-1.2813,-1.2813,-1.2719,-1.2456,-1.2542,-1.2638,-1.244,-1.2392,-1.2389,-1.2294,-1.2125,-1.2262,-1.3019,0.0,0.0,0.0,0.0,0.0,0.0,-1.2837,-1.2138,-1.2962,-1.1242,-1.0095,-1.0153,0.0,0.0,0.0,0.0,0.0,0.0,0.0,0.0,-1.5068,-1.2944,-1.2215,-1.2904,-1.3608,-1.4066,-1.4307,-1.4364,-1.4743,-1.5443,-1.6929,-1.804,-1.8812,-1.9448,-1.8303,-1.6203,-1.6351,-1.5031,-1.3071,-1.2944,-1.306,-1.3304,-1.325,-1.3407,-1.3576,-1.4118,-1.3887,-1.4316,-1.6466,-1.7493,-1.8653,-2.0461,-2.1716,-2.2143,-2.1201,-1.9308,-1.8068,-1.7979,-1.5566,-1.4681,-1.6143,-1.443,-1.364,0.0,0.0,-1.1668,-1.2632,-1.1428,-1.132,-1.2373,0.0,0.0,-1.2298,0.0,-1.3222,-1.5553,-1.5179,-1.6234,-1.8304,-1.8654,-1.8796,-1.8612,-1.6601,-1.5798,-1.5775,-1.5798,-1.5798,-1.594,-1.6938,-1.664,-1.5656,-1.4645,-1.3624,-1.2813,-1.2813,-1.3485,-1.4484,-1.5466,-1.5069,-1.4508,-1.549,-1.431,-1.2813,-1.2813,-1.2813,-1.2724,-1.245,-1.2396,-1.2396,-1.2396,-1.2396,-1.2323,-1.2056,-1.199,-1.1859,-1.1408,0.0,0.0,0.0,0.0,0.0,0.0,-1.1565,-1.1214,-1.1496,-1.0294,0.0,0.0,0.0,0.0,0.0,0.0,0.0,-1.0233,-0.9959,0.0,-1.1741,-1.1462,-1.1904,-1.3098,-1.3903,-1.429,-1.4336,-1.5329,-1.5229,-1.4436,-1.6429,-1.7467,-1.7808,-1.8788,-1.8025,-1.6203,-1.6203,-1.4881,-1.2971,-1.2793,-1.3122,-1.3658,-1.565,-1.5205,-1.4896,-1.5468,-1.4962,-1.4504,-1.4595,-1.6861,-1.8537,-1.8507,-2.0402,-2.1628,-2.1332,-2.0404,-1.9145,0.0,-1.6294,-1.5293,0.0,-1.3645,-1.2886,-1.2337,-1.2083,-1.1752,-1.135,-1.1667,-1.1986,-1.2322,0.0,0.0,0.0,-1.2675,-1.3709,-1.5472,-1.5524,-1.6708,-1.8646,-1.8757,-1.8804,-1.8681,-1.735,-1.6828,-1.6828,-1.6828,-1.6828,-1.6945,-1.7971,-1.7233,-1.5751,-1.5425,-1.419,-1.2813,-1.2813,-1.3485,-1.4364,-1.4675,-1.5051,-1.5235,-1.4884,-1.4316,-1.3648,-1.2977,-1.2662,-1.2458,-1.2178,-1.2131,-1.222,-1.2595,-1.2386,-1.2214,-1.2481,-1.1798,-1.1411,-1.213,-1.2457,0.0,0.0,0.0,0.0,0.0,-1.2679,-1.2072,-1.1989,-1.1184,0.0,0.0,0.0,0.0,0.0,0.0,0.0,0.0,-1.1591,0.0,-1.3738,-1.2434,-1.2212,-1.3102,-1.3373,-1.3416,-1.3288,-1.3608,-1.3956,-1.4364,-1.5704,-1.6711,-1.7514,-1.8711,-1.7917,-1.5954,-1.6276,-1.5153,-1.3357,-1.3406,-1.3688,-1.4018,-1.6884,-1.6871,-1.6911,-1.7298,-1.6472,-1.5818,-1.6037,-1.7675,-1.8877,-1.8844,-2.0484,-2.1518,-2.1256,-2.0904,0.0,-1.8375,-1.7596,-1.6491,-1.4801,-1.4207,-1.3361,-1.2064,-1.194,-1.1676,-1.1192,-1.1437,0.0,-1.1902,-1.2427,-1.2689,-1.2739,-1.2913,-1.3891,-1.5554,-1.5742,-1.6906,-1.8804,-1.8804,-1.8804,-1.8712,-1.77,-1.7296,-1.7296,-1.7296,-1.7296,-1.7436,-1.8442,-1.7761,-1.6311,-1.594,-1.4711,-1.3292,-1.2934,-1.3485,-1.4298,-1.4298,-1.5146,-1.5923,-1.5099,-1.4436,-1.3889,-1.3461,-1.2953,-1.2482,-1.2207,-1.2081,-1.2156,-1.2563,-1.2289,-1.2054,-1.2175,-1.1683,-1.1448,-1.203,-1.2618,-1.3076,-1.3308,0.0,0.0,0.0,0.0,0.0,0.0,-1.1413,-1.1147,0.0,0.0,0.0,0.0,0.0,-1.1383,-1.2805,-1.1903,-1.2276,-1.4116,-1.2636,-1.2355,-1.3244,-1.3074,-1.2934,-1.2813,-1.2813,-1.3147,-1.3793,-1.4813,-1.5585,-1.6264,-1.7444,-1.6859,-1.5261,-1.5641,-1.4841,-1.3533,-1.3733,-1.3976,-1.4196,-1.724,-1.8359,-1.9321,0.0,-1.8189,-1.7877,-1.9721,-1.9444,-1.95,-2.0751,-2.1499,-2.1677,-2.101,-2.0931,-2.0709,-2.0189,0.0,0.0,-1.6575,-1.582,-1.4746,-1.3143,-1.1884,-1.1444,-1.1906,-1.097,-1.0739,-1.1272,-1.1756,-1.2273,-1.2813,-1.2813,-1.383,-1.5626,-1.5704,-1.6788,-1.8589,-1.8666,-1.8712,-1.8666,-1.7723,-1.739,-1.739,-1.739,-1.739,-1.7529,-1.8465,-1.8156,-1.7156,-1.6146,-1.5116,-1.413,-1.3123,-1.3485,-1.4316,-1.4394,-1.5415,-1.644,-1.5947,-1.4741,-1.3751,-1.4178,-1.3589,-1.278,-1.2461,-1.2253,-1.2168,-1.2364,-1.2176,-1.181,-1.1316,-1.1614,-1.1761,-1.1316,-1.2087,-1.2622,-1.2353,0.0,0.0,0.0,0.0,0.0,-1.0958,-1.1224,-1.1135,0.0,0.0,0.0,0.0,0.0,-1.0985,-1.1664,-1.127,-1.1733,-1.3196,-1.227,-1.2364,-1.3467,-1.3031,-1.2813,-1.2813,-1.2813,-1.2813,-1.2861,-1.3865,-1.4298,-1.4394,-1.5402,-1.5211,-1.4322,-1.4551,-1.4171,-1.3533,-1.3765,-1.3981,-1.4191,0.0,0.0,-1.9437,-1.9905,-1.9325,-1.857,-1.7941,-1.8811,-1.9416,-1.9071,-2.0364,-2.1317,-2.1291,-2.1278,-2.1141,-2.0735,-1.9958,-1.9103,-1.8266,-1.6169,-1.4617,-1.3796,-1.2268,-1.1292,-1.1005,-1.1154,-1.1433,-1.181,-1.1932,-1.2273,-1.2813,-1.2813,-1.3251,-1.4088,-1.4841,-1.5673,-1.6556,-1.7334,-1.7893,-1.8249,-1.8009,-1.8125,-1.8442,-1.8442,-1.8442,-1.8473,-1.8712,-1.8156,-1.7156,-1.6146,-1.5116,-1.413,-1.3123,-1.3485,-1.446,-1.5211,-1.5704,-1.5971,-1.5822,-1.5538,-1.5092,-1.446,-1.3969,-1.3425,-1.2598,-1.2353,-1.2346,-1.2389,-1.2018,-1.1663,-1.1541,-1.1267,-1.1243,-1.1736,-1.1839,-1.1817,-1.1599,-1.1704,0.0,0.0,-1.1789,-1.2134,-1.0668,-1.2011,-1.2528,0.0,0.0,-1.2154,-1.2431,-1.2507,-1.2541,-1.2511,-1.2566,-1.2779,-1.3205,-1.2904,-1.291,-1.3195,-1.2934,-1.2813,-1.2813,-1.2813,-1.2813,-1.2861,-1.3865,-1.4298,-1.4388,-1.5622,-1.5384,-1.437,-1.4979,-1.4503,-1.3559,-1.3948,-1.4141,-1.4196,-1.8973,-2.0082,-2.1095,-2.1416,-2.0752,-2.0086,-1.984,-2.0139,-2.0372,-2.0284,-2.1143,-2.1654,-2.1426,-2.1396,-2.1254,-2.0923,-2.0364,-1.9618,-1.8675,-1.6652,-1.485,-1.3473,-1.2098,-1.1009,-1.0217,-1.0483,-1.0954,-1.1634,-1.1634,-1.2029,-1.2813,-1.2813,-1.3184,-1.3908,-1.4657,-1.5443,-1.6217,-1.7248,-1.7823,-1.8133,-1.8342,-1.8573,-1.8804,-1.8804,-1.8804,-1.8804,-1.8804,-1.8442,-1.7754,-1.6288,-1.5449,-1.4741,-1.3268,-1.3485,-1.4418,-1.4956,-1.5615,-1.6113,-1.5869,-1.5609,-1.5134,-1.3908,-1.3755,-1.3673,-1.2772,-1.2486,-1.2408,-1.2396,-1.198,-1.1541,-1.1267,-1.1194,-1.1263,-1.1579,-1.165,-1.1599,-1.146,-1.1243,-1.1036,-1.0813,-1.1442,-1.159,-1.0833,-1.19,-1.2305,-1.154,-1.2056,0.0,-1.2963,-1.3002,-1.3049,-1.3122,-1.3008,-1.3134,-1.3524,-1.3249,-1.305,-1.2958,-1.2861,-1.2813,-1.2813,-1.2813,-1.2662,-1.2467,-1.302,-1.3111,-1.2966,-1.3896,-1.395,-1.3495,-1.4243,-1.4179,-1.3727,-1.408,-1.4201,-1.4186,-1.9203,-2.1175,-2.2871,-2.2927,-2.2073,-2.1692,-2.2575,-2.1951,-2.1547,-2.2134,-2.2289,-2.2111,-2.1476,-2.1396,-2.1254,-2.0923,-2.0647,-1.9994,-1.884,-1.7416,-1.5555,-1.3223,-1.2024,-1.087,-0.9665,-0.9616,-1.0117,-1.1194,-1.1194,-1.1756,-1.2813,-1.2813,-1.3219,-1.398,-1.4687,-1.5473,-1.6339,-1.7496,-1.804,-1.8133,-1.8527,-1.8735,-1.8804,-1.8804,-1.8804,-1.8804,-1.8804,-1.8704,-1.828,-1.6436,-1.5704,-1.5253,-1.3383,-1.3389,-1.4106,-1.4274,-1.5343,-1.6386,-1.5917,-1.5466,-1.483,-1.357,-1.3618,-1.3767,-1.2976,-1.2608,-1.2427,-1.2358,-1.198,-1.1492,-1.0949,-1.1296,-1.1565,-1.1306,-1.1507,-1.1674,-1.1559,0.0,-1.1156,-1.1499,-1.1257,-1.1106,-1.1263,-1.1541,-1.1628,-1.1406,-1.2072,-1.2707,-1.315,-1.3008,-1.3071,-1.3431,-1.308,-1.3201,-1.3762,-1.3298,-1.2977,-1.2813,-1.2837,-1.2861,-1.2837,-1.2813,-1.254,-1.2127,-1.2054,-1.1707,-1.1292,-1.1834,-1.22,-1.2469,-1.3215,-1.3666,-1.3917,-1.4137,-1.4188,-1.4185,-1.9935,-2.12,-2.2247,-2.2521,-2.2431,-2.21,-2.1565,-2.1759,-2.1696,-2.1,-2.1395,-2.1646,-2.1415,-2.1396,-2.1254,-2.0923,-2.0843,-2.0725,-2.0542,-1.8992,-1.7164,-1.5156,-1.3408,-1.1658,-0.9894,-0.9676,-1.0117,-1.1194,-1.1194,-1.1756,-1.2813,-1.2813,-1.2638,-1.2438,-1.4208,-1.4872,-1.477,-1.6631,-1.7683,-1.811,-1.8179,-1.8458,-1.8804,-1.8804,-1.8804,-1.8804,-1.8804,-1.8249,-1.7366,-1.6193,-1.5235,-1.434,-1.3171,-1.2905,-1.3195,-1.4058,-1.5075,-1.5917,-1.5822,-1.5751,-1.5609,-1.5395,-1.4775,-1.398,-1.302,-1.2756,-1.2619,-1.2165,-1.2005,-1.1761,-1.1243,-1.159,-1.1856,-1.1568,-1.1622,-1.1624,-1.1375,0.0,-1.1516,-1.1369,-1.1826,-1.1994,-1.1585,-1.198,-1.2257,-1.2221,-1.2692,-1.3023,-1.3115,-1.3298,-1.3315,-1.3171,-1.3322,-1.3346,-1.3225,-1.2983,-1.2837,-1.2813,-1.2977,-1.305,-1.305,-1.288,-1.2764,-1.2643,-1.22,-1.1829,-1.159,-1.2127,-1.237,-1.2469,-1.3215,-1.366,-1.3921,-1.412,-1.4206,-1.4195,-2.0376,-2.129,-2.2123,-2.2454,-2.249,-2.2435,-2.2189,-2.2413,-2.2415,-2.1964,-2.201,-2.199,-2.1756,-2.1534,-2.1254,-2.0923,-2.0899,-2.0899,-2.0899,-1.9779,-1.8128,-1.5922,-1.4281,-1.226,-0.9796,-0.9644,-1.0117,-1.1194,-1.1194,-1.1756,-1.2813,-1.2813,-1.2662,-1.2516,-1.4232,-1.4872,-1.48,-1.6873,-1.787,-1.8133,-1.8388,-1.862,-1.8804,-1.8804,-1.8804,-1.8804,-1.8804,-1.8156,-1.7156,-1.6146,-1.5116,-1.413,-1.3123,-1.2813,-1.3001,-1.401,-1.5003,-1.591,-1.6452,-1.6617,-1.6358,-1.5259,-1.5045,-1.4687,-1.3141,-1.2813,-1.2691,-1.2297,-1.2102,-1.1932,-1.1683,-1.1956,-1.2171,-1.2057,-1.196,0.0,-1.164,-1.1677,-1.1701,-1.1688,-1.1975,-1.2087,-1.1848,-1.2525,-1.3052,-1.3197,-1.4184,-1.4836,-1.4986,-1.446,-1.4094,-1.398,-1.3528,-1.3177,-1.2929,-1.2861,-1.2848,-1.2972,-1.3062,-1.317,-1.3311,-1.2964,-1.2638,-1.2346,-1.181,-1.1316,-1.0998,-1.1541,-1.1756,-1.1863,-1.2877,-1.3366,-1.3527,-1.4049,-1.4334,-1.4412,-2.0844,-2.1376,-2.1857,-2.218,-2.2315,-2.2509,-2.2839,-2.2966,-2.2954,-2.2875,-2.2585,-2.2255,-2.1905,-2.1536,-2.1193,-2.0915,-2.0899,-2.0899,-2.0899,-2.0263,-1.8869,-1.6603,-1.4742,-1.2519,-0.985,-0.9895,-1.0388,-1.1194,-1.1316,-1.1878,-1.2813,-1.2813,-1.2934,-1.3219,-1.4567,-1.5324,-1.5656,-1.7482,-1.8272,-1.8295,-1.8643,-1.8804,-1.8804,-1.8804,-1.8658,-1.8442,-1.8442,-1.7661,-1.6476,-1.5704,-1.4789,-1.3817,-1.305,-1.2958,-1.3292,-1.4058,-1.5099,-1.6231,-1.735,-1.7514,-1.6969,-1.5194,-1.514,-1.5062,-1.3359,-1.2837,-1.2643,-1.2443,-1.2151,-1.1902,-1.1902,-1.2078,-1.2219,-1.2294,0.0,-1.2002,-1.2025,-1.1899,-1.1888,-1.2157,-1.2396,-1.2535,-1.2535,-1.3451,-1.416,-1.4443,-1.5475,-1.6218,-1.6513,-1.5298,-1.4454,-1.4129,-1.3285,-1.2856,-1.2861,-1.2764,-1.2875,-1.3196,-1.3272,-1.3379,-1.3576,-1.3172,-1.2669,-1.2125,-1.1605,-1.1145,-1.0777,-1.1071,-1.134,-1.1653,-1.2638,-1.3087,-1.3279,-1.403,-1.4449,-1.4639,-2.1557,-2.1404,-2.1081,-2.1412,-2.1783,-2.2143,-2.2501,-2.2807,-2.2895,-2.2569,-2.2247,-2.1897,-2.1494,-2.1145,-2.0923,-2.0899,-2.0899,-2.0899,-2.0899,-2.0541,-1.9552,-1.7749,-1.4713,-1.2227,-1.0388,-1.0826,-1.112,-1.1194,-1.1712,-1.2248,-1.2813,-1.2813,-1.3292,-1.4226,-1.5283,-1.6264,-1.7203,-1.828,-1.8758,-1.8758,-1.8781,-1.8804,-1.8804,-1.8804,-1.8226,-1.7413,-1.7413,-1.6177,-1.4508,-1.4442,-1.3745,-1.291,-1.2813,-1.3437,-1.4202,-1.4274,-1.5367,-1.6864,-1.8288,-1.8187,-1.7404,-1.6332,-1.5371,-1.4465,-1.363,-1.2934,-1.2419,-1.2395,-1.198,-1.1634,-1.1634,-1.1663,-1.1735,-1.1996,0.0,0.0,-1.2301,-1.2186,-1.2236,-1.2678,-1.3566,-1.413,-1.413,-1.5045,-1.5769,-1.6089,-1.5952,-1.5966,-1.6296,-1.5047,-1.3728,-1.2434,-1.2185,-1.2395,-1.3074,-1.2638,-1.277,-1.3471,-1.373,-1.3844,-1.3861,-1.359,-1.3157,-1.2613,-1.214,-1.1932,-1.1858,-1.1389,-1.1746,-1.2611,-1.2754,-1.3091,-1.3548,-1.4078,-1.4471,-1.4677,-2.1467,-2.1224,-2.101,-2.1333,-2.1735,-2.2104,-2.2461,-2.2601,-2.2641,-2.2533,-2.1997,-2.1565,-2.1412,-2.1105,-2.0899,-2.0899,-2.0899,-2.0899,-2.0899,-2.0772,-1.9421,-1.6492,-1.3819,-1.1904,-1.0929,-1.1712,-1.2285,-1.2624,-1.2823,-1.3197,-1.3727,-1.3223,-1.3457,-1.4352,-1.5536,-1.6507,-1.7366,-1.8373,-1.8804,-1.8804,-1.8804,-1.8804,-1.8804,-1.8804,-1.818,-1.7296,-1.7296,-1.6011,-1.4298,-1.4298,-1.3697,-1.2958,-1.2837,-1.3147,-1.3721,-1.4502,-1.6072,-1.7567,-1.7823,-1.7994,-1.7731,-1.6113,-1.5507,-1.4948,-1.3407,-1.2589,-1.2151,-1.2151,-1.1858,-1.1707,-1.2029,-1.1956,-1.1926,-1.2207,0.0,-1.1898,-1.1896,-1.1828,-1.183,-1.1994,-1.2777,-1.3567,-1.4236,-1.5208,-1.6313,-1.7516,-1.71,-1.6988,-1.745,-1.5741,-1.3956,-1.2244,-1.1987,-1.2163,-1.2768,-1.2617,-1.2917,-1.3702,-1.3824,-1.3968,-1.4058,-1.369,-1.3224,-1.2746,-1.2701,-1.252,-1.2283,-1.2757,-1.3248,-1.3752,-1.3775,-1.4001,-1.4302,-1.4303,-1.4578,-1.4941,-2.126,-2.1086,-2.101,-2.1333,-2.1621,-2.1918,-2.2294,-2.235,-2.235,-2.235,-2.1788,-2.1436,-2.1573,-2.1169,-2.0939,-2.105,-2.0962,-2.0899,-2.0899,-2.0092,-1.8509,-1.6017,-1.3859,-1.2316,-1.1463,-1.2296,-1.3044,-1.3651,-1.382,-1.4316,-1.5051,-1.4094,-1.4263,-1.5425,-1.5976,-1.681,-1.7824,-1.8637,-1.8907,-1.8804,-1.8804,-1.8804,-1.8781,-1.8442,-1.7707,-1.6798,-1.6476,-1.53,-1.3913,-1.3913,-1.3558,-1.3098,-1.3031,-1.334,-1.3956,-1.5045,-1.616,-1.699,-1.6857,-1.7147,-1.7163,-1.5859,-1.5768,-1.5494,-1.3474,-1.2565,-1.2102,-1.2029,-1.1707,-1.1585,-1.1956,-1.1914,-1.189,-1.2087,-1.203,-1.1879,-1.1667,-1.1639,-1.1683,-1.1829,-1.2607,-1.3638,-1.4939,-1.5815,-1.6839,-1.811,-1.7533,-1.7063,-1.6911,-1.5777,-1.4226,-1.2264,-1.2079,-1.2198,-1.2593,-1.253,-1.2956,-1.3935,-1.3957,-1.4072,-1.419,-1.3867,-1.3418,-1.2916,-1.3364,-1.3358,-1.3068,-1.3967,-1.4592,-1.4931,-1.4635,-1.4655,-1.4826,-1.4528,-1.4721,-1.5068,-2.1025,-2.0981,-2.101,-2.1333,-2.1396,-2.1542,-2.1937,-2.2011,-2.2011,-2.2011,-2.1655,-2.155,-2.1937,-2.1338,-2.1034,-2.1365,-2.1097,-2.0899,-2.0891,-1.8333,-1.6805,-1.6805,-1.518,-1.357,-1.2054,-1.2546,-1.3203,-1.4007,-1.4537,-1.5499,-1.678,-1.5443,-1.5892,-1.7762,-1.6749,-1.7237,-1.8828,-1.9217,-1.9161,-1.8804,-1.8804,-1.8804,-1.8689,-1.7677,-1.6687,-1.568,-1.4651,-1.3769,-1.3098,-1.3098,-1.3098,-1.3147,-1.3418,-1.425,-1.5242,-1.5977,-1.5473,-1.4878,-1.5611,-1.5615,-1.546,-1.5724,-1.6136,-1.595,-1.3938,-1.2934,-1.2322,-1.2054,-1.1565,-1.1194,-1.1198,-1.1373,-1.1494,-1.1494,-1.1664,-1.1791,-1.1709,-1.1683,-1.1916,-1.2519,-1.3494,-1.4774,-1.6505,-1.7118,-1.7485,-1.7763,-1.6972,-1.5781,-1.4185,-1.4901,-1.4397,-1.2279,-1.2391,-1.2543,-1.2601,-1.2322,-1.2869,-1.42,-1.42,-1.4207,-1.4193,-1.4193,-1.38,-1.3177,-1.4182,-1.4506,-1.4358,-1.4894,-1.555,-1.6111,-1.5183,-1.4893,-1.4987,-1.4783,-1.4858,-1.5041,-2.0624,-2.0646,-2.0783,-2.132,-2.1396,-2.1542,-2.1937,-2.1759,-2.1573,-2.1573,-2.1272,-2.1089,-2.1219,-2.1018,-2.0939,-2.1042,-2.0955,-2.0788,-2.0567,-1.8892,-1.7485,-1.6478,-1.44,-1.3026,-1.257,-1.3407,-1.4419,-1.5617,-1.577,-1.6565,-1.7906,-1.6951,-1.7116,-1.8211,-1.8059,-1.8436,-1.9217,-1.9352,-1.9161,-1.8804,-1.8804,-1.8804,-1.8689,-1.7677,-1.6687,-1.568,-1.4651,-1.3697,-1.2886,-1.2886,-1.3104,-1.3418,-1.369,-1.44,-1.5027,-1.4693,-1.486,-1.5335,-1.5987,-1.6211,-1.6079,-1.5482,-1.5378,-1.5067,-1.3552,-1.237,-1.1541,-1.1468,-1.0998,-1.0674,-1.0822,-1.1543,-1.1906,-1.1187,-1.1667,-1.1859,-1.104,-1.0936,-1.1115,-1.1616,-1.2493,-1.354,-1.477,-1.5396,-1.5898,-1.6356,-1.5401,-1.4376,-1.3367,-1.3572,-1.3231,-1.2158,-1.2048,-1.2049,-1.218,-1.2299,-1.2962,-1.4209,-1.4209,-1.4213,-1.4198,-1.4189,-1.4179,-1.4219,-1.5322,-1.5818,-1.5917,-1.6781,-1.7216,-1.7223,-1.6066,-1.566,-1.5612,-1.4955,-1.4858,-1.5118,-2.0457,-2.0522,-2.0714,-2.1291,-2.1534,-2.1679,-2.1743,-2.1558,-2.1349,-2.1206,-2.1026,-2.0947,-2.1089,-2.0978,-2.0955,-2.1097,-2.0978,-2.0774,-2.0416,-1.9138,-1.7763,-1.635,-1.4522,-1.3311,-1.2813,-1.3793,-1.495,-1.6288,-1.6701,-1.7679,-1.9178,-1.8157,-1.8225,-1.9186,-1.8891,-1.9071,-1.9606,-1.9741,-1.9495,-1.9058,-1.9185,-1.8824,-1.8102,-1.723,-1.6208,-1.5069,-1.4076,-1.3437,-1.308,-1.308,-1.3413,-1.3823,-1.3883,-1.4238,-1.4514,-1.3913,-1.398,-1.4491,-1.568,-1.5551,-1.5131,-1.5379,-1.5469,-1.5032,-1.3359,-1.2262,-1.1534,-1.1371,-1.0934,-1.0848,-1.1651,-1.2078,-1.2201,-1.1924,-1.2045,-1.1895,-1.1115,-1.1009,-1.1261,-1.1992,-1.2568,-1.3389,-1.469,-1.4944,-1.5051,-1.5156,-1.4223,-1.3432,-1.2971,-1.3075,-1.2935,-1.2462,-1.2334,-1.2266,-1.2228,-1.2344,-1.293,-1.3997,-1.4148,-1.4205,-1.4188,-1.4207,-1.4238,-1.4359,-1.5677,-1.6018,-1.5683,-1.6956,-1.7278,-1.6864,-1.5758,-1.5563,-1.5773,-1.4955,-1.4749,-1.4914,-2.0434,-2.0503,-2.0711,-2.1331,-2.1703,-2.1809,-2.151,-2.1388,-2.1264,-2.0939,-2.0899,-2.1018,-2.1317,-2.1089,-2.1026,-2.1325,-2.1081,-2.0774,-2.0416,-1.9237,-1.7861,-1.6374,-1.5335,-1.4184,-1.2861,-1.3817,-1.4974,-1.6288,-1.7281,-1.866,-2.0359,-1.9113,-1.9201,-2.0415,-1.9502,-1.9412,-1.9956,-2.0282,-2.0036,-1.9518,-1.9821,-1.8922,-1.7346,-1.6639,-1.5535,-1.425,-1.3219,-1.3152,-1.3491,-1.3539,-1.3847,-1.4232,-1.4003,-1.3931,-1.3883,-1.3612,-1.3055,-1.2983,-1.5059,-1.4308,-1.3425,-1.5396,-1.5972,-1.5497,-1.335,-1.2479,-1.2028,-1.1609,-1.1152,-1.1347,-1.2997,-1.2647,-1.2373,-1.3146,-1.259,-1.1973,-1.165,-1.1568,-1.1951,-1.3044,-1.3207,-1.3846,-1.5435,-1.5078,-1.4579,-1.4142,-1.3337,-1.2886,-1.2923,-1.32,-1.3271,-1.3039,-1.2992,-1.2863,-1.2626,-1.2511,-1.2856,-1.3694,-1.3959,-1.413,-1.4218,-1.4137,-1.4003,-1.3951,-1.5401,-1.5383,-1.4451,-1.5954,-1.6202,-1.5533,-1.4643,-1.4779,-1.5418,-1.4769,-1.4539,-1.4489,-2.0408,-2.0158,-2.0309,-2.1638,-2.1457,-2.1306,-2.1801,-2.1385,-2.0986,-2.0907,-2.0899,-2.0923,-2.1002,-2.0939,-2.0923,-2.1002,-2.0939,-2.0774,-2.0416,-1.9887,-1.8594,-1.6399,-1.5832,-1.4782,-1.3074,-1.407,-1.5178,-1.6288,-1.6943,-1.8319,-2.0392,-1.9739,-1.9911,-2.078,-2.0576,-2.0405,-2.0306,-2.0361,-2.0277,-2.0103,-2.0176,-1.9438,-1.8215,-1.7277,-1.6083,-1.4795,-1.3727,-1.3418,-1.3539,-1.3738,-1.3883,-1.4022,-1.416,-1.4202,-1.416,-1.3883,-1.369,-1.3928,-1.5494,-1.5419,-1.4924,-1.5033,-1.4951,-1.4611,-1.3592,-1.2473,-1.1659,-1.1718,-1.0988,-1.0641,-1.1595,-1.2012,-1.2203,-1.2278,-1.2534,-1.2454,-1.1705,-1.1377,-1.1486,-1.2196,-1.2468,-1.2735,-1.3105,-1.3029,-1.312,-1.3472,-1.2876,-1.2724,-1.3187,-1.3136,-1.3137,-1.3236,-1.292,-1.2788,-1.283,-1.2867,-1.3155,-1.3705,-1.334,-1.3642,-1.4471,-1.3586,-1.3612,-1.4359,-1.4491,-1.4833,-1.5321,-1.5569,-1.5437,-1.5028,-1.4427,-1.4092,-1.3896,-1.3937,-1.3977,-1.3936,-2.0797,-2.051,-2.051,-2.1786,-2.1825,-2.1679,-2.1711,-2.1544,-2.1298,-2.0939,-2.0899,-2.0899,-2.0899,-2.0899,-2.0899,-2.0899,-2.0899,-2.082,-2.0655,-2.0179,-1.9117,-1.7369,-1.6464,-1.533,-1.3878,-1.4878,-1.5688,-1.6255,-1.7265,-1.8388,-1.9534,-1.962,-1.9967,-2.0518,-2.0794,-2.0941,-2.1017,-2.0891,-2.079,-2.0729,-2.0908,-2.0124,-1.8764,-1.7738,-1.6503,-1.5175,-1.3936,-1.3588,-1.3738,-1.3997,-1.4088,-1.4112,-1.425,-1.4202,-1.4094,-1.3931,-1.3601,-1.3686,-1.5495,-1.5075,-1.4325,-1.5154,-1.4691,-1.377,-1.2762,-1.2145,-1.1862,-1.2092,-1.1464,-1.1291,-1.2629,-1.2342,-1.2115,-1.2701,-1.2617,-1.235,-1.2032,-1.1837,-1.2005,-1.2713,-1.293,-1.312,-1.3413,-1.344,-1.363,-1.4067,-1.3576,-1.3281,-1.3298,-1.3218,-1.3181,-1.3101,-1.3341,-1.3341,-1.3093,-1.3006,-1.3269,-1.3916,-1.3499,-1.3581,-1.4137,-1.3283,-1.3104,-1.3523,-1.3799,-1.3965,-1.4095,-1.4238,-1.4081,-1.3666,-1.3242,-1.3085,-1.3187,-1.3465,-1.3565,-1.3474,-2.1349,-2.1053,-2.0967,-2.1935,-2.2271,-2.222,-2.1677,-2.1767,-2.169,-2.1058,-2.0939,-2.0899,-2.0899,-2.0899,-2.0899,-2.0899,-2.0899,-2.0899,-2.0899,-2.0282,-1.9446,-1.8425,-1.7042,-1.5787,-1.4711,-1.5573,-1.6079,-1.619,-1.7613,-1.841,-1.8605,-1.9096,-1.9558,-2.0075,-2.0618,-2.1167,-2.1623,-2.1445,-2.1375,-2.1371,-2.1652,-2.0838,-1.9329,-1.8377,-1.7063,-1.5591,-1.437,-1.3918,-1.3931,-1.416,-1.4226,-1.425,-1.4298,-1.404,-1.3768,-1.3815,-1.3224,-1.3002,-1.5109,-1.4282,-1.3261,-1.5168,-1.4578,-1.3194,-1.19,-1.1983,-1.2394,-1.2641,-1.2233,-1.2323,-1.3997,-1.2824,-1.201,-1.3249,-1.2614,-1.2055,-1.2398,-1.2456,-1.2755,-1.3447,-1.3612,-1.3883,-1.4552,-1.4606,-1.4713,-1.4987,-1.46,-1.4121,-1.3613,-1.3587,-1.3491,-1.3278,-1.396,-1.4061,-1.3445,-1.3229,-1.3418,-1.4035,-1.3721,-1.3662,-1.3835,-1.3202,-1.2718,-1.2441,-1.3083,-1.2975,-1.2358,-1.2743,-1.2702,-1.2376,-1.2032,-1.2245,-1.2772,-1.293,-1.3044,-1.2962,-2.1797,-2.1429,-2.1329,-2.2272,-2.2231,-2.2127,-2.2315,-2.1851,-2.1454,-2.1341,-2.1081,-2.0899,-2.0899,-2.0899,-2.0899,-2.0899,-2.0899,-2.0899,-2.0899,-2.0282,-1.9446,-1.8425,-1.7222,-1.5969,-1.4735,-1.505,-1.5565,-1.619,-1.7064,-1.7845,-1.8598,-1.828,-1.8722,-1.9791,-2.0507,-2.1009,-2.1377,-2.1547,-2.1768,-2.198,-2.203,-2.1344,-2.0272,-1.9906,-1.8313,-1.6246,-1.5805,-1.4892,-1.3907,-1.3931,-1.3955,-1.3997,-1.4232,-1.3806,-1.3242,-1.3416,-1.2897,-1.2561,-1.4036,-1.4059,-1.3745,-1.4095,-1.3937,-1.3389,-1.2351,-1.2689,-1.3292,-1.3478,-1.3095,-1.2822,-1.3088,-1.23,-1.179,-1.2377,-1.2009,-1.188,-1.2503,-1.2723,-1.2863,-1.2904,-1.318,-1.3689,-1.4525,-1.4606,-1.4713,-1.4987,-1.4928,-1.4848,-1.4773,-1.4572,-1.4513,-1.4713,-1.4599,-1.4411,-1.4089,-1.4035,-1.3819,-1.3423,-1.3152,-1.3527,-1.4439,-1.3391,-1.2718,-1.2382,-1.2028,-1.1951,-1.2055,-1.2131,-1.2253,-1.2377,-1.2348,-1.2226,-1.2087,-1.1896,-1.1978,-1.2087,-2.2192,-2.1903,-2.1861,-2.2633,-2.249,-2.2334,-2.2493,-2.2061,-2.1637,-2.142,-2.1113,-2.0899,-2.0899,-2.0899,-2.0899,-2.0899,-2.0899,-2.0812,-2.0639,-2.0171,-1.969,-1.9275,-1.7549,-1.6485,-1.6275,-1.5496,-1.5615,-1.6659,-1.6714,-1.713,-1.7884,-1.8208,-1.8724,-1.9464,-2.0529,-2.1395,-2.2013,-2.1954,-2.2106,-2.2358,-2.2182,-2.1828,-2.1277,-2.0255,-1.8885,-1.7331,-1.5969,-1.501,-1.4344,-1.4344,-1.4243,-1.4136,-1.425,-1.4062,-1.3732,-1.3469,-1.3008,-1.2739,-1.3493,-1.3598,-1.364,-1.4168,-1.4258,-1.4078,-1.3636,-1.4045,-1.4418,-1.4062,-1.3786,-1.3563,-1.3335,-1.2489,-1.1858,-1.1944,-1.2134,-1.2465,-1.3022,-1.3665,-1.4054,-1.3979,-1.4127,-1.4451,-1.4996,-1.4899,-1.4961,-1.5261,-1.5122,-1.4794,-1.4299,-1.4462,-1.4396,-1.4072,-1.4358,-1.4255,-1.3689,-1.3359,-1.3147,-1.3071,-1.2604,-1.2654,-1.3142,-1.2463,-1.1923,-1.1455,-1.135,-1.1404,-1.15,-1.1751,-1.1895,-1.2002,-1.2002,-1.1909,-1.1732,-1.1432,-1.1623,-1.1946]},{"header":{"parameterUnit":"m.s-1","parameterCategory":1,"la1":30.6,"la2":28.766,"lo1":-90.7593,"lo2":-88.6598,"dy":0.0162,"dx":0.0183,"nx":116,"ny":114,"refTime":"2023-10-25T12:00:00:Z","depth":0,"parameterNumber":3,"parameterNumberName":"V-component_of_WINDS"},"data":[0.0,0.0,0.0,0.0,0.0,0.0,0.0,0.0,0.0,0.0,0.0,0.0,0.0,0.0,0.0,0.0,0.0,0.0,0.0,0.0,0.0,0.0,0.0,0.0,0.0,0.0,0.0,0.0,0.0,0.0,0.0,0.0,0.0,0.0,0.0,0.0,0.0,0.0,0.0,0.0,0.0,0.0,0.0,0.0,0.0,0.0,0.0,0.0,0.0,0.0,0.0,0.0,0.0,0.0,0.0,0.0,0.0,0.0,0.0,0.0,0.0,0.0,0.0,0.0,0.0,0.0,0.0,0.0,0.0,0.0,0.0,0.0,0.0,0.0,0.0,0.0,0.0,0.0,0.0,0.0,0.0,0.0,0.0,0.0,0.0,0.0,0.0,0.0,0.0,0.0,0.0,0.0,0.0,0.0,0.0,0.0,0.0,0.0,0.0,0.0,0.0,0.0,0.0,0.0,0.0,0.0,0.0,0.0,0.0,0.0,0.0,0.0,0.0,0.0,0.0,0.0,0.0,0.0,0.0,0.0,0.0,0.0,0.0,0.0,0.0,0.0,0.0,0.0,0.0,0.0,0.0,0.0,0.0,0.0,0.0,0.0,0.0,0.0,0.0,0.0,0.0,0.0,0.0,0.0,0.0,0.0,0.0,0.0,0.0,0.0,0.0,0.0,0.0,0.0,0.0,0.0,0.0,0.0,0.0,0.0,0.0,0.0,0.0,0.0,0.0,0.0,0.0,0.0,0.0,0.0,0.0,0.0,0.0,0.0,0.0,0.0,0.0,0.0,0.0,0.0,0.0,0.0,0.0,0.0,0.0,0.0,0.0,0.0,0.0,0.0,0.0,0.0,0.0,0.0,0.0,0.0,0.0,0.0,0.0,0.0,0.0,0.0,0.0,0.0,0.0,0.0,0.0,0.0,0.0,0.0,0.0,0.0,0.0,0.0,0.0,0.0,0.0,0.0,0.0,0.0,0.0,0.0,0.0,0.0,0.0,0.0,0.0,0.0,0.0,0.0,0.0,0.0,0.0,0.0,0.0,0.0,0.0,0.0,0.0,0.0,0.0,0.0,0.0,0.0,0.0,0.0,0.0,0.0,0.0,0.0,0.0,0.0,0.0,0.0,0.0,0.0,0.0,0.0,0.0,0.0,0.0,0.0,0.0,0.0,0.0,0.0,0.0,0.0,0.0,0.0,0.0,0.0,0.0,0.0,0.0,0.0,0.0,0.0,0.0,0.0,0.0,0.0,0.0,0.0,0.0,0.0,0.0,0.0,0.0,0.0,0.0,0.0,0.0,0.0,0.0,0.0,0.0,0.0,0.0,0.0,0.0,0.0,0.0,0.0,0.0,0.0,0.0,0.0,0.0,0.0,0.0,0.0,0.0,0.0,0.0,0.0,0.0,0.0,0.0,0.0,0.0,0.0,0.0,0.0,0.0,0.0,0.0,0.0,0.0,0.0,0.0,0.0,0.0,0.0,0.0,0.0,0.0,0.0,0.0,0.0,0.0,0.0,0.0,0.0,0.0,0.0,0.0,0.0,0.0,0.0,0.0,0.0,0.0,0.0,0.0,0.0,0.0,0.0,0.0,0.0,0.0,0.0,0.0,0.0,0.0,0.0,0.0,0.0,0.0,0.0,0.0,0.0,0.0,0.0,0.0,0.0,0.0,0.0,0.0,0.0,0.0,0.0,0.0,0.0,0.0,0.0,0.0,0.0,0.0,0.0,0.0,0.0,0.0,0.0,0.0,0.0,0.0,0.0,0.0,0.0,0.0,0.0,0.0,0.0,0.0,0.0,0.0,0.0,0.0,0.0,0.0,0.0,0.0,0.0,0.0,0.0,0.0,0.0,0.0,0.0,0.0,0.0,0.0,0.0,0.0,0.0,0.0,0.0,0.0,0.0,0.0,0.0,0.0,0.0,0.0,0.0,0.0,0.0,0.0,0.0,0.0,0.0,0.0,0.0,0.0,0.0,0.0,0.0,0.0,0.0,0.0,0.0,0.0,0.0,0.0,0.0,0.0,0.0,0.0,0.0,0.0,0.0,0.0,0.0,0.0,0.0,0.0,0.0,0.0,0.0,0.0,0.0,0.0,0.0,0.0,0.0,0.0,0.0,0.0,0.0,0.0,0.0,0.0,0.0,0.0,0.0,0.0,0.0,0.0,0.0,0.0,0.0,0.0,0.0,0.0,0.0,0.0,0.0,0.0,0.0,0.0,0.0,0.0,0.0,0.0,0.0,0.0,0.0,0.0,0.0,0.0,0.0,0.0,0.0,0.0,0.0,0.0,0.0,0.0,0.0,0.0,0.0,0.0,0.0,0.0,0.0,0.0,0.0,0.0,0.0,0.0,0.0,0.0,0.0,0.0,0.0,0.0,0.0,0.0,0.0,0.0,0.0,0.0,0.0,0.0,0.0,0.0,0.0,0.0,0.0,0.0,0.0,0.0,0.0,0.0,0.0,0.0,0.0,0.0,0.0,0.0,0.0,0.0,0.0,0.0,0.0,0.0,0.0,0.0,0.0,0.0,0.0,0.0,0.0,0.0,0.0,0.0,0.0,0.0,0.0,0.0,0.0,0.0,0.0,0.0,0.0,0.0,0.0,0.0,0.0,0.0,0.0,0.0,0.0,0.0,0.0,0.0,0.0,0.0,0.0,0.0,0.0,0.0,0.0,0.0,0.0,0.0,0.0,0.0,0.0,0.0,0.0,0.0,0.0,0.0,0.0,0.0,0.0,0.0,0.0,0.0,0.0,0.0,0.0,0.0,0.0,0.0,0.0,0.0,0.0,0.0,0.0,0.0,0.0,0.0,0.0,0.0,0.0,0.0,0.0,0.0,0.0,0.0,0.0,0.0,0.0,0.0,0.0,0.0,0.0,0.0,0.0,0.0,0.0,0.0,0.0,0.0,0.0,0.0,0.0,0.0,0.0,0.0,0.0,0.0,0.0,0.0,0.0,0.0,0.0,0.0,0.0,0.0,0.0,0.0,0.0,0.0,0.0,0.0,0.0,0.0,0.0,0.0,0.0,0.0,0.0,0.0,0.0,0.0,0.0,0.0,0.0,0.0,0.0,0.0,0.0,0.0,0.0,0.0,0.0,0.0,0.0,0.0,0.0,0.0,0.0,0.0,0.0,0.0,0.0,0.0,0.0,0.0,0.0,0.0,0.0,0.0,0.0,0.0,0.0,0.0,0.0,0.0,0.0,0.0,0.0,0.0,0.0,0.0,0.0,0.0,0.0,0.0,0.0,0.0,0.0,0.0,0.0,0.0,0.0,0.0,0.0,0.0,0.0,0.0,0.0,0.0,0.0,0.0,0.0,0.0,0.0,0.0,0.0,0.0,0.0,0.0,0.0,0.0,0.0,0.0,0.0,0.0,0.0,0.0,0.0,0.0,0.0,0.0,0.0,0.0,0.0,0.0,0.0,0.0,0.0,0.0,0.0,0.0,0.0,0.0,0.0,0.0,0.0,0.0,0.0,0.0,0.0,0.0,0.0,0.0,0.0,0.0,0.0,0.0,0.0,0.0,0.0,0.0,0.0,0.0,0.0,0.0,0.0,0.0,0.0,0.0,0.0,0.0,0.0,0.0,0.0,0.0,0.0,0.0,0.0,0.0,0.0,0.0,0.0,0.0,0.0,0.0,0.0,0.0,0.0,0.0,0.0,0.0,0.0,0.0,0.0,0.0,0.0,0.0,0.0,0.0,0.0,0.0,0.0,0.0,0.0,0.0,0.0,0.0,0.0,0.0,0.0,0.0,0.0,0.0,0.0,0.0,0.0,0.0,0.0,0.0,0.0,0.0,0.0,0.0,0.0,0.0,0.0,0.0,0.0,0.0,0.0,0.0,0.0,0.0,0.0,0.0,0.0,0.0,0.0,0.0,0.0,0.0,0.0,0.0,0.0,0.0,0.0,0.0,0.0,0.0,0.0,0.0,0.0,0.0,0.0,0.0,0.0,0.0,0.0,0.0,0.0,0.0,0.0,0.0,0.0,0.0,0.0,0.0,0.0,0.0,0.0,0.0,0.0,0.0,0.0,0.0,0.0,0.0,0.0,0.0,0.0,0.0,0.0,0.0,0.0,0.0,0.0,0.0,0.0,0.0,0.0,0.0,0.0,0.0,0.0,0.0,0.0,0.0,0.0,0.0,0.0,0.0,0.0,0.0,0.0,0.0,0.0,0.0,0.0,0.0,0.0,0.0,0.0,0.0,0.0,0.0,0.0,0.0,0.0,0.0,0.0,0.0,0.0,0.0,0.0,0.0,0.0,0.0,0.0,0.0,0.0,0.0,0.0,0.0,0.0,0.0,0.0,0.0,0.0,0.0,0.0,0.0,0.0,0.0,0.0,0.0,0.0,0.0,0.0,0.0,0.0,0.0,0.0,0.0,0.0,0.0,0.0,0.0,0.0,0.0,0.0,0.0,0.0,0.0,0.0,0.0,0.0,0.0,0.0,0.0,0.0,0.0,0.0,0.0,0.0,0.0,0.0,0.0,0.0,0.0,0.0,0.0,0.0,0.0,0.0,0.0,0.0,0.0,0.0,0.0,0.0,0.0,0.0,0.0,0.0,0.0,0.0,0.0,0.0,0.0,0.0,0.0,0.0,0.0,0.0,0.0,0.0,0.0,0.0,0.0,0.0,0.0,0.0,0.0,0.0,0.0,0.0,0.0,0.0,0.0,0.0,0.0,0.0,0.0,0.0,0.0,0.0,0.0,0.0,0.0,0.0,0.0,0.0,0.0,0.0,0.0,0.0,0.0,0.0,0.0,0.0,0.0,0.0,0.0,0.0,0.0,0.0,0.0,0.0,0.0,0.0,0.0,0.0,0.0,0.0,0.0,0.0,0.0,0.0,0.0,0.0,0.0,0.0,0.0,0.0,0.0,0.0,0.0,0.0,0.0,0.0,0.0,0.0,0.0,0.0,0.0,0.0,0.0,0.0,0.0,0.0,0.0,0.0,0.0,0.0,0.0,0.0,0.0,0.0,0.0,0.0,0.0,0.0,0.0,0.0,0.0,0.0,0.0,0.0,0.0,0.0,0.0,0.0,0.0,0.0,0.0,0.0,0.0,0.0,0.0,0.0,0.0,0.0,0.0,0.0,0.0,0.0,0.0,0.0,0.0,0.0,0.0,0.0,0.0,0.0,0.0,0.0,0.0,0.0,0.0,0.0,0.0,0.0,0.0,0.0,0.0,0.0,0.0,0.0,0.0,0.0,0.0,0.0,0.0,0.0,0.0,0.0,0.0,0.0,0.0,0.0,0.0,0.0,0.0,0.0,0.0,0.0,0.0,0.0,0.0,0.0,0.0,0.0,0.0,0.0,0.0,0.0,0.0,0.0,0.0,0.0,0.0,0.0,0.0,0.0,0.0,0.0,0.0,0.0,0.0,0.0,0.0,0.0,0.0,0.0,0.0,0.0,0.0,0.0,0.0,0.0,0.0,0.0,0.0,0.0,0.0,0.0,0.0,0.0,0.0,0.0,0.0,0.0,0.0,0.0,0.0,0.0,0.0,0.0,0.0,0.0,0.0,0.0,0.0,0.0,0.0,0.0,0.0,0.0,0.0,0.0,0.0,0.0,0.0,0.0,0.0,0.0,0.0,0.0,0.0,0.0,0.0,0.0,0.0,0.0,0.0,0.0,0.0,0.0,0.0,0.0,0.0,0.0,0.0,0.0,0.0,0.0,0.0,0.0,0.0,0.0,0.0,0.0,0.0,0.0,0.0,0.0,0.0,0.0,0.0,0.0,0.0,0.0,0.0,0.0,0.0,0.0,0.0,0.0,0.0,0.0,0.0,0.0,0.0,0.0,0.0,0.0,0.0,0.0,0.0,0.0,0.0,0.0,0.0,0.0,0.0,0.0,0.0,0.0,0.0,0.0,0.0,0.0,0.0,0.0,0.0,0.0,0.0,0.0,0.0,0.0,0.0,0.0,0.0,0.0,0.0,0.0,0.0,0.0,0.0,0.0,0.0,0.0,0.0,0.0,0.0,0.0,0.0,0.0,0.0,0.0,0.0,0.0,0.0,0.0,0.0,0.0,0.0,0.0,0.0,0.0,0.0,0.0,0.0,0.0,0.0,0.0,0.0,0.0,0.0,0.0,0.0,0.0,2.7823,0.0,0.0,0.0,0.0,0.0,0.0,0.0,0.0,0.0,0.0,0.0,0.0,0.0,0.0,0.0,0.0,0.0,0.0,0.0,0.0,0.0,0.0,0.0,0.0,0.0,0.0,0.0,0.0,0.0,0.0,0.0,0.0,0.0,0.0,0.0,0.0,0.0,0.0,2.3452,2.4165,2.4928,2.5747,2.639,2.5929,2.4607,0.0,0.0,0.0,0.0,0.0,0.0,0.0,0.0,0.0,0.0,0.0,0.0,0.0,0.0,0.0,0.0,0.0,0.0,0.0,0.0,0.0,0.0,0.0,0.0,0.0,0.0,0.0,0.0,0.0,0.0,0.0,0.0,0.0,0.0,0.0,0.0,0.0,0.0,0.0,0.0,0.0,0.0,0.0,0.0,0.0,0.0,0.0,0.0,0.0,0.0,0.0,0.0,0.0,0.0,0.0,0.0,0.0,0.0,0.0,0.0,0.0,0.0,0.0,0.0,0.0,0.0,0.0,0.0,0.0,0.0,0.0,2.8255,0.0,0.0,0.0,0.0,0.0,0.0,0.0,0.0,0.0,0.0,0.0,0.0,0.0,0.0,0.0,0.0,0.0,0.0,0.0,0.0,0.0,0.0,0.0,2.41,2.4617,2.4771,2.416,2.4122,0.0,0.0,0.0,0.0,0.0,0.0,2.4321,2.4352,2.4458,2.4637,2.5984,2.7608,2.9471,3.0293,2.901,2.5966,2.5548,0.0,0.0,0.0,0.0,0.0,0.0,0.0,0.0,0.0,0.0,0.0,0.0,0.0,0.0,0.0,0.0,0.0,0.0,0.0,0.0,0.0,0.0,0.0,0.0,0.0,0.0,0.0,0.0,0.0,0.0,0.0,0.0,0.0,0.0,0.0,0.0,0.0,0.0,0.0,0.0,0.0,0.0,0.0,0.0,0.0,0.0,0.0,0.0,0.0,0.0,0.0,0.0,0.0,0.0,0.0,0.0,0.0,0.0,0.0,0.0,0.0,0.0,0.0,3.1974,3.1978,3.2607,3.3416,3.3433,3.2786,3.2247,3.2019,3.1843,2.9487,0.0,0.0,0.0,0.0,0.0,0.0,0.0,0.0,0.0,0.0,0.0,0.0,0.0,0.0,0.0,0.0,0.0,0.0,0.0,2.4573,2.3663,2.4286,2.4518,2.3914,2.3925,2.4042,2.4249,0.0,0.0,0.0,0.0,0.0,2.4395,2.4341,2.4714,2.5527,2.8292,3.0593,3.2431,3.2568,3.2352,3.1786,2.9462,2.9197,3.0307,0.0,0.0,0.0,0.0,0.0,0.0,0.0,0.0,0.0,0.0,0.0,0.0,0.0,0.0,0.0,0.0,0.0,0.0,0.0,0.0,0.0,0.0,0.0,0.0,0.0,0.0,0.0,0.0,0.0,0.0,0.0,0.0,0.0,0.0,0.0,0.0,0.0,0.0,0.0,0.0,0.0,2.2514,2.4973,0.0,0.0,0.0,0.0,0.0,0.0,0.0,0.0,0.0,0.0,0.0,0.0,0.0,2.9726,3.139,3.4466,3.5793,3.543,3.8923,4.0261,3.9678,4.0555,4.0873,4.0706,3.915,0.0,3.2844,3.1796,0.0,0.0,0.0,0.0,0.0,0.0,0.0,0.0,0.0,0.0,0.0,0.0,0.0,0.0,0.0,0.0,0.0,0.0,0.0,0.0,0.0,2.5958,2.6528,2.553,2.7619,2.8094,2.5931,2.6674,0.0,0.0,0.0,2.4568,2.4568,2.4549,2.5903,2.8734,3.1986,3.451,3.6324,3.6894,3.7179,3.7123,3.505,3.2894,3.0662,2.8515,0.0,0.0,0.0,0.0,0.0,0.0,0.0,0.0,0.0,0.0,0.0,0.0,0.0,0.0,0.0,0.0,0.0,0.0,0.0,0.0,0.0,0.0,0.0,0.0,0.0,0.0,0.0,0.0,0.0,0.0,0.0,0.0,0.0,0.0,0.0,0.0,0.0,0.0,0.0,2.3387,2.5283,2.5526,2.6358,2.6429,0.0,0.0,0.0,0.0,0.0,0.0,0.0,0.0,0.0,3.1464,3.3086,3.4726,3.641,3.9852,4.1649,4.176,4.3618,4.4281,4.3943,4.4314,4.4495,4.4441,4.3686,4.2252,4.0126,3.59,3.4371,3.4552,0.0,0.0,0.0,0.0,3.361,3.4923,0.0,0.0,0.0,0.0,0.0,0.0,0.0,0.0,0.0,0.0,0.0,0.0,2.5614,2.7766,2.8949,2.8118,3.0685,3.1043,2.7994,2.8355,2.7457,2.4719,2.4654,2.467,2.467,2.5792,2.8492,3.2809,3.5829,3.8226,3.9998,4.0759,4.1151,4.1135,3.9693,3.6517,3.2112,3.0192,2.8705,2.756,0.0,0.0,0.0,0.0,0.0,0.0,0.0,0.0,0.0,0.0,0.0,0.0,0.0,0.0,0.0,0.0,0.0,0.0,0.0,0.0,0.0,0.0,0.0,0.0,0.0,0.0,0.0,0.0,0.0,0.0,0.0,0.0,0.0,0.0,0.0,0.0,0.0,2.5789,2.7715,2.6278,2.7713,2.8227,0.0,0.0,0.0,0.0,0.0,0.0,3.1391,3.2517,3.3816,3.5351,3.7929,4.0078,4.1747,4.4349,4.5973,4.6618,4.6776,4.6874,4.6874,4.7108,4.7081,4.6876,4.7092,4.6936,4.6101,4.0494,3.8316,3.8468,3.7673,3.7689,3.8128,3.8049,3.8875,3.9959,0.0,0.0,0.0,0.0,0.0,0.0,0.0,0.0,0.0,0.0,0.0,2.7249,2.6527,2.9217,3.117,3.1427,3.1057,3.0483,2.9709,2.7486,2.5708,2.4648,2.4607,2.4607,2.4607,2.8797,3.3095,3.7454,3.9365,4.1174,4.2891,4.2999,4.306,4.3023,4.2051,4.02,3.7509,3.3128,3.1256,3.0941,2.7555,0.0,0.0,0.0,0.0,0.0,0.0,0.0,0.0,0.0,0.0,0.0,0.0,0.0,0.0,0.0,0.0,0.0,0.0,0.0,0.0,0.0,0.0,0.0,0.0,0.0,0.0,0.0,0.0,0.0,0.0,0.0,0.0,0.0,0.0,0.0,0.0,0.0,0.0,2.7871,3.1478,0.0,0.0,0.0,0.0,3.1777,3.263,3.4219,3.6674,3.8424,4.0875,4.4249,4.4511,4.5425,4.7109,4.7298,4.74,4.7457,4.827,4.8665,4.8702,4.9525,4.9448,4.8722,4.9543,4.8957,4.7276,4.5197,4.4871,4.5439,4.2878,4.2926,4.4159,4.1706,4.2432,4.4433,0.0,0.0,0.0,0.0,0.0,0.0,0.0,0.0,2.5808,2.5638,2.7529,2.8976,2.924,3.2666,3.5036,3.527,3.647,3.6262,3.4065,3.1407,2.9284,2.782,2.6188,2.6386,2.8666,3.2572,3.613,3.9279,4.1618,4.3382,4.4573,4.4658,4.4696,4.4713,4.3948,4.279,4.1154,3.719,3.431,3.2234,3.0278,2.8554,0.0,0.0,0.0,0.0,0.0,0.0,0.0,0.0,0.0,0.0,0.0,0.0,0.0,0.0,0.0,0.0,0.0,0.0,0.0,0.0,0.0,0.0,0.0,0.0,0.0,0.0,0.0,0.0,0.0,0.0,0.0,0.0,0.0,0.0,0.0,0.0,0.0,3.1677,3.4725,0.0,3.4423,3.4933,3.5609,3.6189,3.7545,3.924,4.1278,4.246,4.4167,4.653,4.7143,4.8001,4.9165,4.9724,5.0009,5.0001,5.0312,5.0467,5.0485,5.0799,5.0743,5.0468,5.1379,5.1399,5.0721,5.0082,4.8723,4.6873,4.5266,4.5742,4.7155,4.5627,4.6714,4.8742,0.0,0.0,0.0,0.0,0.0,0.0,0.0,2.5142,2.6024,2.6456,2.8788,3.0806,3.1824,3.5742,3.8471,3.8947,3.9886,3.922,3.6327,3.2859,3.0208,2.8612,2.7834,2.9092,3.2689,3.5956,3.8837,4.1352,4.338,4.4694,4.5326,4.5395,4.5485,4.5558,4.514,4.4433,4.3458,4.1031,3.7927,3.4488,3.2864,3.1227,2.9466,0.0,0.0,0.0,0.0,0.0,0.0,0.0,0.0,0.0,0.0,0.0,0.0,0.0,0.0,0.0,0.0,0.0,0.0,0.0,0.0,0.0,0.0,0.0,0.0,0.0,0.0,0.0,0.0,0.0,0.0,0.0,0.0,0.0,0.0,0.0,3.427,3.506,3.7565,3.9069,3.8658,3.9039,3.9792,4.1003,4.2438,4.3757,4.4924,4.6051,4.7185,4.8348,4.92,4.9924,5.0523,5.1109,5.1397,5.1369,5.139,5.1386,5.1376,5.1667,5.1463,5.0987,5.2468,5.2744,5.2176,5.2471,5.1434,4.9531,4.8242,4.8686,4.9893,4.8956,4.9937,5.1503,0.0,0.0,0.0,0.0,0.0,0.0,2.5342,2.5756,2.627,2.765,3.0303,3.2612,3.4079,3.8234,4.1286,4.2258,4.0768,3.8702,3.622,3.1386,2.8106,2.693,2.95,3.266,3.6321,3.8876,4.1382,4.389,4.4766,4.5199,4.5235,4.5333,4.5457,4.5576,4.5631,4.5227,4.4465,4.4469,4.2058,3.7957,3.5277,3.406,3.3422,0.0,0.0,0.0,0.0,0.0,0.0,0.0,0.0,0.0,0.0,0.0,0.0,0.0,0.0,0.0,0.0,0.0,0.0,0.0,0.0,0.0,0.0,0.0,0.0,0.0,0.0,0.0,0.0,0.0,0.0,0.0,0.0,0.0,3.1334,3.5604,3.853,3.7895,4.0119,4.1832,4.2161,4.3046,4.4351,4.6155,4.7056,4.7558,4.7584,4.9148,5.0072,5.0105,5.0857,5.1276,5.1352,5.137,5.1354,5.13,5.1397,5.1395,5.1378,5.2234,5.1745,5.0361,5.2861,5.298,5.1492,5.2334,5.3184,5.3754,5.1948,5.1793,5.248,5.158,5.1863,5.2583,0.0,0.0,0.0,0.0,0.0,0.0,2.3781,2.4514,2.5284,2.6247,3.0344,3.3734,3.5269,3.9995,4.3137,4.3367,4.0795,3.8555,3.718,3.2213,2.9683,3.0516,3.3129,3.6541,4.0741,4.2806,4.4478,4.5761,4.662,4.6745,4.617,4.6852,4.7187,4.7162,4.7285,4.6877,4.6075,4.6124,4.4765,4.2324,3.9643,3.7347,3.5359,0.0,0.0,0.0,0.0,0.0,0.0,0.0,0.0,0.0,0.0,0.0,0.0,0.0,0.0,0.0,0.0,0.0,0.0,0.0,0.0,0.0,0.0,0.0,0.0,0.0,0.0,0.0,0.0,0.0,0.0,0.0,0.0,3.6634,3.6677,3.8432,4.052,4.2713,4.4933,4.6336,4.6484,4.7563,4.8209,4.8098,4.8314,4.8709,4.9287,4.9167,4.9369,5.0018,5.0108,5.0219,5.0378,5.0923,5.1225,5.132,5.1953,5.2265,5.2273,5.3149,5.3284,5.2922,5.4258,5.4569,5.4148,5.4321,5.4584,5.4664,5.2891,5.2369,5.2578,5.23,5.2385,5.2675,0.0,0.0,0.0,0.0,0.0,0.0,2.3622,2.4224,2.5064,2.6488,3.1035,3.4848,3.6667,4.1092,4.3778,4.3371,4.0973,3.8428,3.595,3.2513,3.1532,3.3717,3.6967,4.0276,4.3626,4.5418,4.6516,4.6956,4.7467,4.7472,4.7003,4.7567,4.7829,4.7851,4.7928,4.7696,4.7255,4.7295,4.669,4.5592,4.4116,4.1695,3.8779,3.6967,3.5699,3.4712,3.3222,3.3108,3.3198,3.0307,0.0,0.0,0.0,0.0,0.0,0.0,0.0,0.0,0.0,0.0,0.0,0.0,0.0,0.0,0.0,0.0,0.0,0.0,0.0,0.0,0.0,0.0,0.0,0.0,3.6981,4.0273,4.1812,4.2122,4.3161,4.5779,4.7256,4.8236,4.8701,4.9487,4.9942,4.9846,4.9852,5.0209,5.1047,5.0537,5.0293,5.0495,5.062,5.0448,4.9879,5.0684,5.1139,5.1223,5.2159,5.2604,5.2643,5.389,5.4054,5.3444,5.5018,5.5308,5.4675,5.4988,5.5551,0.0,0.0,0.0,0.0,0.0,5.3185,5.2667,0.0,0.0,0.0,0.0,0.0,0.0,2.4235,2.45,2.5356,2.7779,3.1974,3.5572,3.7739,4.1412,4.3356,4.2479,4.0735,3.7909,3.3664,3.2547,3.3528,3.683,4.0701,4.3672,4.5592,4.7175,4.7914,4.7759,4.786,4.7883,4.7861,4.7943,4.8058,4.8171,4.8266,4.8255,4.813,4.8322,4.8184,4.7882,4.8151,4.6242,4.2886,3.9901,3.8901,3.8785,3.6304,3.5406,3.5143,3.3584,0.0,0.0,0.0,0.0,0.0,0.0,0.0,0.0,0.0,0.0,0.0,0.0,0.0,0.0,0.0,0.0,0.0,0.0,0.0,0.0,0.0,0.0,0.0,0.0,3.9791,4.2775,4.6039,4.5923,4.6079,4.7589,4.7968,4.8514,4.9514,4.9859,5.0406,5.1293,5.1453,5.1842,5.2621,0.0,0.0,0.0,0.0,5.1215,4.9799,5.0633,5.1062,5.1099,5.2205,5.2736,5.2795,5.4546,5.4484,5.3148,5.5418,5.5567,5.4249,5.4952,5.6151,5.7325,5.511,5.4578,5.5044,5.5086,5.4125,5.2877,0.0,0.0,0.0,0.0,0.0,0.0,2.4235,2.45,2.5659,2.8844,3.193,3.4548,3.6396,3.9823,4.1604,4.0677,3.7752,3.5201,3.3429,3.3088,3.5398,4.0904,4.3266,4.5637,4.8212,4.9215,4.9387,4.8733,4.9428,4.9409,4.8769,4.9478,4.9818,4.9874,5.0581,5.0128,4.8979,5.0331,5.0103,4.8888,4.9649,4.8245,4.5581,4.4465,4.3532,4.2534,4.0101,4.0206,4.0853,3.6623,3.6179,3.6786,3.3278,3.0913,0.0,0.0,0.0,0.0,0.0,0.0,0.0,0.0,0.0,0.0,0.0,0.0,0.0,0.0,0.0,0.0,0.0,0.0,0.0,3.9007,4.2205,4.4886,4.6235,4.7422,4.8305,4.8688,4.8818,4.9253,5.0211,5.1026,5.1573,5.1775,5.239,5.2831,5.2985,5.2254,5.1751,5.162,5.0928,5.0504,5.035,5.0625,5.085,5.1049,0.0,0.0,5.3625,5.5361,5.5981,5.5694,5.6188,5.6227,5.592,5.6083,5.6346,5.6665,5.6862,5.5779,5.4156,5.4847,5.4844,5.4436,0.0,0.0,0.0,0.0,0.0,0.0,2.4179,2.4138,2.5056,2.8409,3.0838,3.2916,3.4666,3.7146,3.8363,3.7527,3.4997,3.3971,3.5221,3.6066,3.8856,4.4122,4.5992,4.7743,4.9558,4.9978,5.0015,4.965,5.0093,5.0074,4.965,5.0099,5.0531,5.0965,5.1404,5.1372,5.1015,5.1849,5.1734,5.1042,5.1486,5.0606,4.8911,4.7761,4.6967,4.6287,4.4633,4.4321,4.4183,4.1124,4.0124,3.9671,3.6882,3.4687,3.2685,0.0,0.0,0.0,0.0,0.0,0.0,0.0,0.0,0.0,0.0,0.0,0.0,0.0,0.0,3.4827,0.0,0.0,3.985,4.1994,4.458,4.6907,4.8654,4.8839,4.8846,4.8932,4.9786,5.0544,5.1011,5.1929,5.2337,5.1936,5.3041,5.3562,5.3113,5.3383,5.3179,5.2383,5.1731,5.1067,5.0363,5.0874,5.1031,5.0828,5.2705,5.3409,5.3094,5.4438,5.5297,5.5705,5.5705,5.5947,5.6347,5.6353,5.5839,5.5182,5.6491,5.5952,5.4553,5.5341,5.5348,5.4873,0.0,0.0,0.0,0.0,0.0,0.0,0.0,2.4148,2.4877,2.8201,2.9948,3.1449,3.2902,3.4349,3.4795,3.3825,3.282,3.3673,3.7004,3.9161,4.2208,4.6412,4.8383,4.9714,5.0423,5.0607,5.072,5.0799,5.0799,5.0799,5.0799,5.0799,5.1162,5.1843,5.2015,5.2346,5.283,5.3155,5.3236,5.3145,5.3317,5.2996,5.2233,5.0489,4.9512,4.8987,4.8105,4.6959,4.5729,4.4974,4.343,4.1573,4.0181,3.8551,3.6477,3.3061,3.241,0.0,0.0,0.0,0.0,0.0,0.0,0.0,0.0,0.0,3.6553,3.6282,3.6944,3.7837,3.8663,4.0531,4.2673,4.489,4.672,4.8559,5.0556,4.9865,4.9124,4.9087,5.0522,5.153,5.153,5.2568,5.2951,5.2303,5.3504,5.4023,5.3491,5.4484,5.447,5.3174,5.2927,5.2106,5.0621,5.1375,5.1491,5.097,5.2582,5.3031,5.2484,5.3291,5.4129,5.4967,5.4967,5.5378,5.6012,5.5848,5.4957,5.3832,5.5258,5.5497,5.5161,5.5912,5.5754,5.5104,0.0,0.0,0.0,0.0,0.0,0.0,0.0,0.0,2.6632,3.0047,3.0738,3.1036,3.1421,3.2198,3.1952,3.0083,3.1911,3.4234,3.6786,4.0248,4.3729,4.7138,4.9752,5.1174,5.1256,5.2031,5.245,5.2524,5.2524,5.2524,5.2524,5.2524,5.2575,5.269,5.3473,5.3435,5.2906,5.4448,5.4677,5.4034,5.4817,5.5065,5.481,5.3052,5.1012,4.8999,4.8116,4.6572,4.5034,4.5622,4.4526,4.2831,4.2294,4.1051,3.9075,3.5461,3.3645,3.2219,2.9539,2.9606,3.1152,3.4253,3.5073,3.5952,0.0,0.0,4.1544,4.2253,4.3183,4.4115,4.4877,4.519,4.5673,4.6672,4.8352,4.936,4.8882,4.9922,5.0478,4.9778,5.0667,5.1337,5.1337,5.2729,5.3601,5.3506,5.367,5.4057,5.4665,5.4173,5.3806,5.363,5.3587,5.3082,5.2065,5.2283,5.2323,5.2209,5.2831,5.3087,5.3023,5.3375,5.3995,5.4824,5.4824,5.4907,5.4993,5.4222,5.3821,5.3718,5.3909,5.442,5.5108,5.5913,5.6149,5.5831,0.0,0.0,0.0,0.0,0.0,0.0,0.0,0.0,2.5438,2.8795,2.8446,2.8292,2.9385,2.9308,2.8934,2.8412,3.0816,3.3657,3.6694,4.1253,4.5141,4.8087,5.0716,5.2113,5.2171,5.252,5.2507,5.2098,5.2098,5.1849,5.1353,5.1353,5.1874,5.283,5.3168,5.3702,5.4352,5.5091,5.5186,5.4887,5.5244,5.4791,5.3817,5.3078,5.095,4.8217,4.7228,4.5303,0.0,4.3396,4.2146,4.0674,4.1406,4.0573,3.8829,3.6241,3.4497,3.3237,3.2572,3.3143,3.448,3.6795,3.856,4.0157,4.1829,4.3222,4.4303,4.4852,4.5614,4.6288,4.6635,4.6958,4.7317,0.0,4.8732,4.9532,4.9799,4.9965,4.9992,4.9766,5.0156,5.0632,5.1195,5.2665,5.3216,5.2304,5.3441,5.372,5.2687,5.3161,5.349,5.3528,5.301,5.2733,5.2779,5.2828,5.2631,5.2222,5.2614,5.2576,5.2158,5.2008,5.2409,5.3265,5.3816,5.434,5.4738,5.3344,5.341,5.4237,5.3227,5.3679,5.4931,5.5353,5.5812,5.6081,0.0,0.0,0.0,0.0,0.0,0.0,0.0,0.0,0.0,0.0,2.6428,2.6098,2.7103,2.6409,2.6193,2.6997,2.9523,3.2564,3.6038,4.1032,4.5217,4.8321,5.0939,5.2546,5.3048,5.3315,5.308,5.2283,5.227,5.1934,5.1323,5.1305,5.2062,5.3442,5.3442,5.4155,5.5351,5.5371,5.5396,5.5377,5.5129,5.4295,5.3059,5.2123,4.9954,4.7257,4.6222,4.3853,4.114,4.0805,3.95,3.8185,3.9133,3.8861,3.7775,3.5634,3.3945,3.3128,3.4713,3.5696,3.6884,3.9486,4.1936,4.3915,4.4621,4.5798,4.6861,4.7328,4.7749,4.8064,4.8133,4.8457,4.8699,4.8543,4.9113,4.9779,5.031,4.9798,4.9284,4.9048,4.8815,4.8988,4.9757,5.1625,5.2382,5.1324,5.2725,5.2907,5.1284,5.2367,5.2965,5.2798,5.2709,5.2677,5.2744,5.3169,5.3124,5.262,5.2473,5.2175,5.1705,5.1308,5.1481,5.2151,5.281,5.3582,5.4296,5.2692,5.2921,5.414,5.2771,5.3237,5.4645,5.4742,5.526,5.5757,0.0,0.0,0.0,0.0,0.0,0.0,0.0,0.0,0.0,0.0,0.0,2.5402,2.4602,2.3796,2.3891,2.5341,2.7976,3.1025,3.4454,3.8901,4.3278,4.7456,5.0206,5.2367,5.3919,5.4855,5.4881,5.4027,5.3951,5.3919,5.388,5.3821,5.4232,5.5031,5.5106,5.5159,5.5216,5.5332,5.5396,5.532,5.4486,5.4104,5.3702,5.0441,4.802,4.6222,4.5343,4.2392,3.885,3.8516,3.7457,3.6186,3.564,3.6149,3.6366,3.3383,3.1413,3.1029,3.4752,3.5611,3.6733,4.2101,4.4631,4.6298,4.8124,4.9078,4.9798,5.059,5.057,5.0413,5.0477,5.0403,5.0058,4.922,4.9903,5.026,4.9466,4.9313,4.8799,4.745,4.648,4.6027,0.0,4.9227,5.116,5.1374,5.14,5.1482,5.1666,5.2156,5.2076,5.1295,5.3254,5.3522,5.1865,5.3322,5.4026,5.3926,5.2573,5.2043,5.2263,5.2053,5.2005,5.2094,5.2063,5.2577,5.3354,5.2127,5.2157,5.2926,5.2546,5.3134,5.4227,5.4213,5.4532,5.469,0.0,0.0,0.0,0.0,0.0,0.0,0.0,0.0,0.0,0.0,0.0,0.0,0.0,0.0,0.0,0.0,2.6934,2.9229,3.2652,3.7001,4.0878,4.4078,4.7886,5.0449,5.1514,5.2429,5.2704,5.2361,5.2342,5.2018,5.1408,5.1389,5.1827,5.2652,5.2678,5.2997,5.3544,5.3588,5.362,5.355,5.2136,5.1471,5.0888,4.6998,4.4322,4.2233,0.0,3.6667,3.4883,3.4016,3.304,3.2275,3.2557,3.2563,3.2052,2.9953,3.1378,3.4031,3.5929,3.9037,4.2404,4.5331,4.7548,4.9186,4.9826,5.0162,5.0393,5.0476,4.8812,4.7281,4.7116,4.5984,4.5364,4.6246,4.7009,4.7672,4.8238,4.8107,4.7504,4.6218,4.6259,0.0,0.0,0.0,0.0,4.9027,5.0264,5.0719,5.0004,5.0495,5.0867,5.0998,5.2176,5.2651,5.2334,5.3367,5.3898,5.3851,5.2485,5.1405,5.0646,5.0564,5.0555,5.0598,5.1109,5.1833,5.264,5.2228,5.2919,5.4158,5.3526,5.3828,5.4613,5.4265,5.428,5.4533,0.0,0.0,0.0,0.0,0.0,0.0,0.0,0.0,0.0,0.0,0.0,0.0,0.0,0.0,0.0,0.0,0.0,2.7718,3.0563,3.4196,3.7559,4.0501,4.3933,4.6287,4.7348,4.829,4.874,4.8692,4.9058,4.9084,4.8769,4.9049,4.9619,5.0449,5.0754,5.1218,5.1751,5.1491,5.1413,5.1295,4.9207,4.8096,4.7239,4.3302,4.0421,0.0,3.4629,3.2463,3.1093,3.036,3.0029,2.9879,2.9678,2.9483,2.9461,3.0058,3.2488,3.5659,3.8796,4.229,4.5652,4.8168,4.9957,5.1075,5.0973,5.0739,5.0403,4.9991,4.7933,4.5974,4.5214,4.3709,4.2839,4.3616,4.4063,4.4946,4.6687,4.6736,4.645,4.6053,4.6296,4.6407,0.0,0.0,0.0,4.745,4.8919,4.9511,4.8818,4.9578,5.0189,5.0517,5.1475,5.2038,5.2215,5.2977,5.3357,5.3367,5.2302,5.121,5.0078,4.9888,4.985,4.9935,5.038,5.1114,5.1987,5.2089,5.2976,5.4216,5.3867,5.4121,5.467,5.4426,5.4518,5.4774,0.0,0.0,0.0,0.0,0.0,0.0,0.0,0.0,0.0,0.0,0.0,0.0,0.0,0.0,0.0,0.0,0.0,0.0,2.8252,3.0645,3.3477,3.6761,3.8569,4.0187,4.1688,4.281,4.3352,4.3331,4.4387,4.5297,4.6069,4.6764,4.7486,4.8281,4.9098,4.9505,4.9512,4.883,4.8552,4.8382,4.5607,4.4062,4.302,3.9433,3.645,3.3987,3.2277,3.0058,2.7921,2.7884,2.859,2.9236,2.7548,2.7597,2.9125,3.3486,3.4787,3.6279,4.302,4.5249,4.6581,5.0462,5.1648,5.1794,5.1516,5.0686,4.976,4.9082,4.7689,4.6103,0.0,0.0,4.2244,4.1549,4.1516,4.2489,4.5084,4.5449,4.5791,0.0,0.0,0.0,0.0,0.0,0.0,4.6838,0.0,4.8102,4.8269,4.9465,5.0076,4.9915,5.1174,5.174,5.1439,5.2215,5.2605,5.2596,5.2032,5.1367,5.0558,5.0,4.9851,5.0031,4.9888,5.0396,5.1351,5.1661,5.2294,5.3111,5.3563,5.3962,5.4323,5.4654,5.5082,5.5285,0.0,0.0,0.0,0.0,0.0,0.0,0.0,0.0,0.0,0.0,0.0,0.0,0.0,0.0,0.0,0.0,0.0,0.0,2.6425,2.8337,3.0097,3.1567,3.397,3.5697,3.6633,3.8161,3.9185,3.9724,4.0591,4.1114,4.1255,4.14,4.1606,4.1845,4.2033,4.2178,4.2265,4.2082,4.2041,4.1921,3.9893,3.9246,3.9027,3.5011,3.3299,3.2736,3.0506,2.9668,2.9494,2.8901,2.9845,3.1416,3.2296,3.3559,3.503,3.6471,3.9801,4.3328,4.4899,4.7866,5.0546,5.0646,5.0414,5.0014,4.956,4.8023,4.643,4.5518,4.2452,3.9409,3.7643,0.0,0.0,3.9982,4.1711,0.0,4.57,4.688,0.0,4.573,0.0,4.7949,4.7334,4.8168,0.0,0.0,4.9066,4.968,4.9351,5.0201,5.0483,4.9996,5.0886,5.1153,5.0695,5.2007,5.267,5.266,5.1878,5.1048,5.0192,4.9473,4.9163,4.9239,4.9782,5.0173,5.0492,5.1212,5.1989,5.2743,5.2865,5.3312,5.3972,5.4288,5.4693,5.5059,0.0,0.0,0.0,0.0,0.0,0.0,0.0,0.0,0.0,0.0,0.0,0.0,0.0,0.0,0.0,0.0,0.0,0.0,0.0,2.654,2.7658,2.8442,3.0222,3.1349,3.1722,3.311,3.4008,3.4416,3.5359,3.5977,3.6267,3.6619,3.6782,3.6837,3.7128,3.7325,3.7422,3.7047,3.7019,0.0,0.0,3.4654,3.4241,3.1957,3.0855,3.0369,2.9354,2.9977,3.1391,3.2291,3.3017,3.404,3.7065,3.8609,3.9726,4.1885,4.4167,4.6331,4.8051,4.9886,5.1182,5.0699,4.9992,4.8963,4.7252,4.5584,4.3775,4.1509,3.8698,3.6097,3.4328,3.4064,0.0,0.0,0.0,0.0,4.4401,4.6531,4.7499,0.0,4.8207,0.0,4.8798,4.9641,5.0151,0.0,4.9675,4.9514,4.9568,5.0004,5.0156,4.9963,5.0413,5.0574,5.0362,5.1594,5.2378,5.2678,5.1425,5.0784,5.0661,4.9446,4.895,4.9098,0.0,4.9639,4.9806,5.0532,5.1323,5.2104,5.2484,5.3126,5.3841,5.4202,5.4484,5.4757,0.0,0.0,0.0,0.0,0.0,0.0,0.0,0.0,0.0,0.0,0.0,0.0,0.0,0.0,0.0,0.0,0.0,0.0,0.0,0.0,2.5976,2.6716,2.7378,2.7653,2.7513,2.852,2.8974,2.8802,2.9884,3.0763,3.14,3.2151,3.2492,3.2546,3.3171,3.3503,3.3515,3.2773,3.2729,3.3034,3.1723,3.063,2.9819,0.0,2.9163,2.8062,2.8877,3.0564,3.298,3.6498,3.7201,3.7422,4.1971,4.3377,4.4096,4.7996,4.7999,4.7559,5.1178,5.1134,5.0089,5.024,4.9498,4.7925,4.482,4.3142,4.1202,3.7553,3.5772,3.4438,3.3003,3.307,3.3894,3.5567,0.0,4.0852,4.2673,4.5629,4.7604,4.764,4.921,5.0287,5.0186,5.0972,5.1581,5.1841,4.9824,4.8906,4.9728,4.9663,4.9732,5.0059,4.9966,5.0088,5.0461,5.1117,5.1816,5.2528,5.0903,5.0559,5.1307,4.9676,4.9054,4.926,4.9012,4.9027,4.9273,4.9748,5.0459,5.1332,5.2204,5.3005,5.373,5.419,5.439,5.4491,0.0,0.0,0.0,0.0,0.0,0.0,0.0,0.0,0.0,0.0,2.4812,2.5674,0.0,0.0,0.0,0.0,0.0,0.0,0.0,0.0,0.0,2.595,2.6115,2.6117,2.5975,2.6825,2.6899,2.616,2.7021,2.7517,2.7635,2.773,2.7811,2.7874,2.7938,2.7861,2.7654,2.7509,2.7713,2.8151,2.8106,2.8312,2.8715,2.9076,0.0,0.0,2.9708,3.0687,3.2483,3.8307,4.1023,4.2768,4.7334,4.9233,4.9984,5.1039,5.1299,5.1227,5.0979,5.0622,4.9884,4.8043,4.6662,4.5111,4.265,4.008,3.744,3.4782,3.2794,3.1492,3.1369,3.2022,3.4032,3.8438,4.0157,4.167,4.3806,4.667,4.8251,0.0,4.8809,4.9896,5.0089,4.9935,0.0,0.0,5.0321,5.0814,5.1662,5.1039,5.0743,5.0971,4.9906,4.9988,5.1367,5.0803,5.0952,5.1777,5.0749,5.0385,5.0554,4.9528,4.9101,4.9135,4.8979,0.0,4.8978,4.9075,4.965,5.0565,5.1393,5.2257,5.315,5.3874,5.4253,5.4431,0.0,0.0,0.0,0.0,0.0,0.0,0.0,2.5045,2.5342,2.5366,2.6074,2.6239,2.5315,2.5968,2.6311,0.0,0.0,0.0,0.0,0.0,0.0,2.5771,2.6198,2.6168,2.5606,2.6384,2.6147,2.4828,0.0,2.5446,2.5442,2.5417,2.5445,2.5507,2.5398,2.5316,2.525,2.5192,2.5665,2.6517,2.6776,2.7236,2.7861,2.8651,0.0,0.0,2.9445,3.0099,3.1593,3.6957,4.0108,4.2915,4.9416,5.2303,5.3237,5.2809,5.2545,5.2117,5.0759,4.9986,4.9148,4.7436,4.5918,4.3857,4.0058,3.7599,3.5111,3.1608,3.0151,2.9521,2.9631,3.0693,0.0,3.7403,3.9154,4.1241,4.4974,4.7006,0.0,4.8237,4.9636,5.0307,0.0,4.9994,5.0319,5.0422,5.0562,5.0893,5.1487,5.1187,5.0892,5.0646,5.0472,5.0578,5.0913,5.0516,5.0533,5.0972,5.0086,4.9971,5.0478,4.9533,4.9093,4.9093,4.8962,4.857,4.8113,4.8671,4.9105,4.9552,5.1019,5.2132,5.3008,5.3883,5.4224,5.4272,0.0,0.0,0.0,0.0,0.0,0.0,0.0,2.5101,2.5662,2.6903,2.7231,2.6857,2.5529,2.6142,2.6732,0.0,0.0,0.0,0.0,0.0,0.0,0.0,0.0,0.0,2.5658,0.0,0.0,2.4543,2.476,0.0,0.0,0.0,0.0,0.0,2.4593,2.4474,2.433,2.4205,2.4824,0.0,0.0,2.6898,2.7346,0.0,0.0,0.0,0.0,2.9495,3.0821,3.4884,3.7759,4.0866,4.7947,5.1875,5.3625,5.2417,5.1933,5.1589,5.0567,4.956,4.847,4.7105,4.5599,4.3115,3.8031,3.583,3.3673,2.9471,2.8505,2.854,2.8911,2.9861,3.1949,0.0,3.7405,3.9815,4.5156,4.6454,4.7416,0.0,5.0291,0.0,4.9359,5.0182,0.0,5.081,5.0616,5.0614,5.0801,5.1024,5.086,5.0273,5.0878,5.0902,5.025,5.0083,5.0059,5.014,4.944,4.9563,5.0335,4.9525,4.9133,4.9152,4.9189,4.8532,4.7506,4.8894,4.906,4.8701,5.1044,5.2258,5.2826,5.3915,5.4244,5.4163,0.0,0.0,0.0,0.0,0.0,0.0,0.0,2.6415,2.6903,2.7008,2.769,2.8105,2.7899,2.8598,2.8519,0.0,0.0,0.0,0.0,0.0,0.0,0.0,0.0,0.0,0.0,0.0,0.0,2.5647,2.6394,0.0,0.0,0.0,0.0,0.0,0.0,2.5082,2.4126,2.4052,0.0,0.0,0.0,0.0,0.0,0.0,0.0,0.0,0.0,2.9465,3.0631,3.3473,3.5633,3.7698,4.0952,4.5601,4.9551,4.8174,4.8754,4.9969,5.0436,4.9704,4.8295,4.6176,4.4622,4.2348,3.7542,3.5231,3.316,2.989,2.882,2.8977,3.0561,3.0385,3.1651,3.6759,3.6084,3.7023,4.3099,4.4471,4.5878,4.8593,0.0,0.0,5.0017,4.9894,4.9828,4.9824,5.0466,5.0756,5.0548,5.1005,5.1096,5.0742,5.0463,5.0255,5.0125,4.9382,4.9123,4.9299,4.9235,4.9324,4.9587,4.938,4.9284,4.9321,4.998,4.9301,0.0,5.0295,5.0001,4.837,5.1559,5.2466,5.2188,5.3791,5.434,5.4281,0.0,0.0,0.0,0.0,0.0,0.0,2.5018,2.5441,2.5974,2.6873,2.7792,2.8502,2.8879,2.9682,2.9716,2.8541,0.0,0.0,0.0,0.0,0.0,0.0,0.0,0.0,0.0,0.0,2.7502,2.7185,2.7051,0.0,0.0,0.0,0.0,0.0,0.0,2.5467,2.4891,2.4774,0.0,0.0,0.0,0.0,0.0,0.0,0.0,0.0,0.0,0.0,2.9076,3.11,3.2588,3.3661,3.4264,3.7684,4.1876,4.3951,4.6255,4.8062,4.768,4.8573,4.8916,4.6088,4.3736,4.1049,3.6964,3.423,3.1836,2.9275,2.8629,2.8704,2.935,2.9256,3.042,3.4612,3.3706,3.5133,4.2805,4.2709,4.3812,4.9176,4.9739,0.0,0.0,0.0,5.0418,5.0135,5.0487,5.0787,5.091,5.1088,5.1042,5.076,5.0861,5.0655,5.0107,4.9773,4.9487,4.9214,4.9691,4.9773,4.9509,4.991,4.9795,4.9337,5.0079,4.9159,0.0,5.0391,4.9927,4.7717,5.149,5.2536,5.2091,5.3789,5.4383,5.434,0.0,0.0,0.0,0.0,0.0,2.3847,2.4894,2.5059,2.5697,2.7471,2.8077,2.86,2.9319,2.9945,3.0062,2.9444,2.9409,0.0,0.0,0.0,0.0,0.0,0.0,0.0,0.0,0.0,2.8268,2.8516,2.8224,2.8524,0.0,0.0,2.8241,2.7671,0.0,0.0,0.0,0.0,0.0,0.0,0.0,0.0,0.0,0.0,0.0,0.0,0.0,0.0,0.0,0.0,0.0,3.0595,3.002,3.1825,3.4954,3.9038,4.2889,4.5698,4.5148,4.7243,4.8809,4.5724,4.2894,3.9926,3.624,3.3258,3.0718,2.8764,2.8413,2.8426,2.834,2.8413,2.9447,3.2397,3.2081,3.3927,4.1028,4.078,4.1949,0.0,0.0,4.8608,0.0,5.0663,5.1107,5.0786,5.0498,5.0527,5.0995,5.0886,5.0844,5.0958,5.125,5.1007,5.0179,4.991,4.9606,4.9214,4.9791,4.9788,4.9262,4.9971,4.9837,4.9154,5.0069,4.9192,0.0,5.0453,4.9945,4.7609,5.1499,5.2552,5.2086,5.3781,5.4409,5.4382,0.0,0.0,0.0,0.0,0.0,0.0,2.5637,2.5891,2.6736,2.9063,2.8681,2.8504,2.9314,2.9402,2.9402,2.9402,2.9402,0.0,0.0,0.0,0.0,0.0,0.0,0.0,0.0,0.0,2.8626,2.9486,3.0285,3.1112,3.1952,3.1952,3.0916,2.9082,0.0,0.0,0.0,0.0,0.0,0.0,0.0,0.0,2.9586,0.0,0.0,0.0,0.0,0.0,0.0,0.0,0.0,0.0,0.0,2.9042,2.9761,3.3264,3.8208,4.2701,4.3436,4.5919,4.7642,4.4828,4.2096,3.9121,3.5377,3.2445,3.0086,2.8602,2.83,2.828,2.8209,2.8311,2.8968,3.065,3.169,3.3478,3.6886,3.8596,0.0,0.0,0.0,4.6289,4.8676,5.0544,5.1601,5.1588,5.0411,0.0,5.0575,5.0283,5.056,5.1564,5.1478,5.1043,5.0311,4.9511,4.9143,4.9205,4.9268,4.9065,4.8629,4.9236,4.9176,4.8693,5.0102,4.9695,0.0,5.0779,5.0281,4.8325,5.169,5.2519,5.2011,5.3764,5.4409,5.4409,0.0,0.0,0.0,0.0,0.0,0.0,0.0,2.5074,2.5529,2.6785,2.776,2.8376,2.8501,2.9575,3.0043,2.9443,2.9399,0.0,0.0,0.0,0.0,0.0,0.0,0.0,0.0,2.9125,2.9986,3.0256,3.0554,3.0833,3.1112,3.0917,3.0515,2.9891,2.9104,2.8312,0.0,0.0,0.0,0.0,0.0,2.8298,2.8435,0.0,0.0,0.0,0.0,0.0,0.0,0.0,0.0,0.0,0.0,0.0,0.0,3.0316,3.3981,3.7755,3.8265,4.0511,4.2134,3.9773,3.7661,3.5544,3.3296,3.1188,2.9423,2.8494,2.83,2.8293,2.8266,2.8333,2.915,3.1488,3.2113,3.3935,0.0,0.0,0.0,4.5766,4.783,4.9228,0.0,0.0,5.0192,5.0415,4.9563,4.9609,5.0995,5.098,5.0997,5.1185,5.1378,5.1096,5.0311,5.0051,4.9684,4.9214,4.9867,4.9677,4.8772,4.9829,4.9741,4.88,5.0126,5.0185,4.9451,5.1166,5.1174,5.0318,5.2354,5.2986,5.2882,5.3987,5.3991,5.3527,0.0,0.0,0.0,0.0,0.0,0.0,0.0,2.4939,2.5404,2.6191,2.7241,2.7965,2.8112,2.9405,3.0037,2.9499,2.9436,0.0,0.0,0.0,0.0,0.0,0.0,0.0,2.905,3.0092,3.0769,3.105,3.1112,3.1155,3.115,3.1015,3.0872,3.0718,3.0002,2.9524,0.0,0.0,0.0,0.0,2.8672,2.8449,2.8154,0.0,0.0,0.0,0.0,0.0,0.0,0.0,0.0,0.0,0.0,0.0,0.0,0.0,3.0845,3.3233,3.4731,3.7211,3.8918,3.6965,3.5179,3.3474,3.1861,3.0141,2.8773,2.8353,2.8833,2.9089,2.8353,2.8874,2.9699,3.0535,3.2206,3.4479,0.0,0.0,0.0,4.5224,0.0,0.0,0.0,4.9965,5.0025,5.026,4.9366,4.9306,5.0441,5.0689,5.0744,5.0667,5.1201,5.127,5.0801,5.0162,4.9777,4.9654,4.996,4.9604,4.872,4.9724,4.9635,4.8747,4.9732,5.0185,0.0,5.0774,5.1131,5.1449,5.2367,5.2871,5.3222,5.4081,5.4037,5.3573,0.0,0.0,0.0,0.0,0.0,0.0,0.0,2.5367,2.6022,2.6896,2.706,2.7359,2.8039,2.8935,2.953,2.9586,0.0,0.0,0.0,0.0,0.0,0.0,0.0,0.0,3.0674,3.0767,3.1099,3.1719,3.1782,3.1786,3.1711,3.1829,3.1751,3.1495,3.1477,3.1297,3.0973,0.0,0.0,0.0,2.9353,2.9254,0.0,0.0,0.0,0.0,0.0,0.0,0.0,0.0,0.0,0.0,0.0,0.0,0.0,0.0,0.0,0.0,0.0,3.5383,3.7158,3.5654,3.4063,3.2466,3.0887,2.9319,0.0,2.8294,2.9758,3.0444,2.8627,2.9938,3.0653,2.8631,3.2199,0.0,0.0,3.7989,0.0,0.0,4.5311,0.0,4.8734,4.9936,5.0687,5.0746,4.963,4.9036,4.921,4.9657,4.9952,5.0079,5.0948,5.1454,5.1505,4.9964,4.9572,5.0291,4.9615,4.9015,4.8513,4.9048,4.9006,0.0,4.9065,4.9862,5.071,4.9847,5.0475,5.1974,5.1917,5.2388,5.3202,5.4074,5.4315,5.4102,0.0,0.0,0.0,0.0,0.0,0.0,0.0,0.0,0.0,0.0,2.6666,2.7093,2.7256,2.8565,2.9688,0.0,0.0,0.0,0.0,0.0,0.0,0.0,0.0,0.0,3.0674,3.1299,3.1389,3.0883,3.095,3.0631,2.9998,3.0472,3.0958,3.1403,3.1216,3.1053,3.0849,2.9776,0.0,0.0,2.9385,2.9139,0.0,0.0,0.0,0.0,2.8439,2.8458,0.0,0.0,0.0,0.0,0.0,0.0,0.0,0.0,2.8852,2.898,2.974,0.0,3.0821,3.034,2.9913,2.9467,0.0,2.8525,2.8431,2.9243,3.0255,3.0824,3.0267,3.1886,3.2877,3.1515,0.0,0.0,3.6232,0.0,0.0,4.3779,4.7095,4.8552,4.6407,4.8114,4.9341,4.9359,4.8816,4.8771,4.9465,4.9713,4.9843,4.9871,5.039,5.0675,5.0673,5.0243,4.9809,4.9396,4.9282,4.9002,4.8587,4.9027,4.8993,4.8605,4.9084,5.0148,5.1436,5.0067,5.1182,5.367,5.2392,5.2796,5.4102,5.4325,5.3568,5.2554,0.0,0.0,0.0,0.0,0.0,0.0,0.0,0.0,0.0,0.0,0.0,0.0,0.0,0.0,0.0,0.0,0.0,0.0,0.0,0.0,0.0,0.0,0.0,3.034,3.0742,3.1534,3.1515,3.0655,3.069,3.0253,2.9402,2.9792,3.0377,3.1095,3.128,3.1102,3.0586,2.9943,2.9583,2.9436,2.9266,0.0,0.0,0.0,0.0,0.0,2.823,2.8393,0.0,2.8422,2.8644,2.8932,0.0,0.0,0.0,0.0,2.8828,2.8785,2.8718,2.8662,2.8769,2.9437,2.8702,2.7994,2.8642,2.8174,2.7937,2.9054,3.0207,3.0998,3.0946,3.1836,3.2617,0.0,3.3892,0.0,0.0,0.0,0.0,4.4659,4.624,4.7086,0.0,4.7983,4.9005,4.9037,4.8838,4.8917,4.9397,4.9487,4.954,4.9567,4.9725,4.9979,5.0344,4.9895,4.9665,4.9652,4.9301,4.9064,4.8881,4.8969,4.8917,4.875,4.8968,4.983,5.0987,4.9867,5.0933,5.317,5.2242,5.2432,5.3307,5.411,5.3532,5.24,0.0,0.0,0.0,0.0,0.0,0.0,0.0,0.0,0.0,0.0,0.0,0.0,0.0,0.0,0.0,0.0,0.0,0.0,0.0,0.0,0.0,0.0,3.0859,3.0864,3.0804,3.1461,3.1451,3.0692,3.0587,3.0139,2.9407,2.954,3.0003,3.0722,3.1343,3.1164,3.0361,3.0423,2.9867,2.8981,2.9151,0.0,0.0,0.0,0.0,0.0,0.0,0.0,0.0,2.864,2.8524,2.8426,2.8391,0.0,0.0,0.0,0.0,0.0,2.8631,2.8633,2.8996,3.0377,2.9042,2.773,2.9098,2.8396,2.7801,2.9034,3.0541,3.1601,3.15,3.1987,0.0,0.0,0.0,0.0,4.1411,4.301,4.4027,4.5021,4.5127,0.0,4.7262,4.8424,4.9091,4.9137,4.9146,4.9146,4.9146,4.9181,4.9195,4.9252,4.915,4.942,5.0073,4.9296,4.9296,5.0073,4.9237,4.8936,4.9104,4.8745,4.8675,4.8847,0.0,0.0,4.9984,4.9506,5.0255,5.1708,5.1716,5.1833,5.2196,5.3636,5.3583,5.2627,0.0,0.0,0.0,0.0,0.0,0.0,0.0,0.0,0.0,0.0,0.0,0.0,0.0,0.0,0.0,0.0,0.0,0.0,0.0,0.0,0.0,3.0804,3.0859,3.0864,3.0804,3.0922,3.0895,3.0692,3.0063,2.9633,2.9407,2.9602,3.0048,3.0704,3.082,3.0778,3.0594,3.0,2.9551,2.924,2.9265,0.0,0.0,0.0,0.0,0.0,0.0,0.0,0.0,2.6945,2.6355,2.5755,2.5646,0.0,0.0,0.0,0.0,0.0,2.8631,2.9009,2.9505,2.9807,2.9496,2.9188,2.9439,2.9726,3.0345,3.1712,3.3326,3.4229,3.3453,3.6537,3.7968,0.0,0.0,3.9817,0.0,0.0,4.6456,4.4594,0.0,4.9066,4.598,4.7652,4.8935,4.8952,4.8952,4.8952,4.8952,4.9057,4.9074,4.895,4.9049,4.9096,4.9112,4.8964,4.8964,4.9093,4.812,4.8021,4.8668,4.7895,4.7941,4.8651,0.0,4.9026,4.9266,4.93,4.9886,5.0818,5.0863,5.1743,5.2995,5.3085,5.2566,5.1654,0.0,0.0,0.0,0.0,0.0,0.0,0.0,0.0,0.0,0.0,0.0,0.0,0.0,0.0,0.0,0.0,0.0,0.0,0.0,0.0,3.1316,3.0868,3.0471,3.0232,3.0203,3.0596,3.0575,3.0109,2.9761,2.9526,2.9402,2.9465,2.9655,2.9938,2.9903,2.9811,2.9669,2.95,2.9254,2.8998,0.0,0.0,0.0,0.0,0.0,0.0,0.0,0.0,0.0,0.0,2.6124,2.5776,2.5711,0.0,0.0,0.0,0.0,0.0,2.8593,2.9048,2.9808,3.0664,3.013,2.9737,3.1087,3.0584,3.0521,3.2868,3.2736,3.2694,3.4355,0.0,3.6328,3.6491,0.0,4.4134,4.4364,4.5664,4.6495,0.0,0.0,4.8392,4.7357,4.8259,4.8909,4.8909,4.8909,4.8723,4.8277,4.872,4.8783,4.8327,4.8318,4.856,4.8996,4.808,4.7813,4.8231,4.7243,4.7279,4.8247,4.7599,4.7776,4.8605,0.0,4.8804,4.875,4.9054,4.9471,4.9934,5.0375,5.0731,5.1135,5.187,5.1478,5.0564,0.0,0.0,0.0,0.0,0.0,0.0,0.0,0.0,0.0,0.0,0.0,0.0,0.0,0.0,0.0,0.0,0.0,0.0,0.0,3.2146,3.1459,3.0649,3.0021,2.9706,2.9706,3.025,3.0235,2.9583,2.9593,2.9535,2.9423,2.9339,2.9304,2.9304,2.9251,2.9112,2.8934,2.9189,2.9117,2.8833,0.0,0.0,0.0,0.0,0.0,0.0,0.0,0.0,0.0,0.0,0.0,0.0,0.0,0.0,0.0,2.6935,2.7713,2.8506,2.8507,2.9199,3.0196,3.1365,3.0746,3.0517,3.3003,3.1783,3.1063,3.4428,3.3038,3.2261,0.0,3.5093,0.0,3.9591,4.4476,4.7291,4.5982,4.6633,4.7532,4.8323,4.8027,4.806,4.8824,4.8926,4.8953,4.8953,4.8767,4.8451,4.8051,4.8397,4.8451,4.8073,4.7786,4.7964,4.8683,4.7132,4.6783,4.7615,4.6424,4.6504,4.7689,4.7175,4.7519,4.8532,4.8715,4.8586,4.8274,4.8879,4.9052,4.9027,4.9861,4.9895,4.9594,5.0775,5.0546,4.9736,0.0,0.0,0.0,0.0,0.0,0.0,0.0,0.0,0.0,0.0,0.0,0.0,0.0,0.0,0.0,0.0,0.0,0.0,0.0,3.0977,3.0631,2.9819,2.9725,2.9706,2.9706,2.9758,2.9692,2.9502,2.956,2.9555,2.9487,2.9363,2.9293,2.9307,2.9286,2.9291,2.928,2.9299,2.9238,2.9162,2.9184,0.0,0.0,0.0,0.0,0.0,0.0,0.0,0.0,0.0,0.0,0.0,0.0,0.0,2.4251,2.5673,2.6808,2.7737,2.8332,2.9662,3.0898,3.0873,3.1212,3.2184,3.4667,3.3836,3.3667,3.7632,3.6941,3.6305,0.0,3.8757,3.9814,4.3416,4.5686,4.7739,4.9925,0.0,5.1906,5.0401,5.0764,5.0565,4.9047,4.9005,4.9084,4.9084,4.834,4.8209,4.8954,4.8227,4.8091,4.8806,4.7917,4.745,4.7515,4.6469,4.6442,4.7395,4.565,4.5535,4.6868,4.6203,4.6791,4.8335,4.8651,4.8405,4.7833,4.8779,4.8681,4.8025,4.9137,4.9829,5.0219,5.0348,4.9973,4.9437,0.0,0.0,0.0,0.0,0.0,0.0,0.0,0.0,0.0,0.0,0.0,0.0,0.0,0.0,0.0,0.0,0.0,0.0,0.0,3.0829,3.0503,2.972,3.019,3.0448,3.0448,2.9912,2.9631,2.9612,2.9564,2.9492,2.9438,2.9304,2.9235,2.923,2.9145,2.9136,2.9175,2.9139,2.9106,2.9085,2.9085,2.9051,0.0,0.0,0.0,0.0,0.0,0.0,0.0,0.0,2.4172,2.3257,2.345,2.3584,2.3894,2.4891,2.5937,2.6879,2.7467,2.9217,3.1074,3.1953,3.2281,3.3155,3.6146,3.5682,3.5824,4.0089,3.8936,3.7308,0.0,0.0,4.3638,4.4991,4.7905,5.0359,5.1303,5.2413,5.285,5.2121,5.1773,5.135,5.0645,4.9687,4.9127,4.9166,4.8849,4.8563,4.8319,4.8472,4.844,4.8166,4.7299,4.7028,4.7396,4.6067,4.574,4.6406,4.5636,4.5993,4.7351,4.6921,4.7417,4.8624,4.8885,4.8717,4.8315,4.891,4.8945,4.8716,4.9188,4.9452,4.9614,5.0126,4.9721,4.8973,0.0,0.0,0.0,0.0,0.0,0.0,0.0,0.0,0.0,0.0,0.0,0.0,0.0,0.0,0.0,0.0,0.0,0.0,3.0354,3.0893,3.0755,2.9716,3.0701,3.1048,3.0523,3.0156,2.9996,3.0058,2.9672,2.9448,2.937,2.9265,2.9218,2.9156,2.9057,2.9034,2.9074,2.9022,2.8999,2.8999,2.8999,2.8999,0.0,0.0,0.0,0.0,0.0,0.0,0.0,0.0,2.4846,2.4311,2.3997,2.3965,2.4195,2.4897,2.5631,2.6399,2.7278,2.9134,3.1157,3.2453,3.2906,3.4094,3.8199,3.7526,3.735,4.1925,4.1501,4.0047,3.9208,0.0,0.0,0.0,4.8326,5.0635,5.1405,5.2483,5.2957,5.2313,5.1944,5.1509,5.0897,4.9818,4.9123,4.9044,4.8928,4.8511,4.7718,4.8083,4.8017,4.733,4.6481,4.6222,4.6638,4.5521,4.5142,4.548,4.591,4.659,4.7467,4.7306,4.7794,4.8741,4.8989,4.8972,4.8786,4.9047,4.9224,4.9305,4.93,4.9236,4.9241,4.9774,4.9444,4.8816,0.0,0.0,0.0,0.0,0.0,0.0,0.0,0.0,0.0,0.0,0.0,0.0,0.0,0.0,0.0,0.0,0.0,0.0,2.9553,3.1118,3.1349,2.9673,3.1211,3.1354,2.9744,3.0423,3.0792,3.0792,2.9914,2.9431,2.9302,2.9302,2.9224,2.9108,2.9058,2.9023,2.9005,2.9005,2.9005,2.9005,2.8981,2.8981,2.8999,0.0,0.0,0.0,0.0,0.0,0.0,0.0,2.6009,2.5859,2.5052,2.4801,2.4968,2.5769,2.6009,2.6345,2.7962,2.9622,3.1128,3.2065,3.2925,3.5042,4.0857,3.9405,3.8227,4.3116,4.4976,4.5209,4.362,4.3339,0.0,4.5453,4.6467,4.7894,5.0361,5.2135,5.2544,5.0814,5.132,5.11,4.9371,4.926,4.9144,4.8748,4.8329,4.7898,4.7422,4.6904,4.6576,4.6494,4.5522,4.5004,4.5004,4.4797,4.4744,4.4822,4.6424,4.7114,4.7009,4.7067,4.7666,4.8614,4.8963,4.9093,4.911,4.9236,4.9374,4.9501,4.934,4.9308,4.9308,4.9308,4.9127,4.9029,0.0,0.0,0.0,0.0,0.0,0.0,0.0,0.0,0.0,0.0,0.0,0.0,0.0,0.0,0.0,0.0,0.0,0.0,2.9511,3.0516,3.0638,2.9573,3.118,3.158,3.0498,3.0645,3.0451,2.9895,2.9575,2.939,2.9302,2.9302,2.9224,2.915,3.0309,3.0482,2.9907,2.986,2.9837,2.9745,2.8613,2.8497,2.8999,0.0,0.0,0.0,0.0,0.0,0.0,0.0,0.0,0.0,2.5075,2.4777,2.4879,2.5636,2.5857,2.6214,2.7817,2.921,3.0655,3.2587,3.4243,3.6203,3.9305,3.9627,4.0529,4.5066,4.6297,4.6045,4.4444,4.6073,0.0,4.673,4.8288,5.0053,5.1367,5.1968,5.2091,5.1571,5.1184,5.0766,5.0301,4.9669,4.9292,4.9271,4.8851,4.8238,4.743,4.7243,4.6838,4.6099,4.5504,4.513,4.5004,4.4994,4.4925,4.4804,4.5853,4.6736,4.7433,4.8077,4.8571,4.8972,4.9106,4.9142,4.9101,4.9197,4.9276,4.9366,4.9424,4.9343,4.9228,4.9228,4.9096,4.8937,0.0,0.0,0.0,0.0,0.0,0.0,0.0,0.0,0.0,0.0,2.7338,2.812,0.0,0.0,0.0,0.0,0.0,0.0,0.0,3.0272,3.0336,2.9534,3.1174,3.1681,3.0776,3.0404,2.9966,2.9421,2.9387,2.9356,2.9347,2.9283,2.9218,2.9184,3.0143,3.0102,2.93,2.9254,2.9255,2.9163,2.8196,2.8282,2.8999,0.0,0.0,0.0,0.0,0.0,0.0,0.0,0.0,0.0,2.5703,2.5709,2.6132,2.5966,2.6076,2.6673,2.87,3.0001,3.1576,3.4717,3.6702,3.8456,4.0721,4.1617,4.3183,0.0,4.7837,4.7309,4.7023,4.7819,0.0,4.8044,4.8933,4.9976,5.0834,5.1204,5.1271,5.0984,5.0756,5.0523,5.0241,4.9706,4.9268,4.9,4.8869,4.827,4.7029,4.6811,4.625,4.5251,4.4817,4.4537,4.4368,4.4552,4.4593,4.4485,4.5384,4.6109,4.6716,4.7478,4.8111,4.8617,4.9048,4.9205,4.915,4.9273,4.9319,4.9316,4.9382,4.9343,4.9236,4.9203,4.9121,4.9012,0.0,0.0,0.0,0.0,0.0,0.0,0.0,0.0,0.0,0.0,2.7609,2.8596,0.0,0.0,0.0,0.0,0.0,0.0,0.0,3.0355,3.0417,2.9525,3.1014,3.1458,3.0587,2.9856,2.9431,2.9296,2.9294,2.9322,2.9372,2.9265,2.9194,2.9184,2.9227,2.8789,2.8037,2.8018,2.8013,2.8013,2.7866,2.8277,2.8994,2.8994,0.0,0.0,0.0,0.0,0.0,0.0,0.0,0.0,2.6796,2.7275,2.8105,2.6693,2.6689,2.7716,3.023,3.155,3.3202,3.7463,3.954,4.1316,4.429,4.4845,4.584,4.9779,0.0,4.8795,5.0399,4.8852,4.7811,4.9249,4.8767,4.8518,4.9346,4.9985,5.0111,4.944,4.9951,5.0109,4.9445,4.9313,4.8986,4.8309,4.8485,4.7924,4.6287,4.5832,4.5138,4.4092,4.3722,4.3484,4.3371,4.3736,4.3916,4.3958,4.4858,4.5264,4.5212,4.5926,4.679,4.7758,4.8659,4.9065,4.911,4.9291,4.9334,4.9308,4.9316,4.9316,4.9292,4.9219,4.9179,4.9162,0.0,0.0,0.0,0.0,0.0,0.0,0.0,0.0,0.0,0.0,0.0,0.0,0.0,0.0,0.0,0.0,0.0,0.0,0.0,3.0841,3.0977,2.9497,2.9773,2.9868,2.9601,2.9475,2.937,2.9229,2.9222,2.9205,2.9167,2.924,2.9218,2.9191,3.0515,3.0608,2.9759,2.9701,2.9677,2.9567,2.8306,2.826,2.8923,2.8923,2.8881,0.0,0.0,0.0,0.0,0.0,0.0,0.0,2.8095,2.8099,2.8259,2.7866,2.8378,2.9521,3.1387,3.1966,3.2854,3.6278,3.9414,4.2844,4.7391,4.7398,4.7079,4.9302,4.9387,4.9401,5.0504,5.0267,4.9775,4.9404,4.9166,4.9086,4.9252,4.8854,4.8506,4.8335,4.7952,4.7897,4.8354,4.7875,4.7849,4.8609,4.7868,4.6788,4.5423,4.5183,4.4423,4.2986,4.3049,4.3123,4.3087,4.3159,4.331,4.3525,4.3751,4.4003,4.4347,4.5993,4.6817,4.694,4.7106,4.7588,4.8269,4.8301,4.8715,4.9316,4.9417,4.9369,4.9211,4.9214,4.9096,4.8969,0.0,0.0,0.0,0.0,0.0,0.0,0.0,0.0,0.0,0.0,0.0,0.0,0.0,0.0,0.0,0.0,0.0,0.0,0.0,0.0,3.0929,3.0059,3.0022,2.981,2.9362,2.9734,2.9686,2.9194,2.9147,2.9139,2.9198,2.9162,2.9158,2.9195,3.0066,2.994,2.9111,2.9093,2.9076,2.898,2.8141,2.8266,2.8946,2.8946,2.8685,2.8387,2.8806,0.0,0.0,0.0,0.0,0.0,0.0,0.0,2.8721,2.7521,2.8404,2.9983,3.0856,3.2367,3.4762,3.9288,4.2725,4.5653,4.8269,4.8464,4.8359,4.9221,4.9409,4.9652,5.0504,5.0317,4.987,4.9372,4.9254,4.9214,4.9244,4.8824,4.8548,4.857,4.7924,4.7634,4.8053,4.7429,4.7107,4.7347,4.6774,4.5977,4.4915,4.4452,4.3833,4.2951,4.2881,4.2902,4.3005,4.3005,4.3222,4.3695,4.3515,4.3683,4.4184,4.5562,4.6141,4.6052,4.6475,4.7125,4.7916,4.8004,4.8527,4.9244,4.8738,4.8663,4.8815,4.8427,4.8425,4.8642,0.0,0.0,0.0,0.0,0.0,0.0,0.0,0.0,0.0,0.0,0.0,0.0,0.0,0.0,0.0,0.0,0.0,0.0,0.0,0.0,0.0,3.0682,3.0551,3.0137,2.9395,2.9996,2.9939,2.9178,2.9096,2.9257,2.9662,2.95,2.949,2.9614,2.9541,2.898,2.8046,2.8081,2.807,2.8013,2.8024,2.8338,2.8786,2.8809,2.8295,2.7666,2.8345,2.8259,2.7921,2.8724,0.0,0.0,0.0,0.0,2.9066,2.7025,2.7959,2.9757,3.0105,3.2939,3.7131,4.2706,4.5524,0.0,4.7992,4.8418,4.8784,4.9198,4.9366,4.9634,5.0255,4.9771,4.9292,4.9292,4.9183,4.9096,4.9057,4.8822,4.8625,4.854,4.7884,4.7483,4.7648,4.6975,4.6349,4.5837,4.5672,4.5245,4.4443,4.3807,4.3365,4.3124,4.2785,4.2703,4.2958,4.294,4.324,4.3817,4.3582,4.3756,4.4289,4.4831,4.5093,4.5175,4.6072,4.6925,4.7679,4.7969,4.8593,4.9206,4.7985,4.7918,4.8393,4.7573,4.7721,4.8373,0.0,0.0,0.0,0.0,0.0,0.0,0.0,0.0,0.0,0.0,2.8082,2.8598,0.0,0.0,0.0,0.0,0.0,0.0,0.0,0.0,0.0,3.0583,2.9946,2.9492,2.9328,2.9476,2.94,2.9106,2.9207,2.9905,3.1127,3.1158,3.1206,3.1277,3.1206,3.0365,2.9014,2.8897,2.8846,2.8846,2.8908,2.8496,2.7892,2.7998,2.7486,2.6695,2.6866,2.731,2.791,2.866,2.8864,0.0,0.0,0.0,2.8514,2.8189,2.8421,2.9143,3.0899,3.4117,3.7865,4.1569,4.2133,4.2899,0.0,0.0,4.669,0.0,4.923,4.9276,4.938,4.9278,4.9203,4.9203,4.915,4.8841,4.8102,4.7339,4.6593,4.5903,4.5163,4.5017,4.5776,4.5185,4.5037,4.5745,4.515,4.4425,4.3693,4.344,4.3049,4.2455,4.2271,4.2363,4.275,4.2681,4.278,4.3041,4.3291,4.3685,4.4199,4.3957,4.4069,4.4487,4.5236,4.6122,4.7086,4.7791,4.8651,4.9342,4.8019,4.7908,4.8393,4.7527,4.7675,4.8363,0.0,0.0,0.0,0.0,0.0,0.0,0.0,0.0,0.0,0.0,0.0,2.8066,0.0,0.0,0.0,0.0,0.0,0.0,0.0,0.0,0.0,3.0573,3.0251,2.9842,2.9373,2.9784,2.9749,2.9207,2.9197,3.0635,3.3415,3.346,3.2788,3.1568,3.198,3.1077,2.9226,2.9586,2.9496,2.91,2.9095,2.8853,2.8441,2.8055,2.7342,2.6557,2.6596,2.6539,2.6563,2.735,2.7862,2.822,2.8445,0.0,0.0,0.0,2.822,2.9411,3.2373,3.4367,3.6776,4.1573,4.2118,4.2517,4.6525,4.6442,4.5974,4.7487,4.7796,4.8061,4.8982,4.8731,4.8414,4.8414,4.7986,4.7516,4.7175,4.6774,4.6364,4.6011,4.531,4.5042,4.5462,4.4833,4.4423,4.4441,4.4131,4.3615,4.2874,4.2763,4.2602,4.2315,4.2246,4.2462,4.2976,4.2534,4.2416,4.261,4.2913,4.3212,4.3474,4.3337,4.3528,4.3995,4.4546,4.546,4.6627,4.7438,4.844,4.932,4.7535,4.7233,4.7729,4.6845,4.6967,4.7711,0.0,0.0,0.0,0.0,0.0,0.0,0.0,0.0,0.0,0.0,0.0,0.0,0.0,0.0,0.0,0.0,0.0,0.0,0.0,0.0,0.0,2.9956,3.0193,3.0017,2.9406,2.9949,2.9932,2.9267,2.9191,3.0955,3.4399,3.4601,3.4006,3.279,3.3152,3.2115,3.0103,3.0259,3.0001,2.9453,2.9436,2.9045,2.8423,2.8047,2.7353,2.6607,2.6607,0.0,0.0,0.0,0.0,2.7943,2.7627,2.7906,0.0,0.0,0.0,2.9263,3.2262,3.3278,3.4753,4.0046,4.0909,4.131,0.0,0.0,4.461,0.0,4.6192,4.6792,4.8182,4.793,4.7499,4.7524,4.6958,4.6452,4.631,4.6235,4.6104,4.5881,4.5403,4.5117,4.52,4.4702,4.4124,4.3457,4.3406,4.3078,4.2348,4.2297,4.2297,4.2297,4.2297,4.2562,4.3096,4.2544,4.2346,4.2557,4.2656,4.2773,4.2905,4.2866,4.3105,4.3615,4.4336,4.5286,4.6401,4.7422,4.8346,4.8977,4.7266,4.6883,4.7194,4.6532,4.6746,4.749,0.0,0.0,0.0,0.0,0.0,0.0,0.0,0.0,0.0,0.0,0.0,0.0,2.8322,2.9138,2.9288,2.8411,2.8374,0.0,0.0,0.0,0.0,2.8327,2.9067,0.0,2.9407,2.9494,2.9443,2.9218,2.9256,3.0472,3.2729,3.3507,3.4708,3.6194,3.5344,3.4065,3.2428,3.1007,3.0302,3.0154,3.0289,2.8883,2.682,2.7608,2.7353,2.6607,2.6607,0.0,0.0,0.0,0.0,0.0,0.0,0.0,2.7465,0.0,0.0,0.0,2.9187,3.0219,3.1859,3.5464,3.6298,3.7064,0.0,0.0,0.0,4.3706,4.4848,4.5709,4.65,4.6642,4.6685,4.6746,4.66,4.6267,4.5554,4.5398,4.5064,4.4228,4.4212,4.4278,4.436,4.4384,4.4124,4.3457,4.3406,4.3078,4.2348,4.2297,4.2297,4.2297,4.2297,4.2474,4.2819,4.2722,4.277,4.2959,4.2596,4.2589,4.2895,4.257,4.2715,4.333,4.4922,4.5917,4.6529,4.8083,4.8503,4.8113,4.7622,4.7338,4.7205,4.7141,4.7601,4.8318,0.0,0.0,0.0,0.0,0.0,0.0,0.0,0.0,0.0,0.0,0.0,0.0,0.0,2.9514,2.9345,2.8486,2.8442,0.0,0.0,0.0,0.0,2.896,2.9253,2.9397,2.9401,2.9476,2.9426,2.9256,2.9296,3.017,3.1843,3.2644,3.3394,3.4148,3.5908,3.5288,3.2889,3.2816,3.1892,3.0485,3.094,3.0307,2.9075,2.873,0.0,0.0,0.0,0.0,0.0,0.0,0.0,0.0,0.0,0.0,0.0,0.0,0.0,2.7332,2.8994,2.9734,3.0852,3.4255,3.512,3.5824,3.8484,3.952,4.0298,4.1558,4.2548,4.3263,4.3446,4.473,4.577,4.5802,4.5289,4.4793,4.4546,4.4474,4.4358,4.4042,4.4028,4.4131,4.4285,4.409,4.3801,4.3431,4.292,4.2304,4.157,4.1247,4.1213,4.1512,4.152,4.1944,4.2782,4.2692,4.27,4.2799,4.2264,4.2086,4.2205,4.2338,4.2809,4.3598,4.5075,4.5669,4.5719,4.6812,4.7316,4.7327,4.6514,4.6541,4.7001,4.6857,4.7309,4.8098,0.0,0.0,0.0,0.0,0.0,0.0,0.0,0.0,0.0,2.7604,0.0,0.0,0.0,0.0,2.9345,2.8486,2.8447,2.833,2.8028,2.875,2.9162,2.9071,2.9327,2.9453,2.9438,2.9227,2.9187,2.9302,2.8767,2.9213,3.0613,3.1139,3.1875,3.2833,3.5008,3.5161,3.3809,3.4276,3.3537,3.2101,3.2219,3.1887,3.1276,0.0,0.0,0.0,0.0,0.0,0.0,0.0,0.0,0.0,0.0,0.0,0.0,0.0,0.0,0.0,2.7881,0.0,0.0,3.194,3.3086,3.407,3.6124,0.0,3.8921,3.9617,4.0711,4.1613,4.1759,4.307,4.4212,4.4473,4.3822,4.3396,4.3743,4.3595,4.3426,4.3426,4.3543,4.3714,4.39,4.3701,4.3381,4.301,4.2396,0.0,4.0747,4.0404,4.0369,4.0681,4.0967,4.1463,4.2221,4.2509,4.2622,4.2496,4.2231,4.2075,4.2036,4.2318,4.2917,4.3778,4.4683,4.5274,4.5664,4.6467,4.6701,4.6491,4.6124,4.6135,4.6445,4.6909,4.7375,4.7973,0.0,0.0,0.0,0.0,0.0,0.0,0.0,0.0,2.8473,2.8416,0.0,0.0,0.0,0.0,0.0,2.8505,2.843,2.8097,2.7298,2.7991,2.8432,2.8432,0.0,0.0,2.9502,2.8797,2.8736,2.9344,2.775,2.7673,2.8999,2.8999,3.0288,3.2625,3.2705,3.3622,3.5148,3.5173,3.5056,3.4809,0.0,3.3473,3.3003,0.0,0.0,0.0,3.5173,3.4476,0.0,3.296,0.0,0.0,0.0,0.0,0.0,0.0,0.0,0.0,0.0,0.0,0.0,0.0,2.9925,3.1511,3.2994,0.0,3.7266,3.7922,3.9437,4.0848,4.1565,4.1682,4.1962,4.2758,4.2279,4.2158,4.3197,4.2739,4.2302,4.2292,4.2665,4.2996,4.3137,4.3176,4.2908,4.2194,4.184,4.115,3.9924,3.9869,3.9869,3.9869,4.0646,4.1066,4.1076,4.2167,4.2505,4.2089,4.246,4.2589,4.2483,4.2493,4.2978,4.3823,4.3831,4.4803,4.6434,4.7198,4.6741,4.5637,4.6484,4.6217,4.5607,4.7306,4.789,4.8067,0.0,0.0,0.0,0.0,0.0,2.9369,2.8259,2.8283,2.8429,0.0,0.0,0.0,2.9908,2.9837,2.9593,2.9363,2.9339,2.8986,2.8116,2.8862,2.9331,2.9265,2.9485,2.9593,2.9564,2.9312,2.9527,3.016,2.9098,2.8708,2.8999,2.8999,2.877,2.8472,3.0256,3.1343,3.1956,3.3936,3.3599,3.196,3.4305,3.43,0.0,0.0,0.0,0.0,0.0,3.4532,3.4024,0.0,3.328,3.2024,0.0,0.0,0.0,0.0,0.0,0.0,2.5713,0.0,0.0,0.0,0.0,0.0,3.1313,3.3105,3.4993,3.6918,3.8184,3.9002,3.91,3.9157,3.945,4.0264,4.1185,4.1898,4.2128,4.251,4.2518,4.1943,4.295,4.322,4.2006,4.2684,4.2567,0.0,4.0844,4.0275,3.9156,3.9102,3.9102,3.9102,3.9833,4.038,4.0663,4.0692,4.1078,4.1806,4.157,4.1734,4.2213,4.2464,4.3211,4.4311,4.4563,4.5103,4.581,4.5499,4.5146,4.4782,4.4633,4.4803,4.522,4.6242,4.6996,4.7817,0.0,0.0,0.0,0.0,0.0,2.979,2.8585,2.8716,2.8941,0.0,0.0,0.0,3.0114,3.0208,3.034,3.0664,3.0387,2.9842,2.9002,2.9077,2.8989,2.8624,2.8914,2.9102,2.9102,2.942,2.9725,3.0007,2.9156,2.8656,2.8497,2.8161,2.7693,2.7227,2.8704,2.9184,2.9074,3.1495,3.2753,0.0,3.4959,0.0,0.0,3.6925,3.6545,0.0,0.0,0.0,3.6569,3.6088,3.4729,0.0,0.0,0.0,0.0,0.0,0.0,0.0,0.0,0.0,0.0,0.0,0.0,0.0,3.0739,3.2043,3.3513,0.0,3.6671,3.7227,3.7155,3.7168,3.7473,3.8309,3.9233,4.0219,4.1301,4.159,4.1505,4.1004,4.1897,4.2115,4.1007,4.1563,4.1443,4.0101,3.9824,3.9309,3.8353,3.829,3.829,3.829,3.903,3.9546,3.9797,4.0029,4.0586,4.1444,4.1328,4.1681,4.2398,4.2595,4.3184,4.405,4.4191,4.4387,4.456,4.4111,4.4011,4.414,4.3756,4.3815,4.4264,4.5422,4.6283,4.7251,0.0,0.0,3.1842,3.1043,3.0893,3.0368,2.8787,2.919,2.9706,0.0,2.9781,3.0133,3.095,3.1119,3.1424,3.2048,3.1536,3.0804,2.9889,2.9016,2.8172,2.7373,2.8022,2.8407,2.8393,2.9312,2.9704,2.9556,2.8729,2.8286,2.8178,2.7286,2.72,2.7798,2.7866,2.7498,2.6942,2.8791,0.0,3.6352,3.5634,3.6966,0.0,0.0,3.9283,3.8693,4.0748,4.058,3.9292,3.8543,3.6391,0.0,0.0,0.0,0.0,0.0,2.7218,0.0,0.0,0.0,0.0,0.0,2.8484,0.0,3.0656,3.1498,3.2383,3.4116,3.5126,3.5673,3.5668,3.5737,3.6054,3.6824,3.6967,3.7848,4.042,4.0357,3.9966,3.9728,4.0233,4.0454,4.0022,4.0206,3.9995,3.9144,3.8914,3.8487,3.7764,3.7729,3.7729,3.7729,3.8344,3.8673,3.8673,3.968,4.0445,4.0967,4.1337,4.1939,4.2743,4.2743,4.2959,4.3336,4.3185,4.314,4.3176,4.3105,4.33,4.3617,4.3446,4.3149,4.303,4.4789,4.5654,4.6465,0.0,3.1992,3.1842,3.1043,3.0893,3.0574,2.9608,2.9593,2.9706,2.9706,3.026,3.0973,3.1785,3.2494,3.2681,3.2142,3.2606,3.2268,3.0762,2.9903,2.9059,2.8205,2.8318,2.8375,2.8316,2.9641,3.0614,3.1146,3.0236,3.0092,3.0674,2.9213,2.8277,2.7798,2.7866,2.7819,2.7743,2.8886,0.0,3.4044,3.4727,0.0,3.7614,3.9207,3.8775,3.7668,4.0362,4.0269,3.881,3.8432,3.7331,3.568,0.0,0.0,0.0,0.0,0.0,0.0,0.0,0.0,0.0,0.0,0.0,0.0,2.9485,2.9767,3.0212,0.0,3.4351,3.4905,3.4837,3.536,3.5868,3.6029,3.6054,3.6675,3.8448,3.972,3.9967,3.8539,4.0152,4.0682,3.8852,3.9904,3.9894,3.7917,3.8406,3.8727,3.8566,3.8576,3.8576,3.8576,3.8085,3.7836,3.7836,3.8043,3.8821,4.0136,4.0206,4.1006,4.2402,4.2402,4.2595,4.2913,4.2779,4.2874,4.3114,4.2932,4.2996,4.3176,4.2708,4.2487,4.2625,4.4367,4.5074,4.5596,3.2569,3.2743,3.2475,3.1649,3.1175,3.0635,2.9819,2.9706,2.9833,3.0246,3.0992,3.1649,3.2067,3.2499,3.2762,3.2762,3.2381,3.1794,3.095,2.973,2.8866,2.843,2.8438,2.8613,2.8942,3.0465,3.1383,3.1644,3.115,3.087,3.0785,2.958,2.8785,2.8405,2.8433,2.8257,2.8004,2.8886,3.0546,3.2767,3.4641,0.0,3.7905,3.9309,3.9293,3.8736,4.0625,4.0706,3.9846,3.9421,3.8751,0.0,0.0,3.3996,3.2815,0.0,2.9478,2.8998,0.0,0.0,0.0,2.7419,0.0,0.0,0.0,2.8419,2.8903,3.1713,3.2284,3.248,3.3262,3.3719,3.4151,3.4577,3.5021,3.5694,3.6833,3.8396,3.9231,3.8755,3.9805,3.9994,3.8546,3.9189,3.9088,3.7612,3.7941,3.8201,3.8201,3.8201,3.8201,3.8201,3.7818,3.7595,3.7595,3.7595,3.8371,3.9904,3.9904,4.0753,4.2297,4.2297,4.2384,4.2545,4.2379,4.2391,4.2527,4.2307,4.2259,4.2342,4.2282,4.2118,4.2165,4.395,4.4728,4.5336,3.3183,3.3263,3.2982,3.2443,3.1555,3.0724,3.0251,3.0025,3.034,3.1461,3.2154,3.2669,3.2964,3.2831,3.3077,3.3933,3.2496,3.1551,3.1567,2.9992,2.8942,2.8628,2.8691,2.8913,2.9283,3.0895,3.1634,3.144,3.1381,3.096,3.0173,2.9372,2.8999,2.9005,2.9152,2.9037,2.8766,2.9741,0.0,3.2827,0.0,3.712,3.8376,3.9442,3.9775,3.9805,4.0733,4.1127,4.1072,4.0386,3.9637,3.8794,3.7484,3.6511,0.0,0.0,0.0,0.0,0.0,0.0,0.0,0.0,0.0,2.8228,0.0,0.0,0.0,3.0181,3.0171,0.0,0.0,0.0,0.0,0.0,0.0,0.0,0.0,3.6768,0.0,3.8602,3.8733,3.8589,3.8123,3.8167,3.8061,3.7595,3.7737,3.7836,3.7836,3.7836,3.7836,3.7836,3.7675,3.7595,3.7595,3.7595,3.8371,3.9904,3.9904,4.0753,4.2297,4.2297,4.2297,4.2287,4.2083,4.1994,4.1984,4.171,4.1604,4.1637,4.1963,4.1899,4.1846,4.3461,4.4381,4.5214,3.3074,3.278,3.2461,3.3132,3.1944,3.11,3.1729,3.1217,3.1593,3.3869,3.416,3.4679,3.6105,3.5522,3.5355,3.6172,3.476,3.3871,3.3982,3.2425,3.0866,2.9437,2.9495,2.9134,2.8208,2.9874,3.0651,3.0463,3.0438,3.036,3.0173,2.9372,2.8999,2.9023,2.9745,3.0489,3.1307,3.2932,3.4228,0.0,3.7186,3.7554,0.0,3.902,3.9212,3.8644,3.9818,4.0757,4.1268,0.0,3.8569,3.7461,0.0,3.612,3.3241,0.0,0.0,0.0,0.0,0.0,0.0,0.0,2.7624,0.0,0.0,0.0,2.7687,2.8681,0.0,0.0,0.0,0.0,0.0,0.0,0.0,0.0,3.3741,3.5155,3.6145,3.6118,3.6138,3.6249,3.6528,3.6763,3.7063,3.7404,3.8199,3.8656,3.8656,3.8656,3.8656,3.8656,3.7978,3.7595,3.7595,3.7595,3.8371,3.9904,3.9904,4.0753,4.2297,4.2297,4.2297,4.2287,4.2083,4.1994,4.1984,4.171,4.1604,4.1604,4.1642,4.1697,4.1896,4.2882,4.379,4.476,3.2405,3.1947,3.1619,3.2494,3.1687,3.1006,3.1349,3.1518,3.1794,3.2313,3.3577,3.4841,3.5975,3.5678,0.0,0.0,0.0,3.5318,0.0,0.0,3.3381,3.3722,3.2403,3.1472,3.1028,3.1203,3.1238,3.1103,3.0572,3.028,3.0232,2.939,2.9244,2.9708,3.0057,3.0992,3.2444,0.0,3.4736,0.0,0.0,0.0,0.0,3.8895,3.9749,3.9854,3.9773,4.0461,4.1077,0.0,3.927,0.0,0.0,0.0,0.0,0.0,0.0,0.0,0.0,0.0,0.0,0.0,0.0,0.0,2.9412,0.0,2.7705,0.0,0.0,0.0,0.0,0.0,0.0,0.0,3.2383,0.0,0.0,0.0,3.4549,0.0,0.0,0.0,3.6798,3.655,3.6335,3.6298,3.7094,3.7595,3.7639,3.83,3.892,3.9413,3.8701,3.829,3.829,3.7836,3.8371,3.9904,3.9904,4.0753,4.2297,4.2297,4.2297,4.2287,4.2121,4.2065,4.2044,4.1812,4.1714,4.1703,4.1626,4.1681,4.1971,4.33,4.3793,4.4093,3.192,3.1543,3.1306,3.1965,3.156,3.1305,3.173,3.2681,3.3294,3.3108,3.4577,3.6013,3.7054,3.6658,0.0,0.0,3.7234,3.6818,0.0,0.0,3.5212,0.0,0.0,0.0,0.0,3.2123,3.1764,3.1691,3.0779,3.0426,3.0611,2.9517,2.9543,3.0522,3.0522,3.1519,3.3315,0.0,3.5789,3.6752,3.7823,3.8084,3.7915,3.8846,3.9795,4.0548,3.9825,4.014,4.0637,3.8806,3.9527,0.0,3.8584,0.0,0.0,0.0,0.0,0.0,3.5701,0.0,0.0,0.0,0.0,0.0,0.0,0.0,0.0,0.0,0.0,0.0,0.0,0.0,0.0,0.0,0.0,3.2783,0.0,3.2029,0.0,0.0,0.0,0.0,0.0,3.6201,3.5897,3.5314,3.6189,3.6758,3.6809,3.7944,3.8907,3.9583,3.928,3.8905,3.8487,3.8308,3.879,3.9904,4.0118,4.0967,4.2297,4.2297,4.2297,4.2297,4.2156,4.2093,4.2082,4.1888,4.1791,4.1797,4.1648,4.1827,4.2304,4.3523,4.3767,4.3796,3.1897,3.1872,3.1883,3.1979,3.1871,3.2291,3.3869,3.5498,3.711,3.8623,3.8786,0.0,0.0,0.0,0.0,0.0,0.0,3.8703,3.8942,0.0,3.5786,0.0,0.0,3.2591,0.0,0.0,3.178,3.1691,3.0831,3.0749,3.1427,2.978,2.9837,3.1354,3.1354,3.2366,3.4221,3.6788,3.842,3.9425,4.1211,4.1424,4.0478,0.0,3.8814,3.9743,3.9718,0.0,0.0,3.9562,3.8487,0.0,0.0,0.0,0.0,0.0,0.0,0.0,0.0,0.0,0.0,3.4466,0.0,0.0,0.0,0.0,2.957,0.0,0.0,0.0,0.0,0.0,0.0,0.0,0.0,0.0,0.0,0.0,0.0,0.0,0.0,0.0,0.0,3.5381,3.5797,3.4798,3.6004,3.679,3.6809,3.7944,3.8658,3.8834,3.9494,3.9147,3.7639,3.9093,3.9851,3.9904,4.0689,4.1502,4.2297,4.2297,4.2297,4.2297,4.2156,4.2093,4.2082,4.1888,4.1791,4.1797,4.1648,4.2205,4.3056,4.312,4.3485,4.4161,3.2711,3.2992,3.2986,3.2024,3.1388,3.1344,3.2387,3.3963,0.0,0.0,3.9069,0.0,0.0,4.3287,4.3263,0.0,0.0,4.2136,4.2725,4.0955,0.0,0.0,0.0,3.756,0.0,0.0,0.0,3.2488,3.1627,3.1314,3.1543,3.0349,3.0644,3.2167,3.1647,3.2691,0.0,0.0,0.0,0.0,0.0,4.0094,3.9813,0.0,3.932,3.9694,4.0233,4.0143,0.0,3.9502,3.9933,4.0513,4.0314,4.0444,4.0815,4.1593,4.0622,0.0,0.0,0.0,3.9187,3.942,0.0,0.0,0.0,0.0,0.0,0.0,0.0,0.0,0.0,0.0,0.0,0.0,0.0,0.0,0.0,0.0,0.0,0.0,0.0,0.0,0.0,0.0,3.3243,3.2699,3.2559,3.2963,3.4032,3.5612,3.7005,3.8178,3.8838,3.8877,3.8268,3.8877,3.9394,3.9834,4.0687,4.152,4.2297,4.2297,4.2297,4.2297,4.2256,4.2176,4.2082,4.198,4.1873,4.1797,4.1648,4.2377,4.3557,4.4095,4.4168,4.4055,3.3512,3.3678,3.3468,3.1993,3.1517,3.1995,3.3893,0.0,0.0,0.0,4.177,0.0,4.6332,0.0,4.5544,0.0,4.4984,4.4141,4.4636,4.2621,0.0,4.2258,4.103,0.0,0.0,0.0,0.0,0.0,3.3099,3.2607,3.295,3.1378,3.1494,3.2993,3.2192,3.2929,3.493,3.7367,3.8423,0.0,0.0,4.0435,0.0,0.0,4.0158,4.0484,0.0,4.0685,4.0502,4.0364,4.1161,4.2033,4.1065,4.1721,4.2815,4.2756,4.2216,4.1781,4.2454,4.2289,0.0,4.2152,4.0174,0.0,3.748,0.0,0.0,0.0,0.0,0.0,0.0,0.0,0.0,0.0,0.0,0.0,0.0,3.0823,0.0,0.0,0.0,0.0,0.0,0.0,3.2203,3.0549,3.0924,3.151,0.0,3.4517,3.6462,3.7853,3.9027,3.9285,3.862,3.9553,3.9954,3.9813,4.0655,4.15,4.2297,4.1981,4.1999,4.2297,4.2297,4.2207,4.2093,4.203,4.1923,4.178,4.1703,4.2488,4.3772,4.4276,4.4431,4.4409,3.4262,3.401,3.3479,3.2078,3.2428,0.0,0.0,0.0,4.2414,0.0,4.6682,4.759,4.8378,4.7104,4.6312,4.6574,4.5499,4.4794,4.4741,4.257,0.0,0.0,4.0095,3.922,3.8828,0.0,0.0,0.0,0.0,3.4567,3.5509,3.2742,3.2308,3.377,3.2993,3.3084,3.4042,3.7772,3.9337,3.9469,4.1082,4.2328,4.303,4.1302,4.1273,4.2023,4.1204,4.1392,4.2004,4.2042,4.2042,4.2168,4.3099,4.2791,4.2269,4.3271,4.3561,4.3574,4.3648,4.3667,4.3484,4.2717,4.127,0.0,0.0,0.0,3.7007,0.0,0.0,0.0,0.0,0.0,0.0,0.0,0.0,0.0,0.0,0.0,0.0,0.0,0.0,0.0,0.0,3.2748,3.2411,2.8601,3.0948,3.2203,0.0,3.4486,3.6763,3.7808,3.9726,4.0063,3.8673,4.0937,4.1329,3.9866,4.0676,4.1502,4.2279,4.1439,4.152,4.2297,4.2297,4.2207,4.2093,4.203,4.1923,4.1791,4.1791,4.2562,4.3682,4.3738,4.4355,4.517,3.5754,3.5689,3.5546,0.0,3.5411,3.5729,0.0,0.0,0.0,0.0,4.7819,5.0071,5.0694,5.0554,5.0158,4.9447,4.7598,0.0,0.0,0.0,0.0,4.571,4.454,4.3667,4.3264,4.2043,0.0,3.9984,0.0,3.6199,3.6404,3.3598,3.2828,3.3788,3.3587,3.3605,3.4072,3.8322,4.051,4.112,4.0861,4.1327,4.2132,0.0,4.2484,4.375,4.2956,4.2368,4.2098,4.275,4.2537,4.2168,4.3099,4.3225,4.3238,4.4184,4.4468,4.4487,4.4555,4.4574,4.4517,4.4302,4.3042,4.1671,0.0,0.0,0.0,0.0,0.0,0.0,0.0,0.0,0.0,0.0,0.0,0.0,0.0,0.0,0.0,3.1154,0.0,0.0,0.0,3.0311,2.95,2.8512,2.7978,0.0,3.0488,0.0,3.3479,3.6899,3.6005,3.6757,3.9465,3.9188,3.9582,4.0694,4.1566,4.2081,4.2297,4.2063,4.2098,4.2297,4.2297,4.2207,4.2093,4.203,4.1923,4.1791,4.1791,4.2465,4.3515,4.4403,4.5082,4.5488,3.596,3.582,0.0,3.6237,0.0,0.0,3.9324,4.1941,0.0,4.7068,4.937,0.0,5.17,5.1914,5.173,5.1025,4.8595,0.0,4.8212,0.0,0.0,4.7014,4.5865,4.4764,4.3874,4.296,0.0,4.0985,0.0,3.7007,3.7385,3.448,3.336,3.3825,3.4167,3.4314,3.4591,3.8676,4.1136,4.2275,4.1742,4.2116,0.0,4.2497,4.3233,4.4451,4.3982,4.3513,4.3112,4.3257,4.2975,4.2656,4.3198,4.3388,4.3578,4.4453,4.4719,4.4757,4.4796,4.4827,4.4852,4.4852,4.4189,4.3399,4.2967,4.2194,4.1442,0.0,4.0199,3.9157,0.0,0.0,0.0,0.0,0.0,0.0,0.0,0.0,0.0,0.0,3.0722,0.0,3.0951,2.942,2.8253,2.7903,2.769,0.0,0.0,0.0,3.3058,3.4891,3.5261,3.6268,3.8026,3.8125,3.8634,3.9558,4.0045,4.0802,4.1719,4.1312,4.1556,4.2297,4.2297,4.2205,4.2055,4.2026,4.1891,4.1769,4.2195,4.2981,4.3952,4.4604,4.5002,4.5251,3.5802,3.5508,0.0,0.0,0.0,0.0,0.0,4.537,0.0,5.0242,0.0,5.1426,5.1803,5.195,5.1864,5.1522,0.0,4.7849,4.9108,4.6214,4.5215,4.6946,4.5738,4.4406,4.3063,4.2764,4.2285,0.0,3.8476,3.7443,3.8403,3.5266,3.3807,3.3844,3.4637,3.5236,0.0,3.8839,4.1218,4.2927,4.2927,4.3476,4.4222,4.3425,4.367,4.4426,4.4426,4.4454,4.4395,4.3688,4.3388,4.3313,4.3426,4.3416,4.3545,4.4354,4.4646,4.4692,4.4705,4.4732,4.4796,4.4796,4.4796,4.4594,4.3907,4.3693,4.3422,4.2611,4.1801,4.0484,0.0,0.0,0.0,0.0,0.0,0.0,0.0,0.0,0.0,0.0,0.0,0.0,0.0,0.0,0.0,0.0,0.0,0.0,0.0,0.0,3.3794,3.2983,3.5714,3.6877,3.6219,3.7606,3.8279,3.8169,3.8088,3.9109,4.1032,4.0296,4.0816,4.2297,4.2297,4.2191,4.1998,4.2005,4.1858,4.1719,4.2716,4.3632,4.4445,4.4617,4.4645,4.4806,3.7434,0.0,0.0,0.0,0.0,4.5249,4.8647,5.106,5.1948,5.0413,5.2284,5.3059,5.1206,5.1591,5.1553,5.0393,4.9208,0.0,0.0,0.0,0.0,4.8613,4.7136,4.6158,4.5893,4.4468,4.3998,0.0,4.0172,3.848,3.9299,3.555,3.3807,3.3844,3.4637,0.0,3.8956,3.8805,0.0,4.2596,4.2596,4.2865,4.3294,4.3684,4.3937,4.409,4.409,4.4274,4.4489,4.4339,4.3857,4.3426,4.4076,4.3846,4.3497,4.4359,4.4605,4.4632,4.4673,4.4712,4.4725,4.4725,4.4725,4.4687,4.4536,4.4492,4.4441,4.4277,4.3605,4.2662,4.1418,0.0,0.0,0.0,0.0,0.0,0.0,0.0,0.0,0.0,0.0,3.1992,0.0,0.0,0.0,0.0,0.0,0.0,0.0,0.0,3.2311,0.0,3.383,3.5083,0.0,0.0,3.8468,4.0655,4.0157,4.0446,4.1414,4.1707,4.1999,4.2297,4.2297,4.2215,4.2079,4.2019,4.1912,4.1849,4.2744,4.3285,4.3702,4.5133,4.5235,4.471,3.8017,0.0,0.0,0.0,0.0,0.0,0.0,5.3133,5.4395,5.1471,5.1925,5.2087,5.093,5.1672,5.1898,5.0958,4.9758,4.934,5.0025,4.7979,4.7253,4.8425,4.6846,4.567,4.5118,4.3972,4.3717,4.4415,4.0312,3.876,3.9525,3.6044,3.4204,3.3862,3.5011,3.7071,0.0,0.0,0.0,4.2546,4.3077,4.3476,4.3781,4.393,4.4005,4.4005,4.4005,4.4105,4.4199,4.3971,4.3613,4.3376,4.3764,4.3641,4.3505,4.4319,4.4565,4.4599,4.4592,4.4619,4.4652,4.4652,4.4652,4.4659,4.4699,4.4679,4.4652,4.4652,4.4339,4.3541,4.1795,3.9511,0.0,0.0,0.0,0.0,0.0,0.0,0.0,0.0,0.0,0.0,0.0,0.0,0.0,0.0,0.0,0.0,0.0,0.0,3.2305,0.0,0.0,0.0,3.8148,0.0,3.894,4.0,3.9567,3.9875,4.084,4.1134,4.1636,4.2308,4.2476,4.2363,4.2034,4.1862,4.1902,4.2126,4.2829,4.3554,4.4375,4.5494,4.567,4.5491,3.9707,3.831,0.0,0.0,4.6224,4.9503,5.0797,5.3764,5.4978,5.26,5.1613,5.1036,5.0758,5.1586,5.1806,5.0904,4.9956,4.9448,4.9574,4.7788,4.6987,4.7513,4.6257,4.5072,4.4045,4.3184,4.3033,0.0,4.0217,3.88,3.9238,3.6736,3.5117,3.4332,0.0,0.0,0.0,0.0,4.1568,4.2642,4.3518,4.4071,4.4361,4.4002,4.3876,4.3876,4.3876,4.3876,4.3846,4.362,4.3557,4.3557,4.3557,4.3598,4.3737,4.4245,4.4482,4.4544,4.4426,4.4482,4.4572,4.4572,4.4572,4.4592,4.4646,4.4619,4.4578,4.4592,4.4467,4.374,4.177,4.044,0.0,0.0,0.0,0.0,0.0,0.0,0.0,0.0,0.0,0.0,3.3186,0.0,0.0,0.0,0.0,0.0,2.9676,0.0,0.0,0.0,0.0,3.6585,3.7487,0.0,3.9405,3.9298,3.904,3.9402,4.032,4.0664,4.137,4.2328,4.2646,4.2506,4.1984,4.1743,4.1892,4.2339,4.2886,4.3914,4.5172,4.5716,4.6067,4.6447,0.0,0.0,0.0,0.0,0.0,5.211,5.376,5.3833,5.3568,5.3229,5.2649,5.1782,5.057,5.0797,5.0222,4.8152,4.9077,4.9024,4.7318,4.8232,4.8083,4.6437,4.6385,4.5971,4.5091,4.3452,4.2976,0.0,4.0795,3.8995,0.0,3.7698,0.0,0.0,0.0,0.0,0.0,4.0687,4.1892,4.2813,4.3282,4.3685,4.3994,4.361,4.3457,4.3457,4.3457,4.3457,4.354,4.4176,4.4395,4.4395,4.4395,4.4395,4.4353,4.4117,4.4274,4.4433,4.4128,4.4262,4.4515,4.4515,4.4515,4.4515,4.4522,4.4503,4.4535,4.4585,4.4022,4.3425,4.314,4.1274,3.9193,0.0,0.0,0.0,0.0,0.0,0.0,0.0,0.0,0.0,0.0,3.0953,3.0359,0.0,3.0632,0.0,0.0,0.0,0.0,3.3095,3.455,3.6023,3.7487,3.8533,3.9678,4.0883,4.0736,4.0655,4.0695,4.1987,4.2472,4.2328,4.2646,4.2506,4.1994,4.1841,4.1994,4.2339,4.2886,4.3914,4.5172,4.5773,4.6466,4.7209,0.0,0.0,0.0,0.0,0.0,0.0,0.0,5.4485,5.382,5.3205,5.2703,5.2252,5.1868,5.1281,5.0676,5.0112,4.9897,4.9553,4.8979,4.8403,4.7798,4.7196,4.6079,4.5411,4.5265,4.3996,4.3716,0.0,0.0,0.0,0.0,0.0,0.0,0.0,0.0,4.0002,4.0468,4.0991,4.1828,4.2847,4.3239,4.3635,4.3966,4.3542,4.3406,4.3371,4.3132,4.3195,4.3483,4.4025,4.434,4.4501,4.4501,4.4361,4.4211,4.4288,4.4248,4.4211,4.427,4.4397,4.4501,4.4501,4.4501,4.4515,4.4544,4.4535,4.4528,4.4578,4.4335,4.3946,4.3408,4.2566,4.1073,3.8398,0.0,0.0,0.0,0.0,0.0,0.0,0.0,0.0,0.0,3.2604,3.1758,3.2727,0.0,0.0,0.0,0.0,0.0,3.5288,0.0,3.7748,4.0828,4.0825,4.133,4.2363,4.2134,4.1971,4.1861,4.2513,4.2861,4.294,4.2799,4.2486,4.2055,4.1866,4.2216,4.2867,4.3023,4.406,4.5563,4.6365,4.6857,4.7321,4.9933,0.0,5.0382,0.0,5.3627,5.4152,5.5264,5.4493,5.3453,5.2599,5.2118,5.1846,5.1898,5.102,5.0379,5.0269,4.9897,4.9379,4.8708,4.7772,4.708,4.6708,4.5482,0.0,4.5055,4.4207,4.4034,4.4565,4.2396,0.0,0.0,0.0,0.0,0.0,4.0325,4.0978,4.1316,4.1411,4.1914,4.2694,4.3195,4.3577,4.3793,4.35,4.3406,4.3354,4.2932,4.3069,4.3457,4.3849,4.4218,4.4501,4.4501,4.4281,4.4028,4.414,4.4086,4.4036,4.4147,4.4328,4.4501,4.4501,4.4501,4.4446,4.4257,4.4192,4.4165,4.4201,4.4214,4.4113,4.3775,4.3538,4.2586,4.0067,0.0,0.0,0.0,0.0,0.0,0.0,3.4277,3.3576,3.6103,3.3599,3.2512,3.4209,0.0,0.0,0.0,0.0,0.0,0.0,0.0,0.0,4.1967,4.1525,4.1908,4.313,4.3159,4.2971,4.2603,4.2852,4.3198,4.3533,4.2977,4.2565,4.2251,4.2005,4.241,4.3194,4.3159,4.4358,4.6153,4.6575,4.7191,4.7974,5.2897,5.3522,5.4325,5.6888,5.5959,5.4983,5.5255,5.344,5.1865,5.1368,5.085,5.0324,4.9796,4.9492,4.8648,4.699,4.8357,4.8021,4.4963,4.6115,4.6049,0.0,0.0,4.4714,4.4512,4.3989,4.3573,4.3327,0.0,0.0,4.0621,0.0,4.154,4.085,4.2715,4.2639,4.1173,4.1958,4.2279,4.2361,4.3105,4.3406,4.3414,4.3406,4.3406,4.3354,4.2932,4.3069,4.3457,4.3849,4.4218,4.4501,4.4501,4.4281,4.3923,4.3525,4.3685,4.3916,4.3517,4.396,4.4501,4.4501,4.4501,4.4282,4.3508,4.332,4.332,4.332,4.332,4.3604,4.4509,4.3981,4.3126,4.2297,0.0,0.0,0.0,0.0,0.0,0.0,3.4314,3.3155,3.4049,3.29,0.0,0.0,0.0,0.0,0.0,0.0,0.0,3.4409,3.3757,0.0,3.9401,3.9565,4.0758,4.3011,4.368,4.3494,4.2614,4.3139,4.3609,4.3939,4.315,4.2761,4.2663,4.2262,4.2529,4.3194,4.3194,4.48,4.6972,4.613,4.7417,4.9457,5.4578,5.5413,5.6204,5.6859,5.6207,5.5459,5.5071,5.3274,5.172,5.1108,4.9791,4.8865,4.8697,4.8733,4.8759,0.0,4.8261,4.7686,0.0,4.6435,4.5881,4.5445,4.432,4.3762,4.3888,4.3542,4.3313,4.3239,0.0,0.0,0.0,4.2282,4.2348,4.1799,4.2944,4.2896,4.194,4.219,4.2297,4.2331,4.2809,4.2996,4.2996,4.2996,4.2996,4.295,4.2595,4.2856,4.3423,4.356,4.3999,4.4501,4.4501,4.4281,4.3963,4.386,4.3712,4.3627,4.3769,4.3978,4.4211,4.4433,4.4524,4.4358,4.3544,4.3375,4.3512,4.4015,4.4195,4.4324,4.4534,4.4518,4.3731,4.1364,4.2224,0.0,0.0,0.0,0.0,0.0,3.4835,3.3973,3.5573,3.4358,0.0,0.0,0.0,0.0,0.0,0.0,0.0,0.0,3.8059,0.0,4.1434,4.1314,4.2153,4.3968,4.4172,4.4139,4.3892,4.408,4.4094,4.3963,4.344,4.3042,4.2742,4.2274,4.2596,4.339,4.3896,4.5286,4.7067,4.7337,4.8333,4.9498,5.427,5.4969,5.5529,5.5389,5.4947,5.4489,5.4139,5.2824,5.1513,5.0568,4.9377,4.8401,4.7812,4.7861,0.0,4.8741,4.7697,4.7223,4.7759,4.6287,4.5562,4.5922,4.4561,4.3863,4.3969,4.3926,0.0,4.3843,4.3697,4.3357,4.2833,4.3332,4.3233,4.2663,4.3177,4.2986,4.2297,4.2297,4.2297,4.2338,4.2666,4.281,4.281,4.281,4.281,4.2753,4.2414,4.2682,4.3195,4.3354,4.3807,4.434,4.4466,4.4281,4.4005,4.4005,4.3679,4.3381,4.3695,4.3939,4.4136,4.4288,4.444,4.4351,4.3556,4.3105,4.3104,4.3902,4.4405,4.4692,4.4659,4.477,4.4266,4.2388,4.3378,4.3446,4.0732,0.0,0.0,0.0,0.0,0.0,0.0,3.7256,3.7112,0.0,0.0,0.0,0.0,0.0,3.659,3.841,3.9393,4.0627,4.2111,4.2069,4.2823,4.4354,4.4404,4.4466,4.4501,4.4501,4.4383,4.4166,4.3793,4.3483,4.3212,4.2771,4.3005,4.3701,4.4478,4.5677,4.7098,4.7894,4.8739,4.9509,5.2475,5.2756,5.2994,0.0,5.2732,5.2571,5.2659,5.2178,5.1301,4.9943,4.9519,4.8758,4.7259,4.708,4.7135,4.7276,0.0,0.0,4.7214,4.5781,4.5132,4.5646,4.504,4.4651,4.453,4.483,4.4946,4.4896,4.4751,4.4632,4.4501,4.4501,4.4113,4.3447,4.344,4.3032,4.2371,4.2359,4.2338,4.2359,4.2656,4.2772,4.2772,4.2772,4.2772,4.2715,4.2404,4.2516,4.2866,4.3257,4.3669,4.4059,4.439,4.4281,4.3978,4.3974,4.3605,4.325,4.3372,4.3817,4.4199,4.4044,4.4188,4.4205,4.3545,4.2731,4.2349,4.3207,4.4092,4.4757,4.4864,4.4808,4.477,4.4864,4.4622,4.4108,4.317,0.0,0.0,0.0,0.0,0.0,4.0719,4.0991,4.0408,0.0,0.0,0.0,0.0,0.0,3.6936,3.8302,3.8664,3.977,4.1774,4.2096,4.2943,4.4307,4.4437,4.4501,4.4501,4.4501,4.4501,4.4487,4.4143,4.4005,4.3974,4.3569,4.3635,4.4079,4.495,4.5991,4.7098,4.7905,4.8758,4.949,0.0,0.0,5.2952,5.2798,5.2826,5.2806,5.257,5.2036,5.1333,5.0503,4.9933,4.9172,4.8032,4.7931,4.7692,4.7124,4.6525,4.6333,4.667,4.5659,4.5154,4.5391,4.433,4.3762,4.3835,4.3817,4.4109,4.4757,4.4725,4.4632,4.4501,4.4501,4.4291,4.3929,4.3721,4.343,4.306,4.2836,4.267,4.254,4.2621,4.2571,4.2414,4.2414,4.2414,4.2422,4.2338,4.2516,4.2866,4.3257,4.3669,4.4059,4.439,4.4281,4.3931,4.3635,4.344,4.3363,4.3397,4.35,4.3677,4.3931,4.3557,4.3319,4.4115,4.3617,4.3233,4.4113,4.456,4.4796,4.4827,4.4877,4.4883,4.4776,4.4183,4.2975,4.0785,3.9432,0.0,0.0,3.8039,3.9077,3.9988,4.1459,4.204,0.0,0.0,4.1112,4.1967,4.1557,4.118,4.0923,4.2253,4.2882,4.2692,4.3477,4.4025,4.4368,4.4466,4.4501,4.4501,4.4501,4.4501,4.4487,4.4143,4.4005,4.3955,4.3511,4.3595,4.4146,4.5508,4.644,4.7091,4.7852,4.8712,4.9407,5.204,5.2145,5.2376,5.2267,5.2513,5.2583,5.2196,5.204,5.1634,5.0681,5.0266,4.9579,4.8335,4.8199,4.7877,4.7062,4.6349,4.6288,4.7033,4.5672,4.5201,4.6038,4.4761,4.4156,4.4366,4.4304,4.4451,4.4783,4.4783,4.4699,4.4501,4.4501,4.4331,4.4027,4.3804,4.3533,4.323,4.2892,4.2699,4.2589,4.25,4.2399,4.2297,4.2297,4.2297,4.2297,4.2297,4.2414,4.2664,4.3204,4.3552,4.3817,4.4347,4.4281,4.3966,4.3744,4.3493,4.3311,4.338,4.3474,4.3642,4.4109,4.3461,4.3036,4.4268,4.3904,4.354,4.4416,4.4712,4.4827,4.4877,4.4895,4.4757,4.4273,4.3102,4.1475,3.9239,3.8184,3.7634,3.7556,3.894,4.0503,4.1984,4.3094,4.3447,4.2787,4.2218,0.0,4.3072,4.2693,4.2597,4.2922,4.3915,4.4162,4.3554,4.4108,4.4411,4.4458,4.4487,4.4501,4.4501,4.4501,4.4524,4.4578,4.44,4.4352,4.4395,4.4072,4.4075,4.4401,4.5519,4.6377,4.7001,4.7345,4.8328,4.9369,5.1705,5.1437,5.1369,5.1494,5.1844,5.2047,5.1841,5.2108,5.1938,5.0754,5.058,4.9954,4.8377,4.8199,4.7877,4.7062,4.6373,4.6467,4.7599,4.5742,4.5335,4.6983,4.5569,4.4954,4.5468,4.5359,4.517,4.4895,4.4895,4.4751,4.4501,4.4501,4.4361,4.4086,4.3815,4.3543,4.3268,4.2834,4.2629,4.2589,4.2419,4.2328,4.2297,4.2297,4.2297,4.2297,4.2297,4.232,4.2484,4.3168,4.344,4.36,4.4292,4.431,4.4067,4.4013,4.3631,4.325,4.3362,4.3525,4.3767,4.4214,4.3606,4.317,4.425,4.397,4.3697,4.4467,4.4712,4.484,4.4955,4.4889,4.4518,4.3718,4.2027,4.0215,3.8559,0.0,3.7965,3.9533,4.0678,4.2276,4.4656,4.4827,4.4462,4.3712,4.2803,4.2557,4.3179,4.2548,4.2835,4.4277,4.4423,4.4387,4.4237,4.4358,4.4433,4.4501,4.4494,4.4487,4.4494,4.4501,4.4558,4.4672,4.4692,4.4764,4.487,4.4751,4.4652,4.4679,4.534,4.6042,4.6701,4.6696,4.7802,4.9166,5.0526,4.9944,4.9894,5.0584,5.0752,5.1131,5.2142,5.2209,5.1897,5.1171,5.0943,5.0157,4.8383,4.8199,4.7877,4.7062,4.6884,4.6894,4.7102,4.5851,4.5754,4.7258,4.5446,4.4978,4.6298,4.5646,4.517,4.4895,4.4895,4.4751,4.4501,4.4501,4.453,4.4566,4.3972,4.3732,4.3746,4.3114,4.2757,4.2599,4.257,4.245,4.2297,4.2297,4.2297,4.2297,4.2297,4.2476,4.2781,4.3239,4.3627,4.3971,4.4376,4.4454,4.4368,4.4082,4.3703,4.3362,4.3397,4.3423,4.3474,4.355,4.3682,4.3922,4.44,4.4395,4.4373,4.4621,4.4705,4.477,4.4883,4.4815,4.4442,4.3649,4.1996,4.0453,3.9508,0.0,3.9508,4.0566,4.202,4.3433,4.4695,4.4712,4.4576,4.4444,4.417,4.4053,4.4188,4.4011,4.4067,4.4376,4.4351,4.4344,4.438,4.4451,4.4494,4.4501,4.4433,4.4411,4.4411,4.4461,4.4515,4.4549,4.4652,4.4732,4.4815,4.4672,4.4605,4.4679,4.534,4.5657,4.5802,4.6456,4.7389,4.8309,5.075,4.9928,4.9543,5.0358,5.0513,5.0836,5.188,5.1932,5.1782,5.1509,5.1,5.0199,4.8936,4.8437,4.7877,4.7062,4.7009,4.7009,4.7009,4.6176,4.5948,4.6572,4.5466,4.5162,4.584,4.5493,4.517,4.4895,4.4895,4.4751,4.4501,4.4501,4.4524,4.4565,4.3965,4.3732,4.3756,4.3041,4.2679,4.2589,4.248,4.2379,4.2297,4.2297,4.2297,4.2297,4.2297,4.2516,4.2866,4.3257,4.3669,4.4059,4.439,4.4501,4.4426,4.4097,4.3728,4.3344,4.3141,4.3078,4.3177,4.3619,4.3693,4.3815,4.4364,4.4501,4.4535,4.4626,4.4679,4.4725,4.477,4.4718,4.4356,4.3476,4.1454,0.0,3.9533,3.9501,3.982,4.0678,4.2729,4.4238,4.4706,4.4501,4.4329,4.4286,4.398,4.3785,4.3755,4.3931,4.403,4.4086,4.4248,4.4394,4.4447,4.4487,4.4714,4.5146,4.4632,4.4641,4.5027,4.466,4.453,4.4612,4.4757,4.4864,4.4943,4.4827,4.4751,4.4763,4.4909,4.5214,4.5574,4.5334,4.6431,4.798,5.0792,4.9678,4.902,4.9817,5.012,5.0482,5.1298,5.1583,5.1631,5.1453,5.0727,4.9912,4.9127,4.8371,4.7669,4.7045,4.7009,4.7009,4.7009,4.6393,4.605,4.6085,4.5626,4.5334,4.5249,4.5219,4.5108,4.4895,4.4864,4.4719,4.4501,4.4501,4.4466,4.4361,4.3855,4.3575,4.3457,4.2798,4.253,4.252,4.2369,4.2297,4.2297,4.2297,4.2341,4.2414,4.2414,4.2703,4.3132,4.344,4.3801,4.4158,4.4411,4.4458,4.434,4.4082,4.3695,4.3267,4.2809,4.2742,4.2941,4.3662,4.366,4.3667,4.4299,4.4494,4.4549,4.4585,4.4666,4.4712,4.4712,4.4685,4.4343,4.341,0.0,4.0037,4.0274,4.0169,4.0457,4.1457,4.332,4.4539,4.4539,4.4169,4.3988,4.4122,4.3625,4.3376,4.3515,4.3729,4.3995,4.4305,4.4403,4.4468,4.4487,4.4515,4.4808,4.5366,4.4896,4.4986,4.5559,4.5007,4.4826,4.4956,4.4871,4.4907,4.4997,4.4925,4.4858,4.4758,4.453,4.4808,4.5281,4.4583,4.5741,4.7604,4.9578,4.8216,4.7419,4.8234,4.8925,4.9662,5.0465,5.1226,5.1422,5.0691,4.9894,4.9109,4.8347,4.7562,4.7062,4.7009,4.7009,4.7009,4.7009,4.6271,4.6061,4.6618,4.5964,4.5434,4.5108,4.4985,4.4913,4.4895,4.4783,4.4639,4.4501,4.4501,4.434,4.4028,4.361,4.3212,4.2847,4.2484,4.2318,4.2318,4.2308,4.2297,4.2297,4.2297,4.2486,4.2762,4.2762,4.3266,4.3916,4.3958,4.4181,4.4473,4.4501,4.4296,4.4036,4.4013,4.3622,4.3087,4.2502,4.2524,4.2808,4.3249,4.3559,4.3868,4.4237,4.4466,4.4592,4.4599,4.4712,4.4783,4.4783,4.4796,4.4474,4.3534,0.0,0.0,4.29,4.2323,4.2411,4.4031,4.4113,4.4059,4.4059,4.3693,4.3769,4.4505,4.3828,4.3719,4.4471,4.4167,4.4554,4.5803,4.5081,4.4599,4.4404,4.453,4.4533,4.4408,4.5084,4.5458,4.5514,4.5514,4.5601,4.5673,4.5013,4.4725,4.4744,4.4846,4.4713,4.4436,4.4477,4.446,4.4487,4.5079,4.5898,4.6816,4.8787,4.7741,4.7259,4.8056,4.8817,4.9573,5.0375,5.0762,5.0852,5.0536,4.9406,4.8508,4.8234,4.7473,4.7009,4.7009,4.7009,4.7009,4.7009,4.6723,4.6243,4.5543,4.52,4.5015,4.498,4.4682,4.4487,4.4392,4.4355,4.4286,4.4207,4.491,4.48,4.4008,4.4101,4.3642,4.2781,4.2444,4.2297,4.2297,4.2297,4.2297,4.2297,4.2297,4.2506,4.281,4.281,4.3328,4.4005,4.4005,4.4196,4.4458,4.4494,4.4383,4.4188,4.3897,4.3347,4.2805,4.2699,4.2585,4.2674,4.3311,4.349,4.3644,4.4284,4.4544,4.4666,4.4666,4.4744,4.4764,4.4699,4.4718,4.4605,4.4205,0.0,4.3176,4.4107,4.3478,4.3579,4.5355,4.5303,4.5256,4.5583,4.5288,4.5047,4.4971,4.4838,4.4839,4.5017,4.5312,4.5649,4.5996,4.6245,4.63,4.6137,4.6178,4.6379,4.6724,4.6484,4.6319,4.6251,4.6402,4.5927,4.5007,4.5223,4.505,4.467,4.5045,4.5086,4.4894,4.4969,4.4919,4.4763,4.4598,4.5372,4.6588,4.8749,4.778,4.7259,4.8056,4.8633,4.9228,5.0001,5.0126,5.0126,5.0126,4.9008,4.8288,4.8526,4.7616,4.7098,4.7348,4.7152,4.7009,4.7009,4.6765,4.6174,4.5153,4.4718,4.46,4.4827,4.4525,4.4393,4.4476,4.4423,4.4471,4.4578,4.5217,4.498,4.4016,4.4421,4.3862,4.2635,4.267,4.2529,4.2297,4.2297,4.2297,4.2308,4.2414,4.2684,4.2987,4.3132,4.3584,4.4128,4.4128,4.4259,4.4397,4.4437,4.4325,4.4094,4.3693,4.3293,4.2995,4.3069,4.2912,4.2884,4.3425,4.3396,4.3453,4.4244,4.4551,4.4679,4.4699,4.4764,4.4796,4.4718,4.4952,4.516,4.5108,4.4799,4.482,4.5521,4.5105,4.5174,4.6366,4.6242,4.6132,4.6322,4.6093,4.5874,4.5682,4.5676,4.5562,4.5306,4.5982,4.626,4.597,4.7129,4.7703,4.7621,4.7072,4.7118,4.7714,4.7117,4.694,4.7149,4.7286,4.6603,4.5324,4.5479,4.5278,4.4833,4.5155,4.5162,4.5031,4.521,4.5018,4.4633,4.4464,4.5305,4.6548,4.9531,4.8253,4.7259,4.8056,4.8199,4.8455,4.9198,4.9293,4.9293,4.9293,4.8639,4.8472,4.9198,4.7925,4.7312,4.8127,4.7455,4.7009,4.6991,4.6245,4.5783,4.5783,4.4638,4.4214,4.4692,4.4577,4.4753,4.5285,4.5159,4.5334,4.5792,4.5332,4.4721,4.4033,4.4428,4.3759,4.2351,4.3161,4.3036,4.2297,4.2297,4.2297,4.2348,4.2675,4.3051,4.3449,4.3868,4.4173,4.4397,4.4397,4.4397,4.4383,4.4322,4.402,4.3646,4.3382,4.3543,4.375,4.3556,4.3493,4.3507,4.3495,4.3302,4.3308,4.412,4.4466,4.4619,4.4692,4.4821,4.4895,4.4914,4.5615,4.6209,4.6209,4.6891,4.7403,4.7403,4.741,4.7352,4.7236,4.6865,4.6416,4.5892,4.5708,4.5924,4.6655,4.6158,4.567,4.5333,4.5945,4.6187,4.5926,4.7593,4.8502,4.8507,4.6803,4.621,4.6718,4.6718,4.7205,4.8106,4.8106,4.7733,4.7016,4.5763,4.5231,4.5278,4.5084,4.4841,4.4643,4.5049,4.459,4.3837,4.4915,4.5815,4.6638,4.8958,4.8419,4.8084,4.8168,4.8199,4.8455,4.9198,4.8871,4.8526,4.8526,4.7848,4.7437,4.7658,4.7277,4.7098,4.733,4.7134,4.6759,4.6195,4.5681,4.5255,4.4967,4.4567,4.4418,4.457,4.4284,4.4376,4.4797,4.4764,4.4976,4.5384,4.6103,4.5855,4.4863,4.5555,4.4855,4.3161,4.3401,4.3036,4.2297,4.2297,4.2297,4.2348,4.2675,4.3051,4.3449,4.3868,4.4196,4.448,4.448,4.4416,4.4322,4.4259,4.3992,4.372,4.3833,4.3777,4.3758,4.4148,4.3795,4.3365,4.3644,4.3577,4.3603,4.424,4.4605,4.4827,4.4846,4.4943,4.5222,4.5849,4.5975,4.6246,4.7048,4.7233,4.7346,4.7584,4.7608,4.7787,4.827,4.8091,4.801,4.8218,4.8186,4.8125,4.8096,4.8205,4.7766,4.6617,4.7331,4.7508,4.6907,4.7439,4.8325,4.954,4.8987,4.8695,4.8651,4.8651,4.8467,4.8125,4.8779,4.7866,4.5792,4.6465,4.5616,4.3882,4.5563,4.5442,4.4288,4.5447,4.532,4.4551,4.5105,4.5815,4.6614,4.8562,4.8493,4.8432,4.8245,4.8437,4.8693,4.8835,4.849,4.8091,4.777,4.7294,4.7116,4.7437,4.7187,4.7134,4.7455,4.7187,4.6659,4.5856,4.543,4.5021,4.4618,4.4363,4.4314,4.4501,4.4166,4.42,4.4599,4.4446,4.4739,4.5456,4.602,4.5972,4.5474,4.6104,4.548,4.3971,4.4275,4.3786,4.2804,4.309,4.2908,4.2581,4.3257,4.3567,4.3685,4.4056,4.4296,4.4423,4.4423,4.4303,4.4177,4.4199,4.4065,4.3934,4.4128,4.4086,4.4106,4.4589,4.422,4.3788,4.4115,4.3835,4.3656,4.4299,4.4878,4.5313,4.5394,4.5763,4.6184,4.6512,4.6807,4.7178,4.7712,4.8085,4.8383,4.8629,4.8653,4.8775,4.9124,4.904,4.9005,4.91,4.9166,4.9133,4.8999,4.9298,4.8952,4.7681,4.7754,4.765,4.7231,4.7265,4.7968,4.9388,4.9741,4.9774,4.9525,4.9136,4.8835,4.8677,4.9241,4.8358,4.6424,4.7108,4.6519,4.5146,4.6039,4.5982,4.5407,4.6091,4.5931,4.5405,4.6112,4.669,4.7212,4.836,4.8522,4.8497,4.8334,4.8746,4.8913,4.8383,4.8181,4.783,4.7098,4.7009,4.7277,4.802,4.7437,4.7294,4.8038,4.7419,4.6659,4.5856,4.5388,4.4982,4.4609,4.4068,4.398,4.4487,4.4158,4.4192,4.4599,4.4224,4.4635,4.5795,4.5441,4.551,4.592,4.6294,4.5802,4.4756,4.5488,4.4935,4.3647,4.4324,4.3909,4.3,4.4136,4.4329,4.402,4.4361,4.4401,4.43,4.4285,4.4169,4.4047,4.4161,4.4184,4.4199,4.4263,4.443,4.4634,4.4926,4.4781,4.4606,4.4873,4.4257,4.3763,4.4444,4.5285,4.5992,4.6241,4.7016,4.7491,4.7066,4.793,4.8606,4.8322,4.9236,4.9992,5.0089,5.0108,5.0018,4.9764,4.9721,4.9506,4.8952,4.9125,4.9316,4.9422,4.9666,4.9381,4.8442,4.7598,4.7152,4.7217,4.7149,4.7589,4.8602,4.9377,4.9712,4.9589,4.8683,4.8674,4.9482,4.9505,4.9036,4.8157,4.7754,4.7698,4.7825,4.6582,4.6558,4.7279,4.6888,4.6517,4.633,4.7564,4.8023,4.814,4.8519,4.8666,4.8878,4.9031,4.8193,4.7854,4.8895,4.8032,4.7205,4.7027,4.7009,4.7062,4.7241,4.7098,4.7062,4.7241,4.7098,4.6659,4.5856,4.5129,4.4684,4.46,4.3871,4.3783,4.4404,4.4037,4.4081,4.4599,4.4355,4.4777,4.5802,4.5875,4.6205,4.6741,4.6831,4.6373,4.5541,4.5731,4.5212,4.4305,4.4465,4.411,4.3572,4.4142,4.4113,4.382,4.4207,4.4322,4.4285,4.4244,4.4199,4.4135,4.407,4.4036,4.407,4.4199,4.4259,4.4512,4.5562,4.5341,4.5012,4.584,4.5929,4.573,4.5432,4.5752,4.6329,4.6999,4.7475,4.7875,4.8296,4.8515,4.883,4.9476,4.9694,4.9834,5.0076,5.0151,5.0126,4.9959,4.9891,4.9804,4.9667,4.9707,4.9724,4.963,4.9788,4.9423,4.8371,4.8183,4.8081,4.8034,4.7493,4.7933,4.9497,4.8982,4.8987,4.9525,4.9463,4.9401,4.9348,4.9619,4.9085,4.7996,4.8629,4.7954,4.6547,4.774,4.7598,4.6684,4.7465,4.7382,4.6911,4.7815,4.8149,4.8303,4.8333,4.854,4.8837,4.9222,4.8948,4.8693,4.8764,4.8389,4.7836,4.7098,4.7009,4.7009,4.7009,4.7009,4.7009,4.7009,4.7009,4.683,4.6391,4.5256,4.4697,4.4881,4.3888,4.3594,4.4098,4.375,4.3695,4.3987,4.4041,4.4325,4.4857,4.5735,4.6266,4.6494,4.6842,4.6691,4.6185,4.6242,4.5752,4.4964,4.5354,4.5002,4.4273,4.4674,4.4583,4.4227,4.4285,4.427,4.4244,4.4142,4.4093,4.4085,4.402,4.4036,4.4112,4.4184,4.4573,4.5118,4.5892,4.6052,4.6046,4.6211,4.6504,4.6581,4.6017,4.6648,4.7466,4.7831,4.8447,4.8909,4.8944,4.9158,4.9395,4.9671,4.9793,4.988,4.9998,5.0025,5.0005,4.983,4.9774,4.9724,4.9625,4.9618,4.9566,4.9464,4.9581,4.9459,4.8989,4.8586,4.8555,4.9001,4.8106,4.8309,4.9731,4.9289,4.9199,4.9446,4.9622,4.96,4.9404,4.9681,4.9445,4.8866,4.9236,4.8803,4.787,4.7971,4.8017,4.8055,4.785,4.7994,4.8371,4.8761,4.8915,4.9001,4.8305,4.8563,4.8876,4.9412,4.9947,4.9906,4.8758,4.8889,4.8645,4.7366,4.7098,4.7009,4.7009,4.7009,4.7009,4.7009,4.7009,4.7009,4.7009,4.5488,4.4789,4.5176,4.4107,4.3597,4.3807,4.3674,4.3511,4.3303,4.3524,4.3702,4.3832,4.5193,4.5867,4.5963,4.6514,4.6717,4.6637,4.6719,4.63,4.5634,4.6301,4.5923,4.4988,4.5343,4.5186,4.4724,4.4474,4.4311,4.4184,4.407,4.4028,4.402,4.4005,4.4108,4.4255,4.4405,4.5093,4.5909,4.6329,4.6897,4.7216,4.6597,4.6949,4.7275,4.6751,4.7617,4.858,4.8658,4.9407,4.9887,4.9322,4.97,5.0024,4.9771,4.9895,5.0093,5.0311,5.0075,4.9879,4.9859,4.9713,4.9536,4.9324,4.9308,4.9276,4.9214,4.9289,4.9449,4.9611,4.8889,4.8855,4.9662,4.8784,4.8735,4.9637,4.9695,4.9644,4.9453,4.9582,4.9578,4.9469,4.9702,4.9848,4.9898,4.9693,4.9722,4.9798,4.8187,4.8461,4.9753,4.837,4.8659,4.9835,4.9774,4.9764,4.9785,4.9174,4.9357,4.972,5.0246,4.9858,4.9626,5.012,4.9151,4.8258,4.8074,4.7419,4.7009,4.7009,4.7009,4.7009,4.7009,4.7009,4.7009,4.7009,4.5488,4.4789,4.5176,4.4645,4.4175,4.3799,4.4496,4.4339,4.3303,4.3113,4.3282,4.3814,4.4201,4.499,4.6065,4.5858,4.6167,4.6772,4.6672,4.6483,4.6276,4.6382,4.6099,4.5599,4.5781,4.5327,4.4635,4.471,4.4508,4.4191,4.4184,4.4176,4.4142,4.4047,4.4121,4.4436,4.5199,4.5634,4.6173,4.748,4.7942,4.8033,4.787,4.8506,4.9005,4.841,4.8302,4.8545,4.9223,4.9629,4.9802,4.9712,4.9913,5.0317,5.094,5.0506,5.0576,5.1954,5.0794,5.0073,5.0809,5.0173,4.957,4.9332,4.9308,4.9276,4.9214,4.9211,4.9236,4.9279,4.9196,4.9193,4.9276,4.9188,4.9243,4.9438,4.9453,4.9514,4.9663,4.9736,4.9615,4.9337,4.9652,4.9848,4.9893,4.9979,5.0018,4.9973,4.9693,4.9723,4.9874,4.964,4.973,4.9985,5.0031,5.0011,4.9985,4.9918,4.9704,4.983,5.0983,5.0513,5.009,5.0447,4.9549,4.8669,4.8252,4.7491,4.7009,4.7009,4.7009,4.7009,4.7009,4.7009,4.6813,4.6355,4.5238,4.4682,4.4863,4.4622,4.461,4.4791,4.5004,4.4715,4.3898,4.3898,4.3696,4.3308,4.4231,4.4926,4.544,4.5506,4.5882,4.6476,4.6483,4.641,4.6289,4.6374,4.6283,4.6087,4.6034,4.5874,4.567,4.5729,4.5354,4.4811,4.4811,4.4495,4.4078,4.402,4.4429,4.5002,4.5469,4.6415,4.744,4.8043,4.8622,4.8874,4.8215,4.8718,4.9197,4.845,4.8881,4.9465,4.9446,4.9503,4.9747,5.0314,5.0208,5.0481,5.1865,5.1279,5.1059,5.2229,5.156,5.1111,5.1496,5.0726,5.0086,4.9925,4.9506,4.9222,4.915,4.9173,4.9252,4.9357,4.9818,4.9898,4.9483,4.9868,4.9918,4.957,4.964,4.9717,4.9757,4.9857,4.9824,4.9698,4.9872,5.0024,5.0114,5.0158,5.0145,5.0063,4.9543,4.9308,4.9282,4.9282,4.9606,5.007,5.0139,5.0095,4.9999]}]]